Time,TemperatureF,DewpointF,PressureIn,WindDirection,WindDirectionDegrees,WindSpeedMPH,WindSpeedGustMPH,Humidity,HourlyPrecipIn,Conditions,Clouds,dailyrainin,SoftwareType,DateUTC
2013-08-08 00:00:00,82.4,68.6,30.00,West,276,0.0,0.0,63,0.00,,---,0.00,VWS V14.01,2013-08-08 05:00:00,
2013-08-08 00:01:00,82.4,69.0,30.00,West,276,0.0,0.0,64,0.00,,---,0.00,VWS V14.01,2013-08-08 05:01:00,
2013-08-08 00:02:00,82.4,69.0,30.00,West,276,0.0,0.0,64,0.00,,---,0.00,VWS V14.01,2013-08-08 05:02:00,
2013-08-08 00:03:00,82.4,68.6,30.00,West,276,0.0,0.0,63,0.00,,---,0.00,VWS V14.01,2013-08-08 05:03:00,
2013-08-08 00:04:00,82.4,68.6,30.00,South,187,2.2,3.1,63,0.00,,---,0.00,VWS V14.01,2013-08-08 05:04:00,
2013-08-08 00:05:00,82.4,68.6,30.00,West,275,0.0,2.2,63,0.00,,---,0.00,VWS V14.01,2013-08-08 05:05:00,
2013-08-08 00:06:00,82.4,69.0,30.00,West,275,0.0,0.0,64,0.00,,---,0.00,VWS V14.01,2013-08-08 05:06:00,
2013-08-08 00:07:00,82.4,69.0,30.00,West,275,0.0,0.0,64,0.00,,---,0.00,VWS V14.01,2013-08-08 05:07:00,
2013-08-08 00:08:00,82.4,69.0,30.00,SSW,213,0.0,2.7,64,0.00,,---,0.00,VWS V14.01,2013-08-08 05:08:00,
2013-08-08 00:09:00,82.4,69.0,30.00,SW,217,0.0,2.2,64,0.00,,---,0.00,VWS V14.01,2013-08-08 05:09:00,
2013-08-08 00:10:00,82.4,69.0,30.00,SW,217,0.0,0.0,64,0.00,,---,0.00,VWS V14.01,2013-08-08 05:10:00,
2013-08-08 00:11:00,82.4,69.0,30.00,SW,217,0.0,0.0,64,0.00,,---,0.00,VWS V14.01,2013-08-08 05:11:00,
2013-08-08 00:12:00,82.4,69.0,30.00,SW,217,0.0,0.0,64,0.00,,---,0.00,VWS V14.01,2013-08-08 05:12:00,
2013-08-08 00:13:00,82.6,69.2,30.00,SW,217,0.0,0.0,64,0.00,,---,0.00,VWS V14.01,2013-08-08 05:13:00,
2013-08-08 00:14:00,82.4,69.0,30.00,East,90,0.0,0.0,64,0.00,,---,0.00,VWS V14.01,2013-08-08 05:14:00,
2013-08-08 00:15:00,82.4,68.6,30.00,East,90,0.0,0.0,63,0.00,,---,0.00,VWS V14.01,2013-08-08 05:15:00,
2013-08-08 00:16:00,82.2,68.8,30.00,South,191,2.7,2.7,64,0.00,,---,0.00,VWS V14.01,2013-08-08 05:16:00,
2013-08-08 00:17:00,82.2,68.8,30.00,South,191,0.0,2.7,64,0.00,,---,0.00,VWS V14.01,2013-08-08 05:17:00,
2013-08-08 00:18:00,82.2,68.8,30.00,SW,220,0.0,3.1,64,0.00,,---,0.00,VWS V14.01,2013-08-08 05:18:00,
2013-08-08 00:19:00,82.4,69.0,30.00,SW,220,0.0,0.0,64,0.00,,---,0.00,VWS V14.01,2013-08-08 05:19:00,
2013-08-08 00:20:00,82.4,69.0,30.00,SSW,211,2.2,3.6,64,0.00,,---,0.00,VWS V14.01,2013-08-08 05:20:00,
2013-08-08 00:21:00,82.2,68.8,30.00,SSW,211,0.0,0.0,64,0.00,,---,0.00,VWS V14.01,2013-08-08 05:21:00,
2013-08-08 00:22:00,82.2,68.8,30.00,West,267,0.0,0.0,64,0.00,,---,0.00,VWS V14.01,2013-08-08 05:22:00,
2013-08-08 00:23:00,82.2,68.8,30.00,West,267,0.0,0.0,64,0.00,,---,0.00,VWS V14.01,2013-08-08 05:23:00,
2013-08-08 00:24:00,82.2,68.8,30.00,West,267,0.0,0.0,64,0.00,,---,0.00,VWS V14.01,2013-08-08 05:24:00,
2013-08-08 00:25:00,82.2,68.8,30.00,WNW,283,0.0,0.0,64,0.00,,---,0.00,VWS V14.01,2013-08-08 05:25:00,
2013-08-08 00:26:00,82.2,68.8,30.00,WNW,283,0.0,0.0,64,0.00,,---,0.00,VWS V14.01,2013-08-08 05:26:00,
2013-08-08 00:27:00,82.2,68.8,30.00,WNW,283,0.0,0.0,64,0.00,,---,0.00,VWS V14.01,2013-08-08 05:27:00,
2013-08-08 00:28:00,82.2,68.8,30.00,WNW,283,0.0,0.0,64,0.00,,---,0.00,VWS V14.01,2013-08-08 05:28:00,
2013-08-08 00:29:00,82.2,68.8,30.00,WNW,283,0.0,0.0,64,0.00,,---,0.00,VWS V14.01,2013-08-08 05:29:00,
2013-08-08 00:30:00,82.2,68.8,30.00,SW,227,0.0,0.0,64,0.00,,---,0.00,VWS V14.01,2013-08-08 05:30:00,
2013-08-08 00:31:00,82.2,68.8,30.00,SW,224,2.7,2.7,64,0.00,,---,0.35,VWS V14.01,2013-08-08 05:31:00,
2013-08-08 00:32:00,82.4,69.0,30.00,SSW,210,2.7,4.0,64,0.00,,---,0.00,VWS V14.01,2013-08-08 05:32:00,
2013-08-08 00:33:00,82.4,69.0,30.00,SSW,213,0.0,3.6,64,0.00,,---,0.00,VWS V14.01,2013-08-08 05:33:00,
2013-08-08 00:34:00,82.4,69.0,29.97,SSW,213,0.0,0.0,64,0.00,,---,0.00,VWS V14.01,2013-08-08 05:34:00,
2013-08-08 00:35:00,82.4,69.0,29.97,SW,219,3.1,3.1,64,0.00,,---,0.00,VWS V14.01,2013-08-08 05:35:00,
2013-08-08 00:36:00,82.2,68.8,29.97,SW,219,0.0,2.2,64,0.00,,---,0.35,VWS V14.01,2013-08-08 05:36:00,
2013-08-08 00:37:00,82.2,68.8,29.97,SW,219,0.0,2.2,64,0.00,,---,0.00,VWS V14.01,2013-08-08 05:37:00,
2013-08-08 00:38:00,82.2,68.8,29.97,SW,219,0.0,0.0,64,0.00,,---,0.00,VWS V14.01,2013-08-08 05:38:00,
2013-08-08 00:39:00,82.0,68.7,29.97,SW,219,0.0,0.0,64,0.00,,---,0.00,VWS V14.01,2013-08-08 05:39:00,
2013-08-08 00:40:00,82.2,68.8,29.97,SW,219,0.0,0.0,64,0.00,,---,0.00,VWS V14.01,2013-08-08 05:40:00,
2013-08-08 00:41:00,82.4,69.0,29.97,SW,231,0.0,4.0,64,0.00,,---,0.00,VWS V14.01,2013-08-08 05:41:00,
2013-08-08 00:42:00,82.4,69.0,29.97,SW,231,0.0,4.0,64,0.00,,---,0.00,VWS V14.01,2013-08-08 05:42:00,
2013-08-08 00:43:00,82.2,68.8,29.97,SW,231,0.0,0.0,64,0.00,,---,0.00,VWS V14.01,2013-08-08 05:43:00,
2013-08-08 00:44:00,82.0,68.7,29.97,SW,231,0.0,0.0,64,0.00,,---,0.00,VWS V14.01,2013-08-08 05:44:00,
2013-08-08 00:45:00,82.0,68.7,29.97,SSW,197,2.7,2.7,64,0.00,,---,0.00,VWS V14.01,2013-08-08 05:45:00,
2013-08-08 00:46:00,82.0,68.7,29.97,SSW,197,0.0,0.0,64,0.00,,---,0.00,VWS V14.01,2013-08-08 05:46:00,
2013-08-08 00:47:00,82.0,68.7,29.97,SSW,197,0.0,0.0,64,0.00,,---,0.00,VWS V14.01,2013-08-08 05:47:00,
2013-08-08 00:48:00,82.0,68.7,29.97,SSW,197,0.0,0.0,64,0.00,,---,0.00,VWS V14.01,2013-08-08 05:48:00,
2013-08-08 00:49:00,82.0,68.7,29.97,SSW,197,0.0,0.0,64,0.00,,---,0.00,VWS V14.01,2013-08-08 05:49:00,
2013-08-08 00:50:00,82.0,68.7,29.97,SSW,197,0.0,0.0,64,0.00,,---,0.00,VWS V14.01,2013-08-08 05:50:00,
2013-08-08 00:51:00,81.9,68.5,29.97,South,185,2.7,4.0,64,0.00,,---,0.00,VWS V14.01,2013-08-08 05:51:00,
2013-08-08 00:52:00,81.9,68.5,29.97,South,185,2.2,4.0,64,0.00,,---,0.00,VWS V14.01,2013-08-08 05:52:00,
2013-08-08 00:53:00,81.9,68.9,29.97,South,185,0.0,2.2,65,0.00,,---,0.00,VWS V14.01,2013-08-08 05:53:00,
2013-08-08 00:54:00,81.9,68.9,29.97,South,185,0.0,0.0,65,0.00,,---,0.00,VWS V14.01,2013-08-08 05:54:00,
2013-08-08 00:55:00,82.0,69.1,29.97,South,185,0.0,0.0,65,0.00,,---,0.00,VWS V14.01,2013-08-08 05:55:00,
2013-08-08 00:56:00,82.0,69.1,29.97,South,185,0.0,0.0,65,0.00,,---,0.00,VWS V14.01,2013-08-08 05:56:00,
2013-08-08 00:57:00,81.9,68.9,29.97,South,185,0.0,0.0,65,0.00,,---,0.00,VWS V14.01,2013-08-08 05:57:00,
2013-08-08 00:58:00,81.7,68.8,29.97,South,185,0.0,0.0,65,0.00,,---,0.00,VWS V14.01,2013-08-08 05:58:00,
2013-08-08 00:59:00,81.9,68.9,29.97,South,185,2.7,3.6,65,0.00,,---,0.00,VWS V14.01,2013-08-08 05:59:00,
2013-08-08 01:00:00,82.0,69.1,29.97,South,185,0.0,2.7,65,0.00,,---,0.00,VWS V14.01,2013-08-08 06:00:00,
2013-08-08 01:01:00,82.0,69.1,29.97,South,185,0.0,0.0,65,0.00,,---,0.00,VWS V14.01,2013-08-08 06:01:00,
2013-08-08 01:02:00,82.0,69.1,29.97,South,185,2.2,2.2,65,0.00,,---,0.00,VWS V14.01,2013-08-08 06:02:00,
2013-08-08 01:03:00,81.9,68.9,29.97,South,185,0.0,2.2,65,0.00,,---,0.00,VWS V14.01,2013-08-08 06:03:00,
2013-08-08 01:04:00,81.9,68.9,30.00,South,185,0.0,0.0,65,0.00,,---,0.00,VWS V14.01,2013-08-08 06:04:00,
2013-08-08 01:05:00,81.7,68.8,30.00,South,185,0.0,0.0,65,0.00,,---,0.00,VWS V14.01,2013-08-08 06:05:00,
2013-08-08 01:06:00,81.7,68.8,30.00,South,185,0.0,0.0,65,0.00,,---,0.00,VWS V14.01,2013-08-08 06:06:00,
2013-08-08 01:07:00,81.7,68.8,30.00,South,185,0.0,0.0,65,0.00,,---,0.00,VWS V14.01,2013-08-08 06:07:00,
2013-08-08 01:08:00,81.7,68.8,30.00,South,185,0.0,0.0,65,0.00,,---,0.00,VWS V14.01,2013-08-08 06:08:00,
2013-08-08 01:09:00,81.7,68.8,30.00,South,185,0.0,0.0,65,0.00,,---,0.00,VWS V14.01,2013-08-08 06:09:00,
2013-08-08 01:10:00,81.5,69.1,30.00,South,185,0.0,0.0,66,0.00,,---,0.00,VWS V14.01,2013-08-08 06:10:00,
2013-08-08 01:11:00,81.5,69.1,30.00,South,185,0.0,0.0,66,0.00,,---,0.00,VWS V14.01,2013-08-08 06:11:00,
2013-08-08 01:12:00,81.5,69.1,30.00,South,185,0.0,0.0,66,0.00,,---,0.00,VWS V14.01,2013-08-08 06:12:00,
2013-08-08 01:13:00,81.3,68.9,30.00,South,185,0.0,0.0,66,0.00,,---,0.00,VWS V14.01,2013-08-08 06:13:00,
2013-08-08 01:14:00,81.3,68.9,30.00,South,185,0.0,0.0,66,0.00,,---,0.00,VWS V14.01,2013-08-08 06:14:00,
2013-08-08 01:15:00,81.3,68.9,30.00,South,185,0.0,0.0,66,0.00,,---,0.00,VWS V14.01,2013-08-08 06:15:00,
2013-08-08 01:16:00,81.3,68.9,30.00,South,185,0.0,0.0,66,0.00,,---,0.00,VWS V14.01,2013-08-08 06:16:00,
2013-08-08 01:17:00,81.3,68.9,30.00,South,185,0.0,0.0,66,0.00,,---,0.00,VWS V14.01,2013-08-08 06:17:00,
2013-08-08 01:18:00,81.3,68.9,30.00,South,185,0.0,0.0,66,0.00,,---,0.00,VWS V14.01,2013-08-08 06:18:00,
2013-08-08 01:19:00,81.1,68.7,29.97,South,185,0.0,0.0,66,0.00,,---,0.00,VWS V14.01,2013-08-08 06:19:00,
2013-08-08 01:20:00,81.1,69.2,29.97,South,185,0.0,0.0,67,0.00,,---,0.00,VWS V14.01,2013-08-08 06:20:00,
2013-08-08 01:21:00,81.1,69.2,29.97,South,185,0.0,0.0,67,0.00,,---,0.00,VWS V14.01,2013-08-08 06:21:00,
2013-08-08 01:22:00,81.1,69.2,29.97,South,185,0.0,0.0,67,0.00,,---,0.00,VWS V14.01,2013-08-08 06:22:00,
2013-08-08 01:23:00,81.1,69.2,29.97,South,185,0.0,0.0,67,0.00,,---,0.00,VWS V14.01,2013-08-08 06:23:00,
2013-08-08 01:24:00,81.1,69.2,29.97,South,185,0.0,0.0,67,0.00,,---,0.00,VWS V14.01,2013-08-08 06:24:00,
2013-08-08 01:25:00,81.1,69.2,29.97,South,185,0.0,0.0,67,0.00,,---,0.00,VWS V14.01,2013-08-08 06:25:00,
2013-08-08 01:26:00,81.1,69.2,29.97,South,185,0.0,0.0,67,0.00,,---,0.00,VWS V14.01,2013-08-08 06:26:00,
2013-08-08 01:27:00,81.0,69.0,29.97,South,185,0.0,0.0,67,0.00,,---,0.00,VWS V14.01,2013-08-08 06:27:00,
2013-08-08 01:28:00,81.0,69.0,29.97,South,185,0.0,0.0,67,0.00,,---,0.00,VWS V14.01,2013-08-08 06:28:00,
2013-08-08 01:29:00,81.1,69.6,29.97,South,185,0.0,0.0,68,0.00,,---,0.00,VWS V14.01,2013-08-08 06:29:00,
2013-08-08 01:30:00,81.1,69.6,29.97,South,185,0.0,0.0,68,0.00,,---,0.00,VWS V14.01,2013-08-08 06:30:00,
2013-08-08 01:31:00,81.1,69.6,29.97,South,185,0.0,0.0,68,0.00,,---,0.00,VWS V14.01,2013-08-08 06:31:00,
2013-08-08 01:32:00,81.1,69.6,29.97,South,185,0.0,0.0,68,0.00,,---,0.00,VWS V14.01,2013-08-08 06:32:00,
2013-08-08 01:33:00,81.1,69.6,29.97,South,185,0.0,0.0,68,0.00,,---,0.00,VWS V14.01,2013-08-08 06:33:00,
2013-08-08 01:34:00,81.0,69.4,29.97,South,185,0.0,0.0,68,0.00,,---,0.00,VWS V14.01,2013-08-08 06:34:00,
2013-08-08 01:35:00,81.0,69.4,29.97,South,185,0.0,0.0,68,0.00,,---,0.00,VWS V14.01,2013-08-08 06:35:00,
2013-08-08 01:36:00,81.0,69.4,29.97,South,185,0.0,0.0,68,0.00,,---,0.00,VWS V14.01,2013-08-08 06:36:00,
2013-08-08 01:37:00,81.1,69.6,29.97,South,185,0.0,0.0,68,0.00,,---,0.00,VWS V14.01,2013-08-08 06:37:00,
2013-08-08 01:38:00,81.1,69.6,29.97,South,185,0.0,0.0,68,0.00,,---,0.00,VWS V14.01,2013-08-08 06:38:00,
2013-08-08 01:39:00,81.0,69.4,29.97,South,185,0.0,0.0,68,0.00,,---,0.00,VWS V14.01,2013-08-08 06:39:00,
2013-08-08 01:40:00,81.0,69.4,29.97,South,185,0.0,0.0,68,0.00,,---,0.00,VWS V14.01,2013-08-08 06:40:00,
2013-08-08 01:41:00,81.0,69.4,29.97,South,185,0.0,0.0,68,0.00,,---,0.00,VWS V14.01,2013-08-08 06:41:00,
2013-08-08 01:42:00,80.8,69.2,29.97,South,185,0.0,0.0,68,0.00,,---,0.00,VWS V14.01,2013-08-08 06:42:00,
2013-08-08 01:43:00,80.8,69.2,29.97,South,185,0.0,0.0,68,0.00,,---,0.00,VWS V14.01,2013-08-08 06:43:00,
2013-08-08 01:44:00,80.8,69.2,29.97,South,185,0.0,0.0,68,0.00,,---,0.00,VWS V14.01,2013-08-08 06:44:00,
2013-08-08 01:45:00,80.8,69.2,29.97,South,185,0.0,0.0,68,0.00,,---,0.00,VWS V14.01,2013-08-08 06:45:00,
2013-08-08 01:46:00,80.6,69.1,29.97,South,185,0.0,0.0,68,0.00,,---,0.00,VWS V14.01,2013-08-08 06:46:00,
2013-08-08 01:47:00,80.6,69.1,29.97,South,185,0.0,0.0,68,0.00,,---,0.00,VWS V14.01,2013-08-08 06:47:00,
2013-08-08 01:48:00,80.6,69.1,29.97,South,185,0.0,0.0,68,0.00,,---,0.00,VWS V14.01,2013-08-08 06:48:00,
2013-08-08 01:49:00,80.6,69.1,29.97,South,185,0.0,0.0,68,0.00,,---,0.00,VWS V14.01,2013-08-08 06:49:00,
2013-08-08 01:50:00,80.4,69.3,29.97,South,185,0.0,0.0,69,0.00,,---,0.00,VWS V14.01,2013-08-08 06:50:00,
2013-08-08 01:51:00,80.4,69.3,29.97,South,185,0.0,0.0,69,0.00,,---,0.00,VWS V14.01,2013-08-08 06:51:00,
2013-08-08 01:52:00,80.6,69.5,29.97,South,185,0.0,0.0,69,0.00,,---,0.00,VWS V14.01,2013-08-08 06:52:00,
2013-08-08 01:53:00,80.6,69.5,29.97,South,185,0.0,0.0,69,0.00,,---,0.00,VWS V14.01,2013-08-08 06:53:00,
2013-08-08 01:54:00,80.4,69.3,29.97,South,185,0.0,0.0,69,0.00,,---,0.00,VWS V14.01,2013-08-08 06:54:00,
2013-08-08 01:55:00,80.4,69.3,29.97,South,185,0.0,0.0,69,0.00,,---,0.00,VWS V14.01,2013-08-08 06:55:00,
2013-08-08 01:56:00,80.2,69.2,29.97,South,185,0.0,0.0,69,0.00,,---,0.00,VWS V14.01,2013-08-08 06:56:00,
2013-08-08 01:57:00,80.2,69.2,29.97,South,185,0.0,0.0,69,0.00,,---,0.00,VWS V14.01,2013-08-08 06:57:00,
2013-08-08 01:58:00,80.2,69.2,29.97,South,185,0.0,0.0,69,0.00,,---,0.00,VWS V14.01,2013-08-08 06:58:00,
2013-08-08 01:59:00,80.2,69.6,29.97,South,185,0.0,0.0,70,0.00,,---,0.00,VWS V14.01,2013-08-08 06:59:00,
2013-08-08 02:00:00,80.2,69.6,29.97,South,185,0.0,0.0,70,0.00,,---,0.00,VWS V14.01,2013-08-08 07:00:00,
2013-08-08 02:01:00,80.2,69.6,29.97,South,185,0.0,0.0,70,0.00,,---,0.35,VWS V14.01,2013-08-08 07:01:00,
2013-08-08 02:02:00,80.2,69.6,29.97,South,185,0.0,0.0,70,0.00,,---,0.00,VWS V14.01,2013-08-08 07:02:00,
2013-08-08 02:03:00,80.1,69.4,29.97,South,185,0.0,0.0,70,0.00,,---,0.00,VWS V14.01,2013-08-08 07:03:00,
2013-08-08 02:04:00,80.1,69.4,29.97,South,185,0.0,0.0,70,0.00,,---,0.00,VWS V14.01,2013-08-08 07:04:00,
2013-08-08 02:05:00,80.1,69.4,29.97,South,185,0.0,0.0,70,0.00,,---,0.00,VWS V14.01,2013-08-08 07:05:00,
2013-08-08 02:06:00,79.9,69.6,29.97,South,185,0.0,0.0,71,0.00,,---,0.00,VWS V14.01,2013-08-08 07:06:00,
2013-08-08 02:07:00,79.9,69.6,29.97,South,185,0.0,0.0,71,0.00,,---,0.00,VWS V14.01,2013-08-08 07:07:00,
2013-08-08 02:08:00,79.9,69.6,29.97,South,185,0.0,0.0,71,0.00,,---,0.00,VWS V14.01,2013-08-08 07:08:00,
2013-08-08 02:09:00,79.9,69.6,29.97,South,185,0.0,0.0,71,0.00,,---,0.00,VWS V14.01,2013-08-08 07:09:00,
2013-08-08 02:10:00,79.9,69.6,29.97,South,185,0.0,0.0,71,0.00,,---,0.00,VWS V14.01,2013-08-08 07:10:00,
2013-08-08 02:11:00,79.9,69.6,29.97,South,185,0.0,0.0,71,0.00,,---,0.00,VWS V14.01,2013-08-08 07:11:00,
2013-08-08 02:12:00,79.9,69.6,29.97,South,185,0.0,0.0,71,0.00,,---,0.00,VWS V14.01,2013-08-08 07:12:00,
2013-08-08 02:13:00,79.7,69.5,29.97,South,185,0.0,0.0,71,0.00,,---,0.00,VWS V14.01,2013-08-08 07:13:00,
2013-08-08 02:14:00,79.7,69.5,29.97,South,185,0.0,0.0,71,0.00,,---,0.00,VWS V14.01,2013-08-08 07:14:00,
2013-08-08 02:15:00,79.7,69.5,29.97,South,185,0.0,0.0,71,0.00,,---,0.00,VWS V14.01,2013-08-08 07:15:00,
2013-08-08 02:16:00,79.7,69.9,29.97,South,185,0.0,0.0,72,0.00,,---,0.00,VWS V14.01,2013-08-08 07:16:00,
2013-08-08 02:17:00,79.7,69.9,29.97,South,185,0.0,0.0,72,0.00,,---,0.00,VWS V14.01,2013-08-08 07:17:00,
2013-08-08 02:18:00,79.7,69.5,29.97,South,185,0.0,0.0,71,0.00,,---,0.00,VWS V14.01,2013-08-08 07:18:00,
2013-08-08 02:19:00,79.5,69.3,29.97,South,185,0.0,0.0,71,0.00,,---,0.00,VWS V14.01,2013-08-08 07:19:00,
2013-08-08 02:20:00,79.5,69.3,29.97,South,185,0.0,0.0,71,0.00,,---,0.00,VWS V14.01,2013-08-08 07:20:00,
2013-08-08 02:21:00,79.3,69.5,29.97,South,185,0.0,0.0,72,0.00,,---,0.00,VWS V14.01,2013-08-08 07:21:00,
2013-08-08 02:22:00,79.3,69.5,29.97,South,185,0.0,0.0,72,0.00,,---,0.00,VWS V14.01,2013-08-08 07:22:00,
2013-08-08 02:23:00,79.3,69.5,29.97,South,185,0.0,0.0,72,0.00,,---,0.00,VWS V14.01,2013-08-08 07:23:00,
2013-08-08 02:24:00,79.3,69.5,29.97,South,185,0.0,0.0,72,0.00,,---,0.00,VWS V14.01,2013-08-08 07:24:00,
2013-08-08 02:25:00,79.3,69.5,29.97,South,185,0.0,0.0,72,0.00,,---,0.00,VWS V14.01,2013-08-08 07:25:00,
2013-08-08 02:26:00,79.3,69.5,29.97,South,185,0.0,0.0,72,0.00,,---,0.00,VWS V14.01,2013-08-08 07:26:00,
2013-08-08 02:27:00,79.3,69.5,29.97,South,185,0.0,0.0,72,0.00,,---,0.00,VWS V14.01,2013-08-08 07:27:00,
2013-08-08 02:28:00,79.3,69.5,29.97,South,185,0.0,0.0,72,0.00,,---,0.00,VWS V14.01,2013-08-08 07:28:00,
2013-08-08 02:29:00,79.3,69.9,29.97,South,185,0.0,0.0,73,0.00,,---,0.00,VWS V14.01,2013-08-08 07:29:00,
2013-08-08 02:30:00,79.3,69.9,29.97,South,185,0.0,0.0,73,0.00,,---,0.00,VWS V14.01,2013-08-08 07:30:00,
2013-08-08 02:31:00,79.3,69.9,29.97,South,185,0.0,0.0,73,0.00,,---,0.00,VWS V14.01,2013-08-08 07:31:00,
2013-08-08 02:32:00,79.3,69.9,29.97,South,185,0.0,0.0,73,0.00,,---,0.00,VWS V14.01,2013-08-08 07:32:00,
2013-08-08 02:33:00,79.3,69.9,29.97,South,185,0.0,0.0,73,0.00,,---,0.00,VWS V14.01,2013-08-08 07:33:00,
2013-08-08 02:34:00,79.3,69.9,29.97,South,185,0.0,0.0,73,0.00,,---,0.00,VWS V14.01,2013-08-08 07:34:00,
2013-08-08 02:35:00,79.3,69.9,29.97,South,185,0.0,0.0,73,0.00,,---,0.00,VWS V14.01,2013-08-08 07:35:00,
2013-08-08 02:36:00,79.3,69.9,29.97,South,185,0.0,0.0,73,0.00,,---,0.00,VWS V14.01,2013-08-08 07:36:00,
2013-08-08 02:37:00,79.3,70.3,29.97,South,185,0.0,0.0,74,0.00,,---,0.00,VWS V14.01,2013-08-08 07:37:00,
2013-08-08 02:38:00,79.5,70.5,29.97,South,185,0.0,0.0,74,0.00,,---,0.00,VWS V14.01,2013-08-08 07:38:00,
2013-08-08 02:39:00,79.5,70.5,29.97,South,185,0.0,0.0,74,0.00,,---,0.00,VWS V14.01,2013-08-08 07:39:00,
2013-08-08 02:40:00,79.5,70.5,29.97,South,185,0.0,0.0,74,0.00,,---,0.00,VWS V14.01,2013-08-08 07:40:00,
2013-08-08 02:41:00,79.3,70.3,29.97,South,185,0.0,0.0,74,0.00,,---,0.00,VWS V14.01,2013-08-08 07:41:00,
2013-08-08 02:42:00,79.3,70.3,29.97,South,185,0.0,0.0,74,0.00,,---,0.00,VWS V14.01,2013-08-08 07:42:00,
2013-08-08 02:43:00,79.3,70.3,29.97,South,185,0.0,0.0,74,0.00,,---,0.00,VWS V14.01,2013-08-08 07:43:00,
2013-08-08 02:44:00,79.3,70.3,29.97,South,185,0.0,0.0,74,0.00,,---,0.00,VWS V14.01,2013-08-08 07:44:00,
2013-08-08 02:45:00,79.3,70.3,29.97,South,185,0.0,0.0,74,0.00,,---,0.00,VWS V14.01,2013-08-08 07:45:00,
2013-08-08 02:46:00,79.3,70.3,29.97,South,185,0.0,0.0,74,0.00,,---,0.00,VWS V14.01,2013-08-08 07:46:00,
2013-08-08 02:47:00,79.3,70.3,29.97,South,185,0.0,0.0,74,0.00,,---,0.00,VWS V14.01,2013-08-08 07:47:00,
2013-08-08 02:48:00,79.2,70.2,29.97,South,185,0.0,0.0,74,0.00,,---,0.00,VWS V14.01,2013-08-08 07:48:00,
2013-08-08 02:49:00,79.2,70.2,29.97,South,185,0.0,0.0,74,0.00,,---,0.00,VWS V14.01,2013-08-08 07:49:00,
2013-08-08 02:50:00,79.2,70.2,29.97,South,185,0.0,0.0,74,0.00,,---,0.00,VWS V14.01,2013-08-08 07:50:00,
2013-08-08 02:51:00,79.2,70.6,29.97,South,185,0.0,0.0,75,0.00,,---,0.00,VWS V14.01,2013-08-08 07:51:00,
2013-08-08 02:52:00,79.2,70.6,29.97,South,185,0.0,0.0,75,0.00,,---,0.00,VWS V14.01,2013-08-08 07:52:00,
2013-08-08 02:53:00,79.2,70.6,29.97,South,185,0.0,0.0,75,0.00,,---,0.00,VWS V14.01,2013-08-08 07:53:00,
2013-08-08 02:54:00,79.2,70.6,29.97,South,185,0.0,0.0,75,0.00,,---,0.00,VWS V14.01,2013-08-08 07:54:00,
2013-08-08 02:55:00,79.2,70.6,29.97,South,185,0.0,0.0,75,0.00,,---,0.00,VWS V14.01,2013-08-08 07:55:00,
2013-08-08 02:56:00,79.2,70.6,29.97,South,185,0.0,0.0,75,0.00,,---,0.00,VWS V14.01,2013-08-08 07:56:00,
2013-08-08 02:57:00,79.0,70.4,29.97,South,185,0.0,0.0,75,0.00,,---,0.00,VWS V14.01,2013-08-08 07:57:00,
2013-08-08 02:58:00,79.0,70.4,29.97,South,185,0.0,0.0,75,0.00,,---,0.00,VWS V14.01,2013-08-08 07:58:00,
2013-08-08 02:59:00,79.0,70.4,29.97,South,185,0.0,0.0,75,0.00,,---,0.00,VWS V14.01,2013-08-08 07:59:00,
2013-08-08 03:00:00,79.0,70.4,29.97,South,185,0.0,0.0,75,0.00,,---,0.00,VWS V14.01,2013-08-08 08:00:00,
2013-08-08 03:01:00,79.2,70.6,29.97,South,185,0.0,0.0,75,0.00,,---,0.00,VWS V14.01,2013-08-08 08:01:00,
2013-08-08 03:02:00,79.2,70.6,29.97,South,185,0.0,0.0,75,0.00,,---,0.00,VWS V14.01,2013-08-08 08:02:00,
2013-08-08 03:03:00,79.2,70.6,29.97,South,185,0.0,0.0,75,0.00,,---,0.00,VWS V14.01,2013-08-08 08:03:00,
2013-08-08 03:04:00,79.2,70.6,29.97,South,185,0.0,0.0,75,0.00,,---,0.00,VWS V14.01,2013-08-08 08:04:00,
2013-08-08 03:05:00,79.0,70.4,29.97,South,185,0.0,0.0,75,0.00,,---,0.00,VWS V14.01,2013-08-08 08:05:00,
2013-08-08 03:06:00,79.0,70.4,29.97,South,185,0.0,0.0,75,0.00,,---,0.00,VWS V14.01,2013-08-08 08:06:00,
2013-08-08 03:07:00,79.0,70.4,29.97,South,185,0.0,0.0,75,0.00,,---,0.00,VWS V14.01,2013-08-08 08:07:00,
2013-08-08 03:08:00,78.8,70.2,29.97,South,185,0.0,0.0,75,0.00,,---,0.00,VWS V14.01,2013-08-08 08:08:00,
2013-08-08 03:09:00,78.8,70.2,29.97,South,185,0.0,0.0,75,0.00,,---,0.00,VWS V14.01,2013-08-08 08:09:00,
2013-08-08 03:10:00,78.8,70.2,29.97,South,185,0.0,0.0,75,0.00,,---,0.00,VWS V14.01,2013-08-08 08:10:00,
2013-08-08 03:11:00,78.8,70.2,29.97,South,185,0.0,0.0,75,0.00,,---,0.00,VWS V14.01,2013-08-08 08:11:00,
2013-08-08 03:12:00,78.8,70.2,29.97,South,185,0.0,0.0,75,0.00,,---,0.00,VWS V14.01,2013-08-08 08:12:00,
2013-08-08 03:13:00,78.8,70.2,29.97,South,185,0.0,0.0,75,0.00,,---,0.00,VWS V14.01,2013-08-08 08:13:00,
2013-08-08 03:14:00,78.8,70.2,29.97,South,185,0.0,0.0,75,0.00,,---,0.00,VWS V14.01,2013-08-08 08:14:00,
2013-08-08 03:15:00,78.6,70.0,29.97,South,185,0.0,0.0,75,0.00,,---,0.00,VWS V14.01,2013-08-08 08:15:00,
2013-08-08 03:16:00,78.6,70.0,29.97,South,185,0.0,0.0,75,0.00,,---,0.00,VWS V14.01,2013-08-08 08:16:00,
2013-08-08 03:17:00,78.6,70.0,29.97,South,185,0.0,0.0,75,0.00,,---,0.00,VWS V14.01,2013-08-08 08:17:00,
2013-08-08 03:18:00,78.6,70.0,29.97,South,185,0.0,0.0,75,0.00,,---,0.00,VWS V14.01,2013-08-08 08:18:00,
2013-08-08 03:19:00,78.6,70.0,29.97,South,185,0.0,0.0,75,0.00,,---,0.00,VWS V14.01,2013-08-08 08:19:00,
2013-08-08 03:20:00,78.6,70.0,29.97,South,185,0.0,0.0,75,0.00,,---,0.00,VWS V14.01,2013-08-08 08:20:00,
2013-08-08 03:21:00,78.4,69.9,29.97,South,185,0.0,0.0,75,0.00,,---,0.00,VWS V14.01,2013-08-08 08:21:00,
2013-08-08 03:22:00,78.4,70.2,29.97,South,185,0.0,0.0,76,0.00,,---,0.00,VWS V14.01,2013-08-08 08:22:00,
2013-08-08 03:23:00,78.4,70.2,29.97,South,185,0.0,0.0,76,0.00,,---,0.00,VWS V14.01,2013-08-08 08:23:00,
2013-08-08 03:24:00,78.4,70.2,29.97,South,185,0.0,0.0,76,0.00,,---,0.00,VWS V14.01,2013-08-08 08:24:00,
2013-08-08 03:25:00,78.4,70.2,29.97,South,185,0.0,0.0,76,0.00,,---,0.00,VWS V14.01,2013-08-08 08:25:00,
2013-08-08 03:26:00,78.4,70.2,29.97,South,185,0.0,0.0,76,0.00,,---,0.35,VWS V14.01,2013-08-08 08:26:00,
2013-08-08 03:27:00,78.3,70.1,29.97,South,185,0.0,0.0,76,0.00,,---,0.00,VWS V14.01,2013-08-08 08:27:00,
2013-08-08 03:28:00,78.3,70.1,29.97,South,185,0.0,0.0,76,0.00,,---,0.00,VWS V14.01,2013-08-08 08:28:00,
2013-08-08 03:29:00,78.3,70.1,29.97,South,185,0.0,0.0,76,0.00,,---,0.00,VWS V14.01,2013-08-08 08:29:00,
2013-08-08 03:30:00,78.3,70.1,29.97,South,185,0.0,0.0,76,0.00,,---,0.00,VWS V14.01,2013-08-08 08:30:00,
2013-08-08 03:31:00,78.1,69.9,29.97,South,185,0.0,0.0,76,0.00,,---,0.00,VWS V14.01,2013-08-08 08:31:00,
2013-08-08 03:32:00,78.1,69.9,29.97,South,185,0.0,0.0,76,0.00,,---,0.00,VWS V14.01,2013-08-08 08:32:00,
2013-08-08 03:33:00,78.3,70.1,29.97,South,185,0.0,0.0,76,0.00,,---,0.00,VWS V14.01,2013-08-08 08:33:00,
2013-08-08 03:34:00,78.4,70.2,29.94,South,185,0.0,0.0,76,0.00,,---,0.00,VWS V14.01,2013-08-08 08:34:00,
2013-08-08 03:35:00,78.4,70.2,29.94,South,185,0.0,0.0,76,0.00,,---,0.00,VWS V14.01,2013-08-08 08:35:00,
2013-08-08 03:36:00,78.3,70.1,29.94,South,185,0.0,0.0,76,0.00,,---,0.00,VWS V14.01,2013-08-08 08:36:00,
2013-08-08 03:37:00,78.3,70.1,29.94,South,185,0.0,0.0,76,0.00,,---,0.00,VWS V14.01,2013-08-08 08:37:00,
2013-08-08 03:38:00,78.3,70.1,29.94,South,185,0.0,0.0,76,0.00,,---,0.00,VWS V14.01,2013-08-08 08:38:00,
2013-08-08 03:39:00,78.1,69.9,29.94,South,185,0.0,0.0,76,0.00,,---,0.00,VWS V14.01,2013-08-08 08:39:00,
2013-08-08 03:40:00,78.1,69.9,29.94,South,185,0.0,0.0,76,0.00,,---,0.00,VWS V14.01,2013-08-08 08:40:00,
2013-08-08 03:41:00,78.1,69.9,29.94,South,185,0.0,0.0,76,0.00,,---,0.35,VWS V14.01,2013-08-08 08:41:00,
2013-08-08 03:42:00,78.1,69.9,29.94,South,185,0.0,0.0,76,0.00,,---,0.00,VWS V14.01,2013-08-08 08:42:00,
2013-08-08 03:43:00,78.1,69.9,29.94,South,185,0.0,0.0,76,0.00,,---,0.00,VWS V14.01,2013-08-08 08:43:00,
2013-08-08 03:44:00,77.9,69.7,29.94,South,185,0.0,0.0,76,0.00,,---,0.00,VWS V14.01,2013-08-08 08:44:00,
2013-08-08 03:45:00,77.9,69.7,29.94,South,185,0.0,0.0,76,0.00,,---,0.00,VWS V14.01,2013-08-08 08:45:00,
2013-08-08 03:46:00,77.9,69.7,29.94,South,185,0.0,0.0,76,0.00,,---,0.00,VWS V14.01,2013-08-08 08:46:00,
2013-08-08 03:47:00,77.9,69.7,29.94,South,185,0.0,0.0,76,0.00,,---,0.00,VWS V14.01,2013-08-08 08:47:00,
2013-08-08 03:48:00,77.9,69.7,29.94,South,185,0.0,0.0,76,0.00,,---,0.00,VWS V14.01,2013-08-08 08:48:00,
2013-08-08 03:49:00,77.9,69.7,29.94,South,185,0.0,0.0,76,0.00,,---,0.00,VWS V14.01,2013-08-08 08:49:00,
2013-08-08 03:50:00,77.9,69.7,29.94,South,185,0.0,0.0,76,0.00,,---,0.00,VWS V14.01,2013-08-08 08:50:00,
2013-08-08 03:51:00,77.9,70.1,29.94,South,185,0.0,0.0,77,0.00,,---,0.00,VWS V14.01,2013-08-08 08:51:00,
2013-08-08 03:52:00,77.9,70.1,29.94,South,185,0.0,0.0,77,0.00,,---,0.00,VWS V14.01,2013-08-08 08:52:00,
2013-08-08 03:53:00,77.7,69.6,29.94,South,185,0.0,0.0,76,0.00,,---,0.00,VWS V14.01,2013-08-08 08:53:00,
2013-08-08 03:54:00,77.7,69.6,29.94,South,185,0.0,0.0,76,0.00,,---,0.00,VWS V14.01,2013-08-08 08:54:00,
2013-08-08 03:55:00,77.5,69.4,29.94,South,185,0.0,0.0,76,0.00,,---,0.00,VWS V14.01,2013-08-08 08:55:00,
2013-08-08 03:56:00,77.5,69.4,29.94,South,185,0.0,0.0,76,0.00,,---,0.00,VWS V14.01,2013-08-08 08:56:00,
2013-08-08 03:57:00,77.5,69.4,29.94,South,185,0.0,0.0,76,0.00,,---,0.00,VWS V14.01,2013-08-08 08:57:00,
2013-08-08 03:58:00,77.5,69.4,29.94,South,185,0.0,0.0,76,0.00,,---,0.00,VWS V14.01,2013-08-08 08:58:00,
2013-08-08 03:59:00,77.5,69.4,29.94,South,185,0.0,0.0,76,0.00,,---,0.00,VWS V14.01,2013-08-08 08:59:00,
2013-08-08 04:00:00,77.5,69.4,29.94,South,185,0.0,0.0,76,0.00,,---,0.00,VWS V14.01,2013-08-08 09:00:00,
2013-08-08 04:01:00,77.4,69.2,29.94,South,185,0.0,0.0,76,0.00,,---,0.00,VWS V14.01,2013-08-08 09:01:00,
2013-08-08 04:02:00,77.4,69.2,29.94,South,185,0.0,0.0,76,0.00,,---,0.00,VWS V14.01,2013-08-08 09:02:00,
2013-08-08 04:03:00,77.4,69.2,29.94,South,185,0.0,0.0,76,0.00,,---,0.00,VWS V14.01,2013-08-08 09:03:00,
2013-08-08 04:04:00,77.4,69.2,29.94,South,185,0.0,0.0,76,0.00,,---,0.00,VWS V14.01,2013-08-08 09:04:00,
2013-08-08 04:05:00,77.4,69.2,29.94,South,185,0.0,0.0,76,0.00,,---,0.00,VWS V14.01,2013-08-08 09:05:00,
2013-08-08 04:06:00,77.4,69.6,29.94,South,185,0.0,0.0,77,0.00,,---,0.00,VWS V14.01,2013-08-08 09:06:00,
2013-08-08 04:07:00,77.4,69.6,29.94,South,185,0.0,0.0,77,0.00,,---,0.00,VWS V14.01,2013-08-08 09:07:00,
2013-08-08 04:08:00,77.4,69.6,29.94,South,185,0.0,0.0,77,0.00,,---,0.00,VWS V14.01,2013-08-08 09:08:00,
2013-08-08 04:09:00,77.2,69.4,29.94,South,185,0.0,0.0,77,0.00,,---,0.00,VWS V14.01,2013-08-08 09:09:00,
2013-08-08 04:10:00,77.2,69.4,29.94,South,185,0.0,0.0,77,0.00,,---,0.00,VWS V14.01,2013-08-08 09:10:00,
2013-08-08 04:11:00,77.2,69.4,29.94,South,185,0.0,0.0,77,0.00,,---,0.00,VWS V14.01,2013-08-08 09:11:00,
2013-08-08 04:12:00,77.2,69.4,29.94,South,185,0.0,0.0,77,0.00,,---,0.00,VWS V14.01,2013-08-08 09:12:00,
2013-08-08 04:13:00,77.2,69.4,29.94,South,185,0.0,0.0,77,0.00,,---,0.00,VWS V14.01,2013-08-08 09:13:00,
2013-08-08 04:14:00,77.2,69.4,29.94,South,185,0.0,0.0,77,0.00,,---,0.00,VWS V14.01,2013-08-08 09:14:00,
2013-08-08 04:15:00,77.2,69.4,29.94,South,185,0.0,0.0,77,0.00,,---,0.00,VWS V14.01,2013-08-08 09:15:00,
2013-08-08 04:16:00,77.2,69.4,29.94,South,185,0.0,0.0,77,0.00,,---,0.00,VWS V14.01,2013-08-08 09:16:00,
2013-08-08 04:17:00,77.0,69.2,29.94,South,185,0.0,0.0,77,0.00,,---,0.00,VWS V14.01,2013-08-08 09:17:00,
2013-08-08 04:18:00,77.0,69.2,29.94,South,185,0.0,0.0,77,0.00,,---,0.00,VWS V14.01,2013-08-08 09:18:00,
2013-08-08 04:19:00,77.0,69.2,29.94,South,185,0.0,0.0,77,0.00,,---,0.00,VWS V14.01,2013-08-08 09:19:00,
2013-08-08 04:20:00,77.0,69.2,29.94,South,185,0.0,0.0,77,0.00,,---,0.00,VWS V14.01,2013-08-08 09:20:00,
2013-08-08 04:21:00,77.0,69.2,29.94,South,185,0.0,0.0,77,0.00,,---,0.00,VWS V14.01,2013-08-08 09:21:00,
2013-08-08 04:22:00,77.2,69.4,29.94,South,185,0.0,0.0,77,0.00,,---,0.00,VWS V14.01,2013-08-08 09:22:00,
2013-08-08 04:23:00,77.2,69.4,29.94,South,185,0.0,0.0,77,0.00,,---,0.00,VWS V14.01,2013-08-08 09:23:00,
2013-08-08 04:24:00,77.2,69.4,29.94,South,185,0.0,0.0,77,0.00,,---,0.00,VWS V14.01,2013-08-08 09:24:00,
2013-08-08 04:25:00,77.0,69.2,29.94,South,185,0.0,0.0,77,0.00,,---,0.00,VWS V14.01,2013-08-08 09:25:00,
2013-08-08 04:26:00,77.0,69.2,29.94,South,185,0.0,0.0,77,0.00,,---,0.00,VWS V14.01,2013-08-08 09:26:00,
2013-08-08 04:27:00,77.0,69.2,29.94,South,185,0.0,0.0,77,0.00,,---,0.00,VWS V14.01,2013-08-08 09:27:00,
2013-08-08 04:28:00,77.4,70.0,29.94,South,185,0.0,0.0,78,0.00,,---,0.00,VWS V14.01,2013-08-08 09:28:00,
2013-08-08 04:29:00,77.4,70.0,29.94,South,185,0.0,0.0,78,0.00,,---,0.00,VWS V14.01,2013-08-08 09:29:00,
2013-08-08 04:30:00,77.4,70.0,29.94,South,185,0.0,0.0,78,0.00,,---,0.00,VWS V14.01,2013-08-08 09:30:00,
2013-08-08 04:31:00,77.4,70.0,29.94,South,185,0.0,0.0,78,0.00,,---,0.00,VWS V14.01,2013-08-08 09:31:00,
2013-08-08 04:32:00,77.2,69.8,29.94,South,185,0.0,0.0,78,0.00,,---,0.00,VWS V14.01,2013-08-08 09:32:00,
2013-08-08 04:33:00,77.2,69.8,29.94,South,185,0.0,0.0,78,0.00,,---,0.00,VWS V14.01,2013-08-08 09:33:00,
2013-08-08 04:34:00,77.2,69.8,29.94,South,185,0.0,0.0,78,0.00,,---,0.00,VWS V14.01,2013-08-08 09:34:00,
2013-08-08 04:35:00,77.2,69.8,29.94,South,185,0.0,0.0,78,0.00,,---,0.00,VWS V14.01,2013-08-08 09:35:00,
2013-08-08 04:36:00,77.2,69.8,29.94,South,185,0.0,0.0,78,0.00,,---,0.00,VWS V14.01,2013-08-08 09:36:00,
2013-08-08 04:37:00,77.2,69.8,29.94,South,185,0.0,0.0,78,0.00,,---,0.00,VWS V14.01,2013-08-08 09:37:00,
2013-08-08 04:38:00,77.2,69.8,29.94,South,185,0.0,0.0,78,0.00,,---,0.00,VWS V14.01,2013-08-08 09:38:00,
2013-08-08 04:39:00,77.0,69.6,29.94,South,185,0.0,0.0,78,0.00,,---,0.00,VWS V14.01,2013-08-08 09:39:00,
2013-08-08 04:40:00,77.0,69.6,29.94,South,185,0.0,0.0,78,0.00,,---,0.00,VWS V14.01,2013-08-08 09:40:00,
2013-08-08 04:41:00,77.0,69.6,29.94,South,185,0.0,0.0,78,0.00,,---,0.00,VWS V14.01,2013-08-08 09:41:00,
2013-08-08 04:42:00,76.8,69.4,29.94,South,185,0.0,0.0,78,0.00,,---,0.00,VWS V14.01,2013-08-08 09:42:00,
2013-08-08 04:43:00,76.8,69.4,29.94,South,185,0.0,0.0,78,0.00,,---,0.00,VWS V14.01,2013-08-08 09:43:00,
2013-08-08 04:44:00,76.8,69.4,29.94,South,185,0.0,0.0,78,0.00,,---,0.00,VWS V14.01,2013-08-08 09:44:00,
2013-08-08 04:45:00,77.0,69.6,29.94,South,185,0.0,0.0,78,0.00,,---,0.00,VWS V14.01,2013-08-08 09:45:00,
2013-08-08 04:46:00,76.8,69.4,29.94,South,185,0.0,0.0,78,0.00,,---,0.00,VWS V14.01,2013-08-08 09:46:00,
2013-08-08 04:47:00,76.8,69.4,29.94,South,185,0.0,0.0,78,0.00,,---,0.00,VWS V14.01,2013-08-08 09:47:00,
2013-08-08 04:48:00,76.8,69.4,29.94,South,185,0.0,0.0,78,0.00,,---,0.00,VWS V14.01,2013-08-08 09:48:00,
2013-08-08 04:49:00,76.8,69.4,29.94,South,185,0.0,0.0,78,0.00,,---,0.00,VWS V14.01,2013-08-08 09:49:00,
2013-08-08 04:50:00,76.6,69.3,29.94,South,185,0.0,0.0,78,0.00,,---,0.00,VWS V14.01,2013-08-08 09:50:00,
2013-08-08 04:51:00,76.6,69.3,29.94,South,185,0.0,0.0,78,0.00,,---,0.00,VWS V14.01,2013-08-08 09:51:00,
2013-08-08 04:52:00,76.6,69.3,29.94,South,185,0.0,0.0,78,0.00,,---,0.00,VWS V14.01,2013-08-08 09:52:00,
2013-08-08 04:53:00,76.6,69.3,29.94,South,185,0.0,0.0,78,0.00,,---,0.00,VWS V14.01,2013-08-08 09:53:00,
2013-08-08 04:54:00,76.6,69.3,29.94,South,185,0.0,0.0,78,0.00,,---,0.00,VWS V14.01,2013-08-08 09:54:00,
2013-08-08 04:55:00,76.6,69.3,29.94,South,185,0.0,0.0,78,0.00,,---,0.00,VWS V14.01,2013-08-08 09:55:00,
2013-08-08 04:56:00,76.6,69.3,29.94,South,185,0.0,0.0,78,0.00,,---,0.00,VWS V14.01,2013-08-08 09:56:00,
2013-08-08 04:57:00,76.6,69.3,29.94,South,185,0.0,0.0,78,0.00,,---,0.00,VWS V14.01,2013-08-08 09:57:00,
2013-08-08 04:58:00,76.5,69.1,29.94,South,185,0.0,0.0,78,0.00,,---,0.00,VWS V14.01,2013-08-08 09:58:00,
2013-08-08 04:59:00,76.5,69.1,29.94,South,185,0.0,0.0,78,0.00,,---,0.00,VWS V14.01,2013-08-08 09:59:00,
2013-08-08 05:00:00,76.5,69.1,29.94,South,185,0.0,0.0,78,0.00,,---,0.00,VWS V14.01,2013-08-08 10:00:00,
2013-08-08 05:01:00,76.5,69.1,29.94,South,185,0.0,0.0,78,0.00,,---,0.00,VWS V14.01,2013-08-08 10:01:00,
2013-08-08 05:02:00,76.5,69.1,29.94,South,185,0.0,0.0,78,0.00,,---,0.00,VWS V14.01,2013-08-08 10:02:00,
2013-08-08 05:03:00,76.5,69.1,29.94,South,185,0.0,0.0,78,0.00,,---,0.00,VWS V14.01,2013-08-08 10:03:00,
2013-08-08 05:04:00,76.5,69.1,29.94,South,185,0.0,0.0,78,0.00,,---,0.00,VWS V14.01,2013-08-08 10:04:00,
2013-08-08 05:05:00,76.5,69.5,29.94,South,185,0.0,0.0,79,0.00,,---,0.00,VWS V14.01,2013-08-08 10:05:00,
2013-08-08 05:06:00,76.5,69.1,29.94,South,185,0.0,0.0,78,0.00,,---,0.00,VWS V14.01,2013-08-08 10:06:00,
2013-08-08 05:07:00,76.5,69.1,29.94,South,185,0.0,0.0,78,0.00,,---,0.00,VWS V14.01,2013-08-08 10:07:00,
2013-08-08 05:08:00,76.5,69.1,29.94,South,185,0.0,0.0,78,0.00,,---,0.00,VWS V14.01,2013-08-08 10:08:00,
2013-08-08 05:09:00,76.3,68.9,29.94,South,185,0.0,0.0,78,0.00,,---,0.00,VWS V14.01,2013-08-08 10:09:00,
2013-08-08 05:10:00,76.3,68.9,29.94,South,185,0.0,0.0,78,0.00,,---,0.00,VWS V14.01,2013-08-08 10:10:00,
2013-08-08 05:11:00,76.3,68.9,29.94,South,185,0.0,0.0,78,0.00,,---,0.00,VWS V14.01,2013-08-08 10:11:00,
2013-08-08 05:12:00,76.3,68.9,29.94,South,185,0.0,0.0,78,0.00,,---,0.00,VWS V14.01,2013-08-08 10:12:00,
2013-08-08 05:13:00,76.1,68.8,29.94,South,185,0.0,0.0,78,0.00,,---,0.00,VWS V14.01,2013-08-08 10:13:00,
2013-08-08 05:14:00,76.1,68.8,29.94,South,185,0.0,0.0,78,0.00,,---,0.00,VWS V14.01,2013-08-08 10:14:00,
2013-08-08 05:15:00,76.3,68.9,29.94,South,185,0.0,0.0,78,0.00,,---,0.00,VWS V14.01,2013-08-08 10:15:00,
2013-08-08 05:16:00,76.3,68.9,29.94,South,185,0.0,0.0,78,0.00,,---,0.00,VWS V14.01,2013-08-08 10:16:00,
2013-08-08 05:17:00,76.1,68.8,29.94,South,185,0.0,0.0,78,0.00,,---,0.00,VWS V14.01,2013-08-08 10:17:00,
2013-08-08 05:18:00,76.1,68.8,29.94,South,185,0.0,0.0,78,0.00,,---,0.00,VWS V14.01,2013-08-08 10:18:00,
2013-08-08 05:19:00,76.1,68.8,29.94,South,185,0.0,0.0,78,0.00,,---,0.00,VWS V14.01,2013-08-08 10:19:00,
2013-08-08 05:20:00,76.1,68.8,29.94,South,185,0.0,0.0,78,0.00,,---,0.00,VWS V14.01,2013-08-08 10:20:00,
2013-08-08 05:21:00,76.1,68.8,29.94,South,185,0.0,0.0,78,0.00,,---,0.00,VWS V14.01,2013-08-08 10:21:00,
2013-08-08 05:22:00,76.1,68.8,29.94,South,185,0.0,0.0,78,0.00,,---,0.00,VWS V14.01,2013-08-08 10:22:00,
2013-08-08 05:23:00,76.1,68.8,29.94,South,185,0.0,0.0,78,0.00,,---,0.00,VWS V14.01,2013-08-08 10:23:00,
2013-08-08 05:24:00,76.1,68.8,29.94,South,185,0.0,0.0,78,0.00,,---,0.00,VWS V14.01,2013-08-08 10:24:00,
2013-08-08 05:25:00,76.1,69.1,29.94,South,185,0.0,0.0,79,0.00,,---,0.00,VWS V14.01,2013-08-08 10:25:00,
2013-08-08 05:26:00,76.1,69.1,29.94,South,185,0.0,0.0,79,0.00,,---,0.00,VWS V14.01,2013-08-08 10:26:00,
2013-08-08 05:27:00,76.1,69.1,29.94,South,185,0.0,0.0,79,0.00,,---,0.00,VWS V14.01,2013-08-08 10:27:00,
2013-08-08 05:28:00,76.1,69.1,29.94,South,185,0.0,0.0,79,0.00,,---,0.00,VWS V14.01,2013-08-08 10:28:00,
2013-08-08 05:29:00,76.1,68.8,29.94,South,185,0.0,0.0,78,0.00,,---,0.00,VWS V14.01,2013-08-08 10:29:00,
2013-08-08 05:30:00,76.1,68.8,29.94,South,185,0.0,0.0,78,0.00,,---,0.00,VWS V14.01,2013-08-08 10:30:00,
2013-08-08 05:31:00,76.1,68.8,29.94,South,185,0.0,0.0,78,0.00,,---,0.00,VWS V14.01,2013-08-08 10:31:00,
2013-08-08 05:32:00,76.1,68.8,29.94,South,185,0.0,0.0,78,0.00,,---,0.00,VWS V14.01,2013-08-08 10:32:00,
2013-08-08 05:33:00,75.9,68.6,29.94,South,185,0.0,0.0,78,0.00,,---,0.00,VWS V14.01,2013-08-08 10:33:00,
2013-08-08 05:34:00,75.9,68.6,29.94,South,185,0.0,0.0,78,0.00,,---,0.00,VWS V14.01,2013-08-08 10:34:00,
2013-08-08 05:35:00,76.1,68.8,29.94,South,185,0.0,0.0,78,0.00,,---,0.00,VWS V14.01,2013-08-08 10:35:00,
2013-08-08 05:36:00,76.1,68.8,29.94,South,185,0.0,0.0,78,0.00,,---,0.00,VWS V14.01,2013-08-08 10:36:00,
2013-08-08 05:37:00,76.1,68.8,29.94,South,185,0.0,0.0,78,0.00,,---,0.00,VWS V14.01,2013-08-08 10:37:00,
2013-08-08 05:38:00,75.9,68.6,29.94,South,185,0.0,0.0,78,0.00,,---,0.00,VWS V14.01,2013-08-08 10:38:00,
2013-08-08 05:39:00,75.9,68.6,29.94,South,185,0.0,0.0,78,0.00,,---,0.00,VWS V14.01,2013-08-08 10:39:00,
2013-08-08 05:40:00,75.9,68.6,29.94,South,185,0.0,0.0,78,0.00,,---,0.00,VWS V14.01,2013-08-08 10:40:00,
2013-08-08 05:41:00,75.9,68.6,29.94,South,185,0.0,0.0,78,0.00,,---,0.00,VWS V14.01,2013-08-08 10:41:00,
2013-08-08 05:42:00,75.9,68.6,29.94,South,185,0.0,0.0,78,0.00,,---,0.00,VWS V14.01,2013-08-08 10:42:00,
2013-08-08 05:43:00,75.9,68.6,29.94,South,185,0.0,0.0,78,0.00,,---,0.00,VWS V14.01,2013-08-08 10:43:00,
2013-08-08 05:44:00,75.9,68.9,29.94,South,185,0.0,0.0,79,0.00,,---,0.00,VWS V14.01,2013-08-08 10:44:00,
2013-08-08 05:45:00,76.1,69.1,29.94,South,185,0.0,0.0,79,0.00,,---,0.00,VWS V14.01,2013-08-08 10:45:00,
2013-08-08 05:46:00,76.1,69.1,29.94,South,185,0.0,0.0,79,0.00,,---,0.35,VWS V14.01,2013-08-08 10:46:00,
2013-08-08 05:47:00,76.1,69.1,29.94,South,185,0.0,0.0,79,0.00,,---,0.00,VWS V14.01,2013-08-08 10:47:00,
2013-08-08 05:48:00,76.1,69.1,29.94,South,185,0.0,0.0,79,0.00,,---,0.00,VWS V14.01,2013-08-08 10:48:00,
2013-08-08 05:49:00,75.9,68.9,29.94,South,185,0.0,0.0,79,0.00,,---,0.00,VWS V14.01,2013-08-08 10:49:00,
2013-08-08 05:50:00,75.9,68.9,29.94,South,185,0.0,0.0,79,0.00,,---,0.00,VWS V14.01,2013-08-08 10:50:00,
2013-08-08 05:51:00,75.9,68.9,29.94,South,185,0.0,0.0,79,0.00,,---,0.00,VWS V14.01,2013-08-08 10:51:00,
2013-08-08 05:52:00,75.9,68.9,29.94,South,185,0.0,0.0,79,0.00,,---,0.00,VWS V14.01,2013-08-08 10:52:00,
2013-08-08 05:53:00,75.9,68.9,29.94,South,185,0.0,0.0,79,0.00,,---,0.00,VWS V14.01,2013-08-08 10:53:00,
2013-08-08 05:54:00,75.9,68.9,29.94,South,185,0.0,0.0,79,0.00,,---,0.00,VWS V14.01,2013-08-08 10:54:00,
2013-08-08 05:55:00,75.9,68.6,29.94,South,185,0.0,0.0,78,0.00,,---,0.00,VWS V14.01,2013-08-08 10:55:00,
2013-08-08 05:56:00,75.7,68.4,29.94,South,185,0.0,0.0,78,0.00,,---,0.35,VWS V14.01,2013-08-08 10:56:00,
2013-08-08 05:57:00,75.7,68.4,29.94,South,185,0.0,0.0,78,0.00,,---,0.00,VWS V14.01,2013-08-08 10:57:00,
2013-08-08 05:58:00,75.7,68.4,29.94,South,185,0.0,0.0,78,0.00,,---,0.00,VWS V14.01,2013-08-08 10:58:00,
2013-08-08 05:59:00,75.6,68.2,29.94,South,185,0.0,0.0,78,0.00,,---,0.00,VWS V14.01,2013-08-08 10:59:00,
2013-08-08 06:00:00,75.6,68.2,29.94,South,185,0.0,0.0,78,0.00,,---,0.00,VWS V14.01,2013-08-08 11:00:00,
2013-08-08 06:01:00,75.6,68.2,29.94,South,185,0.0,0.0,78,0.00,,---,0.00,VWS V14.01,2013-08-08 11:01:00,
2013-08-08 06:02:00,75.7,68.4,29.94,South,185,0.0,0.0,78,0.00,,---,0.00,VWS V14.01,2013-08-08 11:02:00,
2013-08-08 06:03:00,75.7,68.4,29.94,South,185,0.0,0.0,78,0.00,,---,0.00,VWS V14.01,2013-08-08 11:03:00,
2013-08-08 06:04:00,75.7,68.4,29.97,South,185,0.0,0.0,78,0.00,,---,0.00,VWS V14.01,2013-08-08 11:04:00,
2013-08-08 06:05:00,75.7,68.4,29.97,South,185,0.0,0.0,78,0.00,,---,0.00,VWS V14.01,2013-08-08 11:05:00,
2013-08-08 06:06:00,75.6,68.2,29.97,South,185,0.0,0.0,78,0.00,,---,0.00,VWS V14.01,2013-08-08 11:06:00,
2013-08-08 06:07:00,75.6,68.2,29.97,South,185,0.0,0.0,78,0.00,,---,0.00,VWS V14.01,2013-08-08 11:07:00,
2013-08-08 06:08:00,75.6,68.6,29.97,South,185,0.0,0.0,79,0.00,,---,0.00,VWS V14.01,2013-08-08 11:08:00,
2013-08-08 06:09:00,75.6,68.6,29.97,South,185,0.0,0.0,79,0.00,,---,0.00,VWS V14.01,2013-08-08 11:09:00,
2013-08-08 06:10:00,75.6,68.6,29.97,South,185,0.0,0.0,79,0.00,,---,0.00,VWS V14.01,2013-08-08 11:10:00,
2013-08-08 06:11:00,75.6,68.6,29.97,South,185,0.0,0.0,79,0.00,,---,0.00,VWS V14.01,2013-08-08 11:11:00,
2013-08-08 06:12:00,75.7,68.8,29.97,South,185,0.0,0.0,79,0.00,,---,0.00,VWS V14.01,2013-08-08 11:12:00,
2013-08-08 06:13:00,75.7,68.8,29.97,South,185,0.0,0.0,79,0.00,,---,0.00,VWS V14.01,2013-08-08 11:13:00,
2013-08-08 06:14:00,75.7,68.8,29.97,South,185,0.0,0.0,79,0.00,,---,0.00,VWS V14.01,2013-08-08 11:14:00,
2013-08-08 06:15:00,75.6,68.6,29.97,South,185,0.0,0.0,79,0.00,,---,0.00,VWS V14.01,2013-08-08 11:15:00,
2013-08-08 06:16:00,75.6,68.6,29.97,South,185,0.0,0.0,79,0.00,,---,0.00,VWS V14.01,2013-08-08 11:16:00,
2013-08-08 06:17:00,75.6,68.6,29.97,South,185,0.0,0.0,79,0.00,,---,0.00,VWS V14.01,2013-08-08 11:17:00,
2013-08-08 06:18:00,75.6,68.6,29.97,South,185,0.0,0.0,79,0.00,,---,0.00,VWS V14.01,2013-08-08 11:18:00,
2013-08-08 06:19:00,75.6,68.6,29.97,South,185,0.0,0.0,79,0.00,,---,0.00,VWS V14.01,2013-08-08 11:19:00,
2013-08-08 06:20:00,75.6,68.6,29.97,South,185,0.0,0.0,79,0.00,,---,0.00,VWS V14.01,2013-08-08 11:20:00,
2013-08-08 06:21:00,75.7,68.8,29.97,South,185,0.0,0.0,79,0.00,,---,0.00,VWS V14.01,2013-08-08 11:21:00,
2013-08-08 06:22:00,75.7,68.8,29.97,South,185,0.0,0.0,79,0.00,,---,0.00,VWS V14.01,2013-08-08 11:22:00,
2013-08-08 06:23:00,75.6,68.6,29.97,South,185,0.0,0.0,79,0.00,,---,0.00,VWS V14.01,2013-08-08 11:23:00,
2013-08-08 06:24:00,75.6,68.6,29.97,South,185,0.0,0.0,79,0.00,,---,0.00,VWS V14.01,2013-08-08 11:24:00,
2013-08-08 06:25:00,75.6,68.6,29.97,South,185,0.0,0.0,79,0.00,,---,0.00,VWS V14.01,2013-08-08 11:25:00,
2013-08-08 06:26:00,75.6,68.6,29.97,South,185,0.0,0.0,79,0.00,,---,0.00,VWS V14.01,2013-08-08 11:26:00,
2013-08-08 06:27:00,75.6,68.6,29.97,South,185,0.0,0.0,79,0.00,,---,0.00,VWS V14.01,2013-08-08 11:27:00,
2013-08-08 06:28:00,75.6,69.0,29.97,South,185,0.0,0.0,80,0.00,,---,0.00,VWS V14.01,2013-08-08 11:28:00,
2013-08-08 06:29:00,75.7,69.1,29.97,South,185,0.0,0.0,80,0.00,,---,0.00,VWS V14.01,2013-08-08 11:29:00,
2013-08-08 06:30:00,75.7,69.1,29.97,South,185,0.0,0.0,80,0.00,,---,0.00,VWS V14.01,2013-08-08 11:30:00,
2013-08-08 06:31:00,75.7,69.1,29.97,South,185,0.0,0.0,80,0.00,,---,0.00,VWS V14.01,2013-08-08 11:31:00,
2013-08-08 06:32:00,75.6,68.6,29.97,South,185,0.0,0.0,79,0.00,,---,0.00,VWS V14.01,2013-08-08 11:32:00,
2013-08-08 06:33:00,75.6,68.6,29.97,South,185,0.0,0.0,79,0.00,,---,0.00,VWS V14.01,2013-08-08 11:33:00,
2013-08-08 06:34:00,75.6,68.6,29.97,South,185,0.0,0.0,79,0.00,,---,0.00,VWS V14.01,2013-08-08 11:34:00,
2013-08-08 06:35:00,75.6,68.6,29.97,South,185,0.0,0.0,79,0.00,,---,0.00,VWS V14.01,2013-08-08 11:35:00,
2013-08-08 06:36:00,75.6,68.6,29.97,South,185,0.0,0.0,79,0.00,,---,0.00,VWS V14.01,2013-08-08 11:36:00,
2013-08-08 06:37:00,75.6,68.6,29.97,South,185,0.0,0.0,79,0.00,,---,0.00,VWS V14.01,2013-08-08 11:37:00,
2013-08-08 06:38:00,75.6,68.6,29.97,South,185,0.0,0.0,79,0.00,,---,0.00,VWS V14.01,2013-08-08 11:38:00,
2013-08-08 06:39:00,75.6,68.6,29.97,South,185,0.0,0.0,79,0.00,,---,0.00,VWS V14.01,2013-08-08 11:39:00,
2013-08-08 06:40:00,75.6,68.6,29.97,South,185,0.0,0.0,79,0.00,,---,0.00,VWS V14.01,2013-08-08 11:40:00,
2013-08-08 06:41:00,75.6,68.6,29.97,South,185,0.0,0.0,79,0.00,,---,0.00,VWS V14.01,2013-08-08 11:41:00,
2013-08-08 06:42:00,75.6,68.6,29.97,South,185,0.0,0.0,79,0.00,,---,0.00,VWS V14.01,2013-08-08 11:42:00,
2013-08-08 06:43:00,75.6,68.6,29.97,South,185,0.0,0.0,79,0.00,,---,0.00,VWS V14.01,2013-08-08 11:43:00,
2013-08-08 06:44:00,75.4,68.4,29.97,South,185,0.0,0.0,79,0.00,,---,0.00,VWS V14.01,2013-08-08 11:44:00,
2013-08-08 06:45:00,75.4,68.4,29.97,South,185,0.0,0.0,79,0.00,,---,0.00,VWS V14.01,2013-08-08 11:45:00,
2013-08-08 06:46:00,75.4,68.4,29.97,South,185,0.0,0.0,79,0.00,,---,0.00,VWS V14.01,2013-08-08 11:46:00,
2013-08-08 06:47:00,75.4,68.4,29.97,South,185,0.0,0.0,79,0.00,,---,0.00,VWS V14.01,2013-08-08 11:47:00,
2013-08-08 06:48:00,75.4,68.8,29.97,South,185,0.0,0.0,80,0.00,,---,0.00,VWS V14.01,2013-08-08 11:48:00,
2013-08-08 06:49:00,75.6,69.0,29.97,South,185,0.0,0.0,80,0.00,,---,0.00,VWS V14.01,2013-08-08 11:49:00,
2013-08-08 06:50:00,75.6,69.0,29.97,South,185,0.0,0.0,80,0.00,,---,0.00,VWS V14.01,2013-08-08 11:50:00,
2013-08-08 06:51:00,75.6,69.0,29.97,South,185,0.0,0.0,80,0.00,,---,0.00,VWS V14.01,2013-08-08 11:51:00,
2013-08-08 06:52:00,75.6,69.0,29.97,South,185,0.0,0.0,80,0.00,,---,0.00,VWS V14.01,2013-08-08 11:52:00,
2013-08-08 06:53:00,75.6,69.0,29.97,South,185,0.0,0.0,80,0.00,,---,0.00,VWS V14.01,2013-08-08 11:53:00,
2013-08-08 06:54:00,75.6,69.0,29.97,South,185,0.0,0.0,80,0.00,,---,0.00,VWS V14.01,2013-08-08 11:54:00,
2013-08-08 06:55:00,75.6,69.0,29.97,South,185,0.0,0.0,80,0.00,,---,0.00,VWS V14.01,2013-08-08 11:55:00,
2013-08-08 06:56:00,75.6,69.0,29.97,South,185,0.0,0.0,80,0.00,,---,0.00,VWS V14.01,2013-08-08 11:56:00,
2013-08-08 06:57:00,75.6,69.0,29.97,South,185,0.0,0.0,80,0.00,,---,0.00,VWS V14.01,2013-08-08 11:57:00,
2013-08-08 06:58:00,75.6,69.0,29.97,South,185,0.0,0.0,80,0.00,,---,0.00,VWS V14.01,2013-08-08 11:58:00,
2013-08-08 06:59:00,75.7,69.1,29.97,South,185,0.0,0.0,80,0.00,,---,0.00,VWS V14.01,2013-08-08 11:59:00,
2013-08-08 07:00:00,75.7,69.1,29.97,South,185,0.0,0.0,80,0.00,,---,0.00,VWS V14.01,2013-08-08 12:00:00,
2013-08-08 07:01:00,75.7,69.1,29.97,South,185,0.0,0.0,80,0.00,,---,0.00,VWS V14.01,2013-08-08 12:01:00,
2013-08-08 07:02:00,75.6,68.6,29.97,South,185,0.0,0.0,79,0.00,,---,0.00,VWS V14.01,2013-08-08 12:02:00,
2013-08-08 07:03:00,75.6,68.6,29.97,South,185,0.0,0.0,79,0.00,,---,0.00,VWS V14.01,2013-08-08 12:03:00,
2013-08-08 07:04:00,75.6,68.6,30.00,South,185,0.0,0.0,79,0.00,,---,0.00,VWS V14.01,2013-08-08 12:04:00,
2013-08-08 07:05:00,75.6,68.6,30.00,South,185,0.0,0.0,79,0.00,,---,0.00,VWS V14.01,2013-08-08 12:05:00,
2013-08-08 07:06:00,75.6,68.6,30.00,South,185,0.0,0.0,79,0.00,,---,0.35,VWS V14.01,2013-08-08 12:06:00,
2013-08-08 07:07:00,75.6,69.0,30.00,South,185,0.0,0.0,80,0.00,,---,0.00,VWS V14.01,2013-08-08 12:07:00,
2013-08-08 07:08:00,75.7,69.1,30.00,South,185,0.0,0.0,80,0.00,,---,0.00,VWS V14.01,2013-08-08 12:08:00,
2013-08-08 07:09:00,75.7,69.1,30.00,South,185,0.0,0.0,80,0.00,,---,0.00,VWS V14.01,2013-08-08 12:09:00,
2013-08-08 07:10:00,75.7,69.1,30.00,South,185,0.0,0.0,80,0.00,,---,0.00,VWS V14.01,2013-08-08 12:10:00,
2013-08-08 07:11:00,75.7,69.1,30.00,South,185,0.0,0.0,80,0.00,,---,0.00,VWS V14.01,2013-08-08 12:11:00,
2013-08-08 07:12:00,75.7,69.1,30.00,South,185,0.0,0.0,80,0.00,,---,0.00,VWS V14.01,2013-08-08 12:12:00,
2013-08-08 07:13:00,75.7,69.1,30.00,South,185,0.0,0.0,80,0.00,,---,0.00,VWS V14.01,2013-08-08 12:13:00,
2013-08-08 07:14:00,75.7,69.1,30.00,South,185,0.0,0.0,80,0.00,,---,0.00,VWS V14.01,2013-08-08 12:14:00,
2013-08-08 07:15:00,75.7,69.1,30.00,South,185,0.0,0.0,80,0.00,,---,0.00,VWS V14.01,2013-08-08 12:15:00,
2013-08-08 07:16:00,75.7,69.1,30.00,South,185,0.0,0.0,80,0.00,,---,0.00,VWS V14.01,2013-08-08 12:16:00,
2013-08-08 07:17:00,75.7,69.1,30.00,South,185,0.0,0.0,80,0.00,,---,0.00,VWS V14.01,2013-08-08 12:17:00,
2013-08-08 07:18:00,75.7,69.1,30.00,South,185,0.0,0.0,80,0.00,,---,0.00,VWS V14.01,2013-08-08 12:18:00,
2013-08-08 07:19:00,75.9,69.3,30.00,South,185,0.0,0.0,80,0.00,,---,0.00,VWS V14.01,2013-08-08 12:19:00,
2013-08-08 07:20:00,75.9,69.7,30.00,South,185,0.0,0.0,81,0.00,,---,0.00,VWS V14.01,2013-08-08 12:20:00,
2013-08-08 07:21:00,75.9,69.7,30.00,South,185,0.0,0.0,81,0.00,,---,0.00,VWS V14.01,2013-08-08 12:21:00,
2013-08-08 07:22:00,76.1,69.8,30.00,South,185,0.0,0.0,81,0.00,,---,0.00,VWS V14.01,2013-08-08 12:22:00,
2013-08-08 07:23:00,76.1,69.8,30.00,South,185,0.0,0.0,81,0.00,,---,0.00,VWS V14.01,2013-08-08 12:23:00,
2013-08-08 07:24:00,76.1,69.8,30.00,South,185,0.0,0.0,81,0.00,,---,0.00,VWS V14.01,2013-08-08 12:24:00,
2013-08-08 07:25:00,76.1,69.8,30.00,South,185,0.0,0.0,81,0.00,,---,0.00,VWS V14.01,2013-08-08 12:25:00,
2013-08-08 07:26:00,76.1,69.8,30.00,South,185,0.0,0.0,81,0.00,,---,0.00,VWS V14.01,2013-08-08 12:26:00,
2013-08-08 07:27:00,76.1,69.8,30.00,South,185,0.0,0.0,81,0.00,,---,0.00,VWS V14.01,2013-08-08 12:27:00,
2013-08-08 07:28:00,76.3,70.0,30.00,South,185,0.0,0.0,81,0.00,,---,0.00,VWS V14.01,2013-08-08 12:28:00,
2013-08-08 07:29:00,76.3,70.0,30.00,South,185,0.0,0.0,81,0.00,,---,0.00,VWS V14.01,2013-08-08 12:29:00,
2013-08-08 07:30:00,76.5,70.2,30.00,South,185,0.0,0.0,81,0.00,,---,0.00,VWS V14.01,2013-08-08 12:30:00,
2013-08-08 07:31:00,76.5,70.2,30.00,South,185,0.0,0.0,81,0.00,,---,0.00,VWS V14.01,2013-08-08 12:31:00,
2013-08-08 07:32:00,76.5,70.2,30.00,South,185,0.0,0.0,81,0.00,,---,0.00,VWS V14.01,2013-08-08 12:32:00,
2013-08-08 07:33:00,76.5,70.2,30.00,South,185,0.0,0.0,81,0.00,,---,0.00,VWS V14.01,2013-08-08 12:33:00,
2013-08-08 07:34:00,76.5,70.2,30.00,South,185,0.0,0.0,81,0.00,,---,0.00,VWS V14.01,2013-08-08 12:34:00,
2013-08-08 07:35:00,76.5,70.2,30.00,South,185,0.0,0.0,81,0.00,,---,0.00,VWS V14.01,2013-08-08 12:35:00,
2013-08-08 07:36:00,76.5,70.2,30.00,South,185,0.0,0.0,81,0.00,,---,0.00,VWS V14.01,2013-08-08 12:36:00,
2013-08-08 07:37:00,76.6,70.4,30.00,South,185,0.0,0.0,81,0.00,,---,0.00,VWS V14.01,2013-08-08 12:37:00,
2013-08-08 07:38:00,76.6,70.4,30.00,South,185,0.0,0.0,81,0.00,,---,0.00,VWS V14.01,2013-08-08 12:38:00,
2013-08-08 07:39:00,76.6,70.7,30.00,South,185,0.0,0.0,82,0.00,,---,0.00,VWS V14.01,2013-08-08 12:39:00,
2013-08-08 07:40:00,77.0,70.7,30.00,South,185,0.0,0.0,81,0.00,,---,0.00,VWS V14.01,2013-08-08 12:40:00,
2013-08-08 07:41:00,77.0,70.7,30.00,South,185,0.0,0.0,81,0.00,,---,0.00,VWS V14.01,2013-08-08 12:41:00,
2013-08-08 07:42:00,77.0,70.7,30.00,South,185,0.0,0.0,81,0.00,,---,0.00,VWS V14.01,2013-08-08 12:42:00,
2013-08-08 07:43:00,77.0,70.7,30.00,South,185,0.0,0.0,81,0.00,,---,0.00,VWS V14.01,2013-08-08 12:43:00,
2013-08-08 07:44:00,77.0,70.7,30.00,South,185,0.0,0.0,81,0.00,,---,0.00,VWS V14.01,2013-08-08 12:44:00,
2013-08-08 07:45:00,77.2,70.9,30.00,South,185,0.0,0.0,81,0.00,,---,0.35,VWS V14.01,2013-08-08 12:45:00,
2013-08-08 07:46:00,77.2,70.9,30.00,South,185,0.0,0.0,81,0.00,,---,0.00,VWS V14.01,2013-08-08 12:46:00,
2013-08-08 07:47:00,77.2,70.9,30.00,South,185,0.0,0.0,81,0.00,,---,0.00,VWS V14.01,2013-08-08 12:47:00,
2013-08-08 07:48:00,77.2,70.9,30.00,South,185,0.0,0.0,81,0.00,,---,0.00,VWS V14.01,2013-08-08 12:48:00,
2013-08-08 07:49:00,77.2,70.9,30.00,South,185,0.0,0.0,81,0.00,,---,0.00,VWS V14.01,2013-08-08 12:49:00,
2013-08-08 07:50:00,77.4,71.4,30.00,South,185,0.0,0.0,82,0.00,,---,0.00,VWS V14.01,2013-08-08 12:50:00,
2013-08-08 07:51:00,77.4,71.4,30.00,South,185,0.0,0.0,82,0.00,,---,0.00,VWS V14.01,2013-08-08 12:51:00,
2013-08-08 07:52:00,77.4,71.4,30.00,South,185,0.0,0.0,82,0.00,,---,0.00,VWS V14.01,2013-08-08 12:52:00,
2013-08-08 07:53:00,77.5,71.6,30.00,South,185,0.0,0.0,82,0.00,,---,0.00,VWS V14.01,2013-08-08 12:53:00,
2013-08-08 07:54:00,77.5,71.6,30.00,South,185,0.0,0.0,82,0.00,,---,0.00,VWS V14.01,2013-08-08 12:54:00,
2013-08-08 07:55:00,77.7,71.8,30.00,South,185,0.0,0.0,82,0.00,,---,0.00,VWS V14.01,2013-08-08 12:55:00,
2013-08-08 07:56:00,77.7,71.8,30.00,South,185,0.0,0.0,82,0.00,,---,0.00,VWS V14.01,2013-08-08 12:56:00,
2013-08-08 07:57:00,77.7,71.8,30.00,South,185,0.0,0.0,82,0.00,,---,0.00,VWS V14.01,2013-08-08 12:57:00,
2013-08-08 07:58:00,77.9,72.0,30.00,South,185,0.0,0.0,82,0.00,,---,0.00,VWS V14.01,2013-08-08 12:58:00,
2013-08-08 07:59:00,77.9,72.0,30.00,South,185,0.0,0.0,82,0.00,,---,0.00,VWS V14.01,2013-08-08 12:59:00,
2013-08-08 08:00:00,77.9,72.0,30.00,South,185,0.0,0.0,82,0.00,,---,0.00,VWS V14.01,2013-08-08 13:00:00,
2013-08-08 08:01:00,77.9,72.0,30.00,South,185,0.0,0.0,82,0.00,,---,0.00,VWS V14.01,2013-08-08 13:01:00,
2013-08-08 08:02:00,78.1,72.1,30.00,South,185,0.0,0.0,82,0.00,,---,0.00,VWS V14.01,2013-08-08 13:02:00,
2013-08-08 08:03:00,78.3,72.3,30.00,South,185,0.0,0.0,82,0.00,,---,0.00,VWS V14.01,2013-08-08 13:03:00,
2013-08-08 08:04:00,78.3,72.3,30.00,South,185,0.0,0.0,82,0.00,,---,0.00,VWS V14.01,2013-08-08 13:04:00,
2013-08-08 08:05:00,78.4,72.5,30.00,South,185,0.0,0.0,82,0.00,,---,0.00,VWS V14.01,2013-08-08 13:05:00,
2013-08-08 08:06:00,78.4,72.5,30.00,South,185,0.0,0.0,82,0.00,,---,0.00,VWS V14.01,2013-08-08 13:06:00,
2013-08-08 08:07:00,78.4,72.5,30.00,South,185,0.0,0.0,82,0.00,,---,0.00,VWS V14.01,2013-08-08 13:07:00,
2013-08-08 08:08:00,78.4,72.5,30.00,South,185,0.0,0.0,82,0.00,,---,0.00,VWS V14.01,2013-08-08 13:08:00,
2013-08-08 08:09:00,78.6,72.7,30.00,South,185,0.0,0.0,82,0.00,,---,0.00,VWS V14.01,2013-08-08 13:09:00,
2013-08-08 08:10:00,78.6,72.7,30.00,South,185,0.0,0.0,82,0.00,,---,0.35,VWS V14.01,2013-08-08 13:10:00,
2013-08-08 08:11:00,78.6,72.7,30.00,South,185,0.0,0.0,82,0.00,,---,0.00,VWS V14.01,2013-08-08 13:11:00,
2013-08-08 08:12:00,78.8,72.5,30.00,South,185,0.0,0.0,81,0.00,,---,0.00,VWS V14.01,2013-08-08 13:12:00,
2013-08-08 08:13:00,78.8,72.5,30.00,South,185,0.0,0.0,81,0.00,,---,0.00,VWS V14.01,2013-08-08 13:13:00,
2013-08-08 08:14:00,79.0,72.7,30.00,South,185,0.0,0.0,81,0.00,,---,0.00,VWS V14.01,2013-08-08 13:14:00,
2013-08-08 08:15:00,79.2,72.8,30.00,South,185,0.0,0.0,81,0.00,,---,0.00,VWS V14.01,2013-08-08 13:15:00,
2013-08-08 08:16:00,79.2,72.8,30.00,South,185,0.0,0.0,81,0.00,,---,0.00,VWS V14.01,2013-08-08 13:16:00,
2013-08-08 08:17:00,79.2,72.8,30.00,South,185,0.0,0.0,81,0.00,,---,0.00,VWS V14.01,2013-08-08 13:17:00,
2013-08-08 08:18:00,79.3,73.0,30.00,South,185,0.0,0.0,81,0.00,,---,0.00,VWS V14.01,2013-08-08 13:18:00,
2013-08-08 08:19:00,79.3,73.0,30.00,South,185,0.0,0.0,81,0.00,,---,0.00,VWS V14.01,2013-08-08 13:19:00,
2013-08-08 08:20:00,79.5,73.2,30.00,South,185,0.0,0.0,81,0.00,,---,0.00,VWS V14.01,2013-08-08 13:20:00,
2013-08-08 08:21:00,79.5,73.2,30.00,South,185,0.0,0.0,81,0.00,,---,0.00,VWS V14.01,2013-08-08 13:21:00,
2013-08-08 08:22:00,79.5,73.2,30.00,South,185,0.0,0.0,81,0.00,,---,0.00,VWS V14.01,2013-08-08 13:22:00,
2013-08-08 08:23:00,79.5,73.2,30.00,South,185,0.0,0.0,81,0.00,,---,0.00,VWS V14.01,2013-08-08 13:23:00,
2013-08-08 08:24:00,79.7,73.4,30.00,South,185,0.0,0.0,81,0.00,,---,0.00,VWS V14.01,2013-08-08 13:24:00,
2013-08-08 08:25:00,80.1,73.7,30.00,South,185,0.0,0.0,81,0.00,,---,0.35,VWS V14.01,2013-08-08 13:25:00,
2013-08-08 08:26:00,80.1,73.7,30.00,South,185,0.0,0.0,81,0.00,,---,0.00,VWS V14.01,2013-08-08 13:26:00,
2013-08-08 08:27:00,80.1,73.7,30.00,South,185,0.0,0.0,81,0.00,,---,0.00,VWS V14.01,2013-08-08 13:27:00,
2013-08-08 08:28:00,80.1,73.3,30.00,South,185,0.0,0.0,80,0.00,,---,0.00,VWS V14.01,2013-08-08 13:28:00,
2013-08-08 08:29:00,80.2,73.5,30.00,South,185,0.0,0.0,80,0.00,,---,0.00,VWS V14.01,2013-08-08 13:29:00,
2013-08-08 08:30:00,80.2,73.5,30.00,South,185,0.0,0.0,80,0.00,,---,0.00,VWS V14.01,2013-08-08 13:30:00,
2013-08-08 08:31:00,80.4,73.7,30.00,South,185,0.0,0.0,80,0.00,,---,0.00,VWS V14.01,2013-08-08 13:31:00,
2013-08-08 08:32:00,80.4,73.7,30.00,South,185,0.0,0.0,80,0.00,,---,0.00,VWS V14.01,2013-08-08 13:32:00,
2013-08-08 08:33:00,80.4,73.7,30.00,South,185,0.0,0.0,80,0.00,,---,0.00,VWS V14.01,2013-08-08 13:33:00,
2013-08-08 08:34:00,80.6,73.5,30.00,South,185,0.0,0.0,79,0.00,,---,0.00,VWS V14.01,2013-08-08 13:34:00,
2013-08-08 08:35:00,80.8,73.7,30.00,South,185,0.0,0.0,79,0.00,,---,0.35,VWS V14.01,2013-08-08 13:35:00,
2013-08-08 08:36:00,80.8,73.7,30.00,South,185,0.0,0.0,79,0.00,,---,0.00,VWS V14.01,2013-08-08 13:36:00,
2013-08-08 08:37:00,81.0,73.8,30.00,South,185,0.0,0.0,79,0.00,,---,0.00,VWS V14.01,2013-08-08 13:37:00,
2013-08-08 08:38:00,81.0,73.8,30.00,South,185,0.0,0.0,79,0.00,,---,0.00,VWS V14.01,2013-08-08 13:38:00,
2013-08-08 08:39:00,81.0,73.8,30.00,South,185,0.0,0.0,79,0.00,,---,0.00,VWS V14.01,2013-08-08 13:39:00,
2013-08-08 08:40:00,81.1,73.6,30.00,South,185,0.0,0.0,78,0.00,,---,0.00,VWS V14.01,2013-08-08 13:40:00,
2013-08-08 08:41:00,81.1,73.6,30.00,South,185,0.0,0.0,78,0.00,,---,0.00,VWS V14.01,2013-08-08 13:41:00,
2013-08-08 08:42:00,81.3,73.8,30.00,South,185,0.0,0.0,78,0.00,,---,0.00,VWS V14.01,2013-08-08 13:42:00,
2013-08-08 08:43:00,81.5,74.0,30.00,South,185,0.0,0.0,78,0.00,,---,0.00,VWS V14.01,2013-08-08 13:43:00,
2013-08-08 08:44:00,81.5,74.0,30.00,South,185,0.0,0.0,78,0.00,,---,0.00,VWS V14.01,2013-08-08 13:44:00,
2013-08-08 08:45:00,81.9,73.9,30.00,South,185,0.0,0.0,77,0.00,,---,0.00,VWS V14.01,2013-08-08 13:45:00,
2013-08-08 08:46:00,81.9,73.9,30.00,South,185,0.0,0.0,77,0.00,,---,0.00,VWS V14.01,2013-08-08 13:46:00,
2013-08-08 08:47:00,81.9,73.9,30.00,South,185,0.0,0.0,77,0.00,,---,0.00,VWS V14.01,2013-08-08 13:47:00,
2013-08-08 08:48:00,81.9,73.6,30.00,South,185,0.0,0.0,76,0.00,,---,0.00,VWS V14.01,2013-08-08 13:48:00,
2013-08-08 08:49:00,82.0,73.7,30.00,South,185,0.0,0.0,76,0.00,,---,0.00,VWS V14.01,2013-08-08 13:49:00,
2013-08-08 08:50:00,82.2,73.5,30.00,South,185,0.0,0.0,75,0.00,,---,0.00,VWS V14.01,2013-08-08 13:50:00,
2013-08-08 08:51:00,82.2,73.5,30.00,South,185,0.0,0.0,75,0.00,,---,0.00,VWS V14.01,2013-08-08 13:51:00,
2013-08-08 08:52:00,82.4,73.7,30.00,South,185,0.0,0.0,75,0.00,,---,0.00,VWS V14.01,2013-08-08 13:52:00,
2013-08-08 08:53:00,82.4,73.3,30.00,South,185,0.0,0.0,74,0.00,,---,0.00,VWS V14.01,2013-08-08 13:53:00,
2013-08-08 08:54:00,82.6,73.5,30.00,South,185,0.0,0.0,74,0.00,,---,0.00,VWS V14.01,2013-08-08 13:54:00,
2013-08-08 08:55:00,82.8,73.2,30.00,South,185,0.0,0.0,73,0.00,,---,0.00,VWS V14.01,2013-08-08 13:55:00,
2013-08-08 08:56:00,82.8,73.2,30.00,South,185,0.0,0.0,73,0.00,,---,0.00,VWS V14.01,2013-08-08 13:56:00,
2013-08-08 08:57:00,82.8,73.2,30.00,South,185,0.0,0.0,73,0.00,,---,0.00,VWS V14.01,2013-08-08 13:57:00,
2013-08-08 08:58:00,82.8,72.8,30.00,South,185,0.0,0.0,72,0.00,,---,0.00,VWS V14.01,2013-08-08 13:58:00,
2013-08-08 08:59:00,82.9,73.0,30.00,South,185,0.0,0.0,72,0.00,,---,0.00,VWS V14.01,2013-08-08 13:59:00,
2013-08-08 09:00:00,83.1,72.8,30.00,South,185,0.0,0.0,71,0.00,,---,0.00,VWS V14.01,2013-08-08 14:00:00,
2013-08-08 09:01:00,83.1,72.8,30.00,South,185,0.0,0.0,71,0.00,,---,0.00,VWS V14.01,2013-08-08 14:01:00,
2013-08-08 09:02:00,83.1,72.8,30.00,South,185,0.0,0.0,71,0.00,,---,0.00,VWS V14.01,2013-08-08 14:02:00,
2013-08-08 09:03:00,83.3,72.9,30.00,South,185,0.0,0.0,71,0.00,,---,0.00,VWS V14.01,2013-08-08 14:03:00,
2013-08-08 09:04:00,83.3,72.9,30.00,South,185,0.0,0.0,71,0.00,,---,0.00,VWS V14.01,2013-08-08 14:04:00,
2013-08-08 09:05:00,83.7,72.8,30.00,South,185,0.0,0.0,70,0.00,,---,0.00,VWS V14.01,2013-08-08 14:05:00,
2013-08-08 09:06:00,83.7,72.8,30.00,South,185,0.0,0.0,70,0.00,,---,0.00,VWS V14.01,2013-08-08 14:06:00,
2013-08-08 09:07:00,83.8,73.0,30.00,WSW,244,0.0,0.0,70,0.00,,---,0.00,VWS V14.01,2013-08-08 14:07:00,
2013-08-08 09:08:00,83.8,72.6,30.00,WSW,244,0.0,0.0,69,0.00,,---,0.00,VWS V14.01,2013-08-08 14:08:00,
2013-08-08 09:09:00,84.0,72.8,30.00,WSW,249,0.0,0.0,69,0.00,,---,0.00,VWS V14.01,2013-08-08 14:09:00,
2013-08-08 09:10:00,84.0,72.3,30.00,WSW,249,0.0,0.0,68,0.00,,---,0.00,VWS V14.01,2013-08-08 14:10:00,
2013-08-08 09:11:00,84.0,72.3,30.00,WSW,249,0.0,0.0,68,0.00,,---,0.00,VWS V14.01,2013-08-08 14:11:00,
2013-08-08 09:12:00,84.2,72.1,30.00,WSW,249,0.0,0.0,67,0.00,,---,0.00,VWS V14.01,2013-08-08 14:12:00,
2013-08-08 09:13:00,84.2,72.1,30.00,WSW,253,0.0,0.0,67,0.00,,---,0.00,VWS V14.01,2013-08-08 14:13:00,
2013-08-08 09:14:00,84.2,72.1,30.00,WNW,282,0.0,3.1,67,0.00,,---,0.00,VWS V14.01,2013-08-08 14:14:00,
2013-08-08 09:15:00,84.6,72.4,30.00,WNW,282,0.0,0.0,67,0.00,,---,0.00,VWS V14.01,2013-08-08 14:15:00,
2013-08-08 09:16:00,84.6,72.4,30.00,WNW,282,0.0,0.0,67,0.00,,---,0.00,VWS V14.01,2013-08-08 14:16:00,
2013-08-08 09:17:00,84.6,72.0,30.00,WNW,282,0.0,0.0,66,0.00,,---,0.00,VWS V14.01,2013-08-08 14:17:00,
2013-08-08 09:18:00,84.7,72.1,30.00,WNW,282,0.0,0.0,66,0.00,,---,0.00,VWS V14.01,2013-08-08 14:18:00,
2013-08-08 09:19:00,84.7,72.1,30.00,WNW,282,0.0,0.0,66,0.00,,---,0.00,VWS V14.01,2013-08-08 14:19:00,
2013-08-08 09:20:00,84.7,71.7,30.00,WNW,282,0.0,0.0,65,0.00,,---,0.00,VWS V14.01,2013-08-08 14:20:00,
2013-08-08 09:21:00,84.7,71.7,30.00,WNW,282,0.0,0.0,65,0.00,,---,0.00,VWS V14.01,2013-08-08 14:21:00,
2013-08-08 09:22:00,84.9,71.8,30.00,WNW,282,0.0,0.0,65,0.00,,---,0.00,VWS V14.01,2013-08-08 14:22:00,
2013-08-08 09:23:00,85.1,72.0,30.00,WNW,282,0.0,0.0,65,0.00,,---,0.00,VWS V14.01,2013-08-08 14:23:00,
2013-08-08 09:24:00,85.1,72.0,30.00,WNW,282,0.0,0.0,65,0.00,,---,0.00,VWS V14.01,2013-08-08 14:24:00,
2013-08-08 09:25:00,85.3,71.7,30.00,WNW,282,0.0,0.0,64,0.00,,---,0.00,VWS V14.01,2013-08-08 14:25:00,
2013-08-08 09:26:00,85.3,71.7,30.00,NW,313,0.0,0.0,64,0.00,,---,0.00,VWS V14.01,2013-08-08 14:26:00,
2013-08-08 09:27:00,85.5,71.9,30.00,NW,313,0.0,0.0,64,0.00,,---,0.00,VWS V14.01,2013-08-08 14:27:00,
2013-08-08 09:28:00,85.5,71.4,30.00,NW,313,0.0,0.0,63,0.00,,---,0.00,VWS V14.01,2013-08-08 14:28:00,
2013-08-08 09:29:00,85.6,71.6,30.00,NW,313,0.0,0.0,63,0.00,,---,0.00,VWS V14.01,2013-08-08 14:29:00,
2013-08-08 09:30:00,86.0,71.5,30.00,WNW,283,0.0,0.0,62,0.00,,---,0.00,VWS V14.01,2013-08-08 14:30:00,
2013-08-08 09:31:00,86.0,71.5,30.00,WNW,283,0.0,0.0,62,0.00,,---,0.00,VWS V14.01,2013-08-08 14:31:00,
2013-08-08 09:32:00,86.0,71.5,30.00,WNW,283,0.0,0.0,62,0.00,,---,0.00,VWS V14.01,2013-08-08 14:32:00,
2013-08-08 09:33:00,86.0,71.0,30.00,WNW,283,0.0,0.0,61,0.00,,---,0.00,VWS V14.01,2013-08-08 14:33:00,
2013-08-08 09:34:00,85.8,70.8,30.00,WSW,244,0.0,0.0,61,0.00,,---,0.00,VWS V14.01,2013-08-08 14:34:00,
2013-08-08 09:35:00,85.8,70.8,30.00,West,273,0.0,0.0,61,0.00,,---,0.00,VWS V14.01,2013-08-08 14:35:00,
2013-08-08 09:36:00,85.8,70.8,30.00,West,273,0.0,0.0,61,0.00,,---,0.00,VWS V14.01,2013-08-08 14:36:00,
2013-08-08 09:37:00,86.2,71.2,30.00,West,273,0.0,0.0,61,0.00,,---,0.00,VWS V14.01,2013-08-08 14:37:00,
2013-08-08 09:38:00,86.5,71.5,30.00,West,273,0.0,0.0,61,0.00,,---,0.00,VWS V14.01,2013-08-08 14:38:00,
2013-08-08 09:39:00,86.5,71.0,30.00,West,273,0.0,0.0,60,0.00,,---,0.00,VWS V14.01,2013-08-08 14:39:00,
2013-08-08 09:40:00,86.9,70.9,30.00,West,273,0.0,0.0,59,0.00,,---,0.00,VWS V14.01,2013-08-08 14:40:00,
2013-08-08 09:41:00,86.9,70.9,30.00,West,273,0.0,0.0,59,0.00,,---,0.00,VWS V14.01,2013-08-08 14:41:00,
2013-08-08 09:42:00,86.7,70.7,30.00,West,273,0.0,0.0,59,0.00,,---,0.00,VWS V14.01,2013-08-08 14:42:00,
2013-08-08 09:43:00,86.7,70.7,30.00,West,273,0.0,0.0,59,0.00,,---,0.00,VWS V14.01,2013-08-08 14:43:00,
2013-08-08 09:44:00,86.5,70.0,30.00,West,273,0.0,0.0,58,0.00,,---,0.00,VWS V14.01,2013-08-08 14:44:00,
2013-08-08 09:45:00,87.1,70.0,30.00,West,273,0.0,0.0,57,0.00,,---,0.00,VWS V14.01,2013-08-08 14:45:00,
2013-08-08 09:46:00,87.1,70.0,30.00,West,273,0.0,0.0,57,0.00,,---,0.00,VWS V14.01,2013-08-08 14:46:00,
2013-08-08 09:47:00,87.1,70.0,30.00,West,273,0.0,0.0,57,0.00,,---,0.00,VWS V14.01,2013-08-08 14:47:00,
2013-08-08 09:48:00,87.3,70.2,30.00,West,273,0.0,0.0,57,0.00,,---,0.00,VWS V14.01,2013-08-08 14:48:00,
2013-08-08 09:49:00,87.3,70.2,30.00,West,276,0.0,0.0,57,0.00,,---,0.00,VWS V14.01,2013-08-08 14:49:00,
2013-08-08 09:50:00,87.3,69.7,30.00,West,276,0.0,0.0,56,0.00,,---,0.00,VWS V14.01,2013-08-08 14:50:00,
2013-08-08 09:51:00,87.3,69.7,30.00,West,276,0.0,0.0,56,0.00,,---,0.00,VWS V14.01,2013-08-08 14:51:00,
2013-08-08 09:52:00,87.4,69.3,30.00,West,276,0.0,0.0,55,0.00,,---,0.00,VWS V14.01,2013-08-08 14:52:00,
2013-08-08 09:53:00,87.4,69.3,30.00,West,276,0.0,0.0,55,0.00,,---,0.00,VWS V14.01,2013-08-08 14:53:00,
2013-08-08 09:54:00,87.6,69.5,30.00,West,276,0.0,0.0,55,0.00,,---,0.00,VWS V14.01,2013-08-08 14:54:00,
2013-08-08 09:55:00,88.2,68.9,30.00,West,276,0.0,0.0,53,0.00,,---,0.00,VWS V14.01,2013-08-08 14:55:00,
2013-08-08 09:56:00,88.2,68.9,30.00,West,276,0.0,0.0,53,0.00,,---,0.00,VWS V14.01,2013-08-08 14:56:00,
2013-08-08 09:57:00,88.5,69.2,30.00,West,276,0.0,0.0,53,0.00,,---,0.00,VWS V14.01,2013-08-08 14:57:00,
2013-08-08 09:58:00,88.7,69.4,30.00,West,276,0.0,0.0,53,0.00,,---,0.00,VWS V14.01,2013-08-08 14:58:00,
2013-08-08 09:59:00,88.9,69.0,30.00,West,276,0.0,0.0,52,0.00,,---,0.00,VWS V14.01,2013-08-08 14:59:00,
2013-08-08 10:00:00,89.4,68.9,30.00,West,271,2.7,2.7,51,0.00,,---,0.00,VWS V14.01,2013-08-08 15:00:00,
2013-08-08 10:01:00,89.4,68.9,30.00,West,271,2.7,2.7,51,0.00,,---,0.00,VWS V14.01,2013-08-08 15:01:00,
2013-08-08 10:02:00,90.0,68.2,30.00,NNW,341,0.0,2.7,49,0.00,,---,0.00,VWS V14.01,2013-08-08 15:02:00,
2013-08-08 10:03:00,90.1,68.4,30.00,North,353,0.0,0.0,49,0.00,,---,0.00,VWS V14.01,2013-08-08 15:03:00,
2013-08-08 10:04:00,90.1,68.4,30.00,North,353,0.0,0.0,49,0.00,,---,0.00,VWS V14.01,2013-08-08 15:04:00,
2013-08-08 10:05:00,90.3,68.0,30.00,ENE,69,0.0,0.0,48,0.00,,---,0.00,VWS V14.01,2013-08-08 15:05:00,
2013-08-08 10:06:00,90.3,68.0,30.00,ENE,69,0.0,0.0,48,0.00,,---,0.00,VWS V14.01,2013-08-08 15:06:00,
2013-08-08 10:07:00,90.1,67.8,30.00,NE,35,0.0,0.0,48,0.00,,---,0.00,VWS V14.01,2013-08-08 15:07:00,
2013-08-08 10:08:00,90.1,67.8,30.00,NNE,28,0.0,0.0,48,0.00,,---,0.00,VWS V14.01,2013-08-08 15:08:00,
2013-08-08 10:09:00,90.0,67.0,30.00,NNE,28,0.0,0.0,47,0.00,,---,0.00,VWS V14.01,2013-08-08 15:09:00,
2013-08-08 10:10:00,90.1,67.2,30.00,NNE,28,0.0,0.0,47,0.00,,---,0.00,VWS V14.01,2013-08-08 15:10:00,
2013-08-08 10:11:00,90.1,67.2,30.00,NNE,28,0.0,0.0,47,0.00,,---,0.00,VWS V14.01,2013-08-08 15:11:00,
2013-08-08 10:12:00,90.3,66.8,30.00,NW,307,0.0,0.0,46,0.00,,---,0.00,VWS V14.01,2013-08-08 15:12:00,
2013-08-08 10:13:00,90.5,66.3,30.00,SSE,152,0.0,0.0,45,0.00,,---,0.00,VWS V14.01,2013-08-08 15:13:00,
2013-08-08 10:14:00,90.7,66.4,30.00,SSE,152,0.0,0.0,45,0.00,,---,0.00,VWS V14.01,2013-08-08 15:14:00,
2013-08-08 10:15:00,90.7,65.1,30.00,SSW,203,4.0,4.0,43,0.00,,---,0.00,VWS V14.01,2013-08-08 15:15:00,
2013-08-08 10:16:00,90.7,65.1,30.00,SSW,201,2.7,4.0,43,0.00,,---,0.00,VWS V14.01,2013-08-08 15:16:00,
2013-08-08 10:17:00,90.3,64.8,30.00,South,170,2.2,3.1,43,0.00,,---,0.00,VWS V14.01,2013-08-08 15:17:00,
2013-08-08 10:18:00,90.5,65.0,30.00,SW,234,3.1,3.1,43,0.00,,---,0.00,VWS V14.01,2013-08-08 15:18:00,
2013-08-08 10:19:00,90.7,65.1,30.00,SSW,207,3.1,3.1,43,0.00,,---,0.00,VWS V14.01,2013-08-08 15:19:00,
2013-08-08 10:20:00,91.0,65.4,30.00,WNW,298,3.1,3.1,43,0.00,,---,0.00,VWS V14.01,2013-08-08 15:20:00,
2013-08-08 10:21:00,91.4,65.1,30.00,WNW,298,0.0,3.1,42,0.00,,---,0.00,VWS V14.01,2013-08-08 15:21:00,
2013-08-08 10:22:00,91.6,65.3,30.00,WNW,298,2.2,2.2,42,0.00,,---,0.00,VWS V14.01,2013-08-08 15:22:00,
2013-08-08 10:23:00,91.8,65.4,30.00,West,264,3.6,3.6,42,0.00,,---,0.00,VWS V14.01,2013-08-08 15:23:00,
2013-08-08 10:24:00,91.8,65.4,30.00,WSW,239,2.7,3.6,42,0.00,,---,0.00,VWS V14.01,2013-08-08 15:24:00,
2013-08-08 10:25:00,92.3,65.2,30.00,South,183,2.7,2.7,41,0.00,,---,0.00,VWS V14.01,2013-08-08 15:25:00,
2013-08-08 10:26:00,92.3,65.2,30.00,South,183,0.0,2.7,41,0.00,,---,0.00,VWS V14.01,2013-08-08 15:26:00,
2013-08-08 10:28:00,92.5,65.4,30.00,South,183,0.0,0.0,41,0.00,,---,0.00,VWS V14.01,2013-08-08 15:28:00,
2013-08-08 10:29:00,92.5,65.4,30.00,South,183,0.0,0.0,41,0.00,,---,0.00,VWS V14.01,2013-08-08 15:29:00,
2013-08-08 10:30:00,92.8,65.0,30.00,ENE,63,0.0,0.0,40,0.00,,---,0.00,VWS V14.01,2013-08-08 15:30:00,
2013-08-08 10:31:00,92.8,65.0,30.00,ENE,63,0.0,0.0,40,0.00,,---,0.00,VWS V14.01,2013-08-08 15:31:00,
2013-08-08 10:32:00,93.2,65.3,30.00,ENE,63,0.0,0.0,40,0.00,,---,0.00,VWS V14.01,2013-08-08 15:32:00,
2013-08-08 10:33:00,93.2,65.3,30.00,ENE,63,0.0,0.0,40,0.00,,---,0.00,VWS V14.01,2013-08-08 15:33:00,
2013-08-08 10:34:00,93.2,64.6,30.00,North,357,0.0,3.1,39,0.00,,---,0.00,VWS V14.01,2013-08-08 15:34:00,
2013-08-08 10:35:00,92.5,63.9,30.00,West,271,3.1,3.1,39,0.00,,---,0.00,VWS V14.01,2013-08-08 15:35:00,
2013-08-08 10:36:00,92.5,63.9,30.00,West,271,3.1,3.1,39,0.00,,---,0.00,VWS V14.01,2013-08-08 15:36:00,
2013-08-08 10:37:00,91.8,63.3,30.00,West,271,2.7,3.1,39,0.00,,---,0.00,VWS V14.01,2013-08-08 15:37:00,
2013-08-08 10:38:00,91.6,63.1,30.00,West,271,0.0,2.7,39,0.00,,---,0.00,VWS V14.01,2013-08-08 15:38:00,
2013-08-08 10:39:00,91.6,63.1,30.00,West,271,0.0,0.0,39,0.00,,---,0.00,VWS V14.01,2013-08-08 15:39:00,
2013-08-08 10:40:00,91.8,64.0,30.00,West,271,0.0,0.0,40,0.00,,---,0.00,VWS V14.01,2013-08-08 15:40:00,
2013-08-08 10:41:00,92.1,64.3,30.00,West,271,0.0,0.0,40,0.00,,---,0.00,VWS V14.01,2013-08-08 15:41:00,
2013-08-08 10:42:00,92.1,63.6,30.00,West,271,0.0,0.0,39,0.00,,---,0.00,VWS V14.01,2013-08-08 15:42:00,
2013-08-08 10:43:00,92.7,64.1,30.00,West,271,0.0,0.0,39,0.00,,---,0.00,VWS V14.01,2013-08-08 15:43:00,
2013-08-08 10:44:00,92.8,64.3,30.00,SSW,205,4.9,4.9,39,0.00,,---,0.00,VWS V14.01,2013-08-08 15:44:00,
2013-08-08 10:45:00,93.2,63.1,30.00,SSW,206,2.2,3.6,37,0.00,,---,0.00,VWS V14.01,2013-08-08 15:45:00,
2013-08-08 10:46:00,93.2,63.1,30.00,SSW,206,0.0,3.6,37,0.00,,---,0.00,VWS V14.01,2013-08-08 15:46:00,
2013-08-08 10:47:00,93.6,63.4,30.00,SSW,206,0.0,0.0,37,0.00,,---,0.00,VWS V14.01,2013-08-08 15:47:00,
2013-08-08 10:48:00,93.7,63.6,30.00,SSW,206,0.0,0.0,37,0.00,,---,0.00,VWS V14.01,2013-08-08 15:48:00,
2013-08-08 10:49:00,94.1,63.9,30.03,SSW,206,3.1,3.1,37,0.00,,---,0.00,VWS V14.01,2013-08-08 15:49:00,
2013-08-08 10:50:00,94.6,63.6,30.03,SW,236,2.7,2.7,36,0.00,,---,0.00,VWS V14.01,2013-08-08 15:50:00,
2013-08-08 10:51:00,94.6,63.6,30.03,SW,236,2.7,2.7,36,0.00,,---,0.00,VWS V14.01,2013-08-08 15:51:00,
2013-08-08 10:52:00,95.0,62.3,30.03,WSW,238,0.0,2.7,34,0.00,,---,0.00,VWS V14.01,2013-08-08 15:52:00,
2013-08-08 10:53:00,94.8,62.9,30.03,WSW,241,0.0,0.0,35,0.00,,---,0.00,VWS V14.01,2013-08-08 15:53:00,
2013-08-08 10:54:00,95.0,62.3,30.03,West,279,0.0,0.0,34,0.00,,---,0.00,VWS V14.01,2013-08-08 15:54:00,
2013-08-08 10:55:00,95.4,62.6,30.03,NW,315,0.0,3.6,34,0.00,,---,0.00,VWS V14.01,2013-08-08 15:55:00,
2013-08-08 10:56:00,95.5,62.7,30.03,NW,315,0.0,3.6,34,0.00,,---,0.00,VWS V14.01,2013-08-08 15:56:00,
2013-08-08 10:57:00,95.7,62.0,30.03,NW,322,0.0,2.7,33,0.00,,---,0.00,VWS V14.01,2013-08-08 15:57:00,
2013-08-08 10:58:00,96.3,62.5,30.03,NW,322,0.0,3.1,33,0.00,,---,0.00,VWS V14.01,2013-08-08 15:58:00,
2013-08-08 10:59:00,96.1,62.3,30.03,West,279,3.6,3.6,33,0.00,,---,0.00,VWS V14.01,2013-08-08 15:59:00,
2013-08-08 11:00:00,95.7,61.2,30.03,West,279,0.0,2.7,32,0.00,,---,0.00,VWS V14.01,2013-08-08 16:00:00,
2013-08-08 11:01:00,95.7,61.2,30.03,West,279,0.0,2.7,32,0.00,,---,0.00,VWS V14.01,2013-08-08 16:01:00,
2013-08-08 11:02:00,95.7,61.2,30.03,West,279,0.0,0.0,32,0.00,,---,0.00,VWS V14.01,2013-08-08 16:02:00,
2013-08-08 11:03:00,95.9,61.3,30.03,West,259,0.0,0.0,32,0.00,,---,0.00,VWS V14.01,2013-08-08 16:03:00,
2013-08-08 11:04:00,95.7,60.3,30.03,SSW,213,2.7,5.4,31,0.00,,---,0.00,VWS V14.01,2013-08-08 16:04:00,
2013-08-08 11:05:00,95.5,60.1,30.03,SSW,196,2.7,3.1,31,0.00,,---,0.00,VWS V14.01,2013-08-08 16:05:00,
2013-08-08 11:06:00,95.5,60.1,30.03,SSW,196,0.0,3.1,31,0.00,,---,0.00,VWS V14.01,2013-08-08 16:06:00,
2013-08-08 11:07:00,95.7,60.3,30.03,WSW,248,2.2,2.7,31,0.00,,---,0.00,VWS V14.01,2013-08-08 16:07:00,
2013-08-08 11:08:00,96.1,60.6,30.03,WSW,241,2.2,2.7,31,0.00,,---,0.00,VWS V14.01,2013-08-08 16:08:00,
2013-08-08 11:09:00,95.9,60.4,30.03,SW,229,3.1,3.6,31,0.00,,---,0.00,VWS V14.01,2013-08-08 16:09:00,
2013-08-08 11:10:00,95.4,59.0,30.03,SW,220,2.2,3.1,30,0.00,,---,0.00,VWS V14.01,2013-08-08 16:10:00,
2013-08-08 11:11:00,95.4,59.0,30.03,SW,220,0.0,3.1,30,0.00,,---,0.00,VWS V14.01,2013-08-08 16:11:00,
2013-08-08 11:12:00,95.7,59.3,30.03,South,185,2.7,3.6,30,0.00,,---,0.00,VWS V14.01,2013-08-08 16:12:00,
2013-08-08 11:13:00,96.3,59.8,30.03,South,185,0.0,2.7,30,0.00,,---,0.00,VWS V14.01,2013-08-08 16:13:00,
2013-08-08 11:14:00,96.4,60.0,30.03,SSE,154,3.1,3.1,30,0.00,,---,0.00,VWS V14.01,2013-08-08 16:14:00,
2013-08-08 11:15:00,97.0,60.4,30.03,SSE,154,0.0,0.0,30,0.00,,---,0.00,VWS V14.01,2013-08-08 16:15:00,
2013-08-08 11:16:00,97.0,60.4,30.03,SSE,154,0.0,0.0,30,0.00,,---,0.00,VWS V14.01,2013-08-08 16:16:00,
2013-08-08 11:17:00,97.3,60.7,30.03,SSE,154,0.0,0.0,30,0.00,,---,0.00,VWS V14.01,2013-08-08 16:17:00,
2013-08-08 11:18:00,97.5,60.0,30.03,SSE,164,0.0,0.0,29,0.00,,---,0.00,VWS V14.01,2013-08-08 16:18:00,
2013-08-08 11:19:00,97.9,60.2,30.03,SSE,164,0.0,0.0,29,0.00,,---,0.00,VWS V14.01,2013-08-08 16:19:00,
2013-08-08 11:20:00,98.6,59.9,30.03,SSE,164,0.0,0.0,28,0.00,,---,0.00,VWS V14.01,2013-08-08 16:20:00,
2013-08-08 11:21:00,98.6,59.9,30.03,SSE,164,0.0,0.0,28,0.00,,---,0.00,VWS V14.01,2013-08-08 16:21:00,
2013-08-08 11:22:00,98.6,59.9,30.03,SSE,164,0.0,0.0,28,0.00,,---,0.00,VWS V14.01,2013-08-08 16:22:00,
2013-08-08 11:23:00,98.8,61.0,30.03,ENE,62,0.0,0.0,29,0.00,,---,0.00,VWS V14.01,2013-08-08 16:23:00,
2013-08-08 11:24:00,99.3,60.5,30.03,SSE,159,0.0,0.0,28,0.00,,---,0.00,VWS V14.01,2013-08-08 16:24:00,
2013-08-08 11:25:00,99.3,60.5,30.03,South,177,0.0,0.0,28,0.00,,---,0.00,VWS V14.01,2013-08-08 16:25:00,
2013-08-08 11:26:00,99.3,60.5,30.03,South,177,0.0,0.0,28,0.00,,---,0.00,VWS V14.01,2013-08-08 16:26:00,
2013-08-08 11:27:00,99.3,60.5,30.03,South,177,0.0,0.0,28,0.00,,---,0.00,VWS V14.01,2013-08-08 16:27:00,
2013-08-08 11:28:00,99.5,60.7,30.03,South,177,0.0,0.0,28,0.00,,---,0.00,VWS V14.01,2013-08-08 16:28:00,
2013-08-08 11:29:00,99.7,60.8,30.03,South,171,0.0,0.0,28,0.00,,---,0.00,VWS V14.01,2013-08-08 16:29:00,
2013-08-08 11:30:00,100.0,61.1,30.03,South,171,0.0,0.0,28,0.00,,---,0.00,VWS V14.01,2013-08-08 16:30:00,
2013-08-08 11:31:00,100.0,61.1,30.03,South,171,0.0,0.0,28,0.00,,---,0.00,VWS V14.01,2013-08-08 16:31:00,
2013-08-08 11:32:00,100.4,60.4,30.03,South,171,0.0,0.0,27,0.00,,---,0.00,VWS V14.01,2013-08-08 16:32:00,
2013-08-08 11:33:00,100.4,60.4,30.03,South,171,0.0,0.0,27,0.00,,---,0.00,VWS V14.01,2013-08-08 16:33:00,
2013-08-08 11:34:00,100.4,60.4,30.03,South,171,0.0,0.0,27,0.00,,---,0.00,VWS V14.01,2013-08-08 16:34:00,
2013-08-08 11:35:00,100.8,60.7,30.03,South,171,0.0,0.0,27,0.00,,---,0.35,VWS V14.01,2013-08-08 16:35:00,
2013-08-08 11:36:00,100.8,60.7,30.03,South,171,0.0,0.0,27,0.00,,---,0.00,VWS V14.01,2013-08-08 16:36:00,
2013-08-08 11:37:00,100.9,60.8,30.03,South,171,0.0,0.0,27,0.00,,---,0.00,VWS V14.01,2013-08-08 16:37:00,
2013-08-08 11:38:00,100.9,60.8,30.03,South,171,0.0,0.0,27,0.00,,---,0.00,VWS V14.01,2013-08-08 16:38:00,
2013-08-08 11:39:00,101.1,61.0,30.03,South,171,0.0,0.0,27,0.00,,---,0.00,VWS V14.01,2013-08-08 16:39:00,
2013-08-08 11:40:00,101.1,59.9,30.03,South,171,0.0,0.0,26,0.00,,---,0.00,VWS V14.01,2013-08-08 16:40:00,
2013-08-08 11:41:00,101.1,59.9,30.03,South,171,0.0,0.0,26,0.00,,---,0.00,VWS V14.01,2013-08-08 16:41:00,
2013-08-08 11:42:00,101.3,60.1,30.03,South,172,0.0,0.0,26,0.00,,---,0.00,VWS V14.01,2013-08-08 16:42:00,
2013-08-08 11:43:00,101.1,59.9,30.03,South,172,0.0,0.0,26,0.00,,---,0.00,VWS V14.01,2013-08-08 16:43:00,
2013-08-08 11:44:00,100.9,59.8,30.03,WSW,250,0.0,0.0,26,0.00,,---,0.00,VWS V14.01,2013-08-08 16:44:00,
2013-08-08 11:45:00,100.8,59.6,30.03,NW,304,0.0,0.0,26,0.00,,---,0.00,VWS V14.01,2013-08-08 16:45:00,
2013-08-08 11:46:00,100.8,59.6,30.03,NW,304,0.0,0.0,26,0.00,,---,0.00,VWS V14.01,2013-08-08 16:46:00,
2013-08-08 11:47:00,100.9,59.8,30.03,NW,304,0.0,0.0,26,0.00,,---,0.00,VWS V14.01,2013-08-08 16:47:00,
2013-08-08 11:48:00,101.3,60.1,30.03,WNW,292,0.0,0.0,26,0.00,,---,0.00,VWS V14.01,2013-08-08 16:48:00,
2013-08-08 11:49:00,101.3,60.1,30.03,WNW,298,4.0,4.0,26,0.00,,---,0.00,VWS V14.01,2013-08-08 16:49:00,
2013-08-08 11:50:00,100.6,59.5,30.03,South,185,2.7,3.6,26,0.00,,---,0.00,VWS V14.01,2013-08-08 16:50:00,
2013-08-08 11:51:00,100.6,59.5,30.03,South,185,3.1,3.6,26,0.00,,---,0.00,VWS V14.01,2013-08-08 16:51:00,
2013-08-08 11:52:00,100.4,59.3,30.03,SSW,200,3.1,3.1,26,0.00,,---,0.00,VWS V14.01,2013-08-08 16:52:00,
2013-08-08 11:53:00,100.2,59.2,30.03,SSW,213,2.2,4.9,26,0.00,,---,0.00,VWS V14.01,2013-08-08 16:53:00,
2013-08-08 11:54:00,100.0,59.0,30.03,WNW,298,0.0,3.1,26,0.00,,---,0.00,VWS V14.01,2013-08-08 16:54:00,
2013-08-08 11:55:00,99.9,58.9,30.03,West,279,4.0,4.0,26,0.00,,---,0.00,VWS V14.01,2013-08-08 16:55:00,
2013-08-08 11:56:00,99.9,58.9,30.03,West,279,4.0,4.0,26,0.00,,---,0.00,VWS V14.01,2013-08-08 16:56:00,
2013-08-08 11:57:00,99.9,58.9,30.03,West,275,3.6,4.0,26,0.00,,---,0.00,VWS V14.01,2013-08-08 16:57:00,
2013-08-08 11:58:00,99.9,58.9,30.03,West,277,0.0,3.6,26,0.00,,---,0.00,VWS V14.01,2013-08-08 16:58:00,
2013-08-08 11:59:00,100.4,59.3,30.03,WSW,252,0.0,0.0,26,0.00,,---,0.00,VWS V14.01,2013-08-08 16:59:00,
2013-08-08 12:00:00,100.8,58.5,30.03,SSE,168,3.1,3.1,25,0.00,,---,0.35,VWS V14.01,2013-08-08 17:00:00,
2013-08-08 12:01:00,100.9,58.7,30.03,SSE,168,3.1,3.1,25,0.00,,---,0.00,VWS V14.01,2013-08-08 17:01:00,
2013-08-08 12:02:00,100.6,58.4,30.03,SSE,160,2.7,5.4,25,0.00,,---,0.00,VWS V14.01,2013-08-08 17:02:00,
2013-08-08 12:03:00,100.6,58.4,30.03,SSE,160,0.0,2.7,25,0.00,,---,0.00,VWS V14.01,2013-08-08 17:03:00,
2013-08-08 12:04:00,100.2,58.1,30.03,South,171,3.1,3.6,25,0.00,,---,0.00,VWS V14.01,2013-08-08 17:04:00,
2013-08-08 12:05:00,100.2,58.1,30.00,WNW,284,0.0,0.0,25,0.00,,---,0.00,VWS V14.01,2013-08-08 17:05:00,
2013-08-08 12:06:00,100.2,58.1,30.00,WNW,284,0.0,0.0,25,0.00,,---,0.00,VWS V14.01,2013-08-08 17:06:00,
2013-08-08 12:07:00,100.9,58.7,30.00,WNW,284,0.0,0.0,25,0.00,,---,0.00,VWS V14.01,2013-08-08 17:07:00,
2013-08-08 12:08:00,101.3,59.0,30.00,WNW,284,0.0,0.0,25,0.00,,---,0.00,VWS V14.01,2013-08-08 17:08:00,
2013-08-08 12:09:00,101.5,59.1,30.00,WNW,284,0.0,0.0,25,0.00,,---,0.00,VWS V14.01,2013-08-08 17:09:00,
2013-08-08 12:10:00,101.8,60.5,30.00,WNW,284,0.0,0.0,26,0.00,,---,0.00,VWS V14.01,2013-08-08 17:10:00,
2013-08-08 12:11:00,101.8,60.5,30.00,West,279,0.0,0.0,26,0.00,,---,0.00,VWS V14.01,2013-08-08 17:11:00,
2013-08-08 12:12:00,101.8,59.4,30.00,SW,230,0.0,0.0,25,0.00,,---,0.00,VWS V14.01,2013-08-08 17:12:00,
2013-08-08 12:13:00,102.0,59.6,30.00,WNW,288,0.0,0.0,25,0.00,,---,0.00,VWS V14.01,2013-08-08 17:13:00,
2013-08-08 12:14:00,101.8,59.4,30.00,WNW,288,0.0,0.0,25,0.00,,---,0.00,VWS V14.01,2013-08-08 17:14:00,
2013-08-08 12:15:00,101.5,59.1,30.00,SW,225,0.0,0.0,25,0.00,,---,0.00,VWS V14.01,2013-08-08 17:15:00,
2013-08-08 12:16:00,101.3,59.0,30.00,SW,225,0.0,0.0,25,0.00,,---,0.00,VWS V14.01,2013-08-08 17:16:00,
2013-08-08 12:17:00,101.1,58.8,30.00,South,173,3.1,3.1,25,0.00,,---,0.00,VWS V14.01,2013-08-08 17:17:00,
2013-08-08 12:18:00,101.5,59.1,30.00,South,170,0.0,3.6,25,0.00,,---,0.00,VWS V14.01,2013-08-08 17:18:00,
2013-08-08 12:19:00,101.7,60.4,30.00,South,170,0.0,0.0,26,0.00,,---,0.00,VWS V14.01,2013-08-08 17:19:00,
2013-08-08 12:20:00,101.5,59.1,30.00,SE,143,5.4,5.4,25,0.00,,---,0.00,VWS V14.01,2013-08-08 17:20:00,
2013-08-08 12:21:00,101.5,59.1,30.00,SSE,168,6.3,6.3,25,0.00,,---,0.00,VWS V14.01,2013-08-08 17:21:00,
2013-08-08 12:22:00,100.6,58.4,30.00,WSW,247,3.1,6.3,25,0.00,,---,0.00,VWS V14.01,2013-08-08 17:22:00,
2013-08-08 12:23:00,100.2,59.2,30.00,SW,224,3.6,3.6,26,0.00,,---,0.00,VWS V14.01,2013-08-08 17:23:00,
2013-08-08 12:24:00,100.4,58.2,30.00,SW,230,2.2,3.6,25,0.00,,---,0.00,VWS V14.01,2013-08-08 17:24:00,
2013-08-08 12:25:00,100.9,58.7,30.00,WNW,284,2.7,2.7,25,0.00,,---,0.00,VWS V14.01,2013-08-08 17:25:00,
2013-08-08 12:26:00,100.9,58.7,30.00,WNW,284,2.7,2.7,25,0.00,,---,0.00,VWS V14.01,2013-08-08 17:26:00,
2013-08-08 12:27:00,101.7,59.3,30.00,WNW,284,0.0,2.7,25,0.00,,---,0.00,VWS V14.01,2013-08-08 17:27:00,
2013-08-08 12:28:00,102.0,59.6,30.00,WNW,284,0.0,0.0,25,0.00,,---,0.00,VWS V14.01,2013-08-08 17:28:00,
2013-08-08 12:29:00,102.4,59.9,30.00,WNW,284,0.0,0.0,25,0.00,,---,0.00,VWS V14.01,2013-08-08 17:29:00,
2013-08-08 12:30:00,102.2,59.7,30.00,WNW,284,0.0,0.0,25,0.00,,---,0.00,VWS V14.01,2013-08-08 17:30:00,
2013-08-08 12:31:00,102.2,59.7,30.00,WNW,284,0.0,0.0,25,0.00,,---,0.00,VWS V14.01,2013-08-08 17:31:00,
2013-08-08 12:32:00,102.0,59.6,30.00,WNW,284,0.0,0.0,25,0.00,,---,0.00,VWS V14.01,2013-08-08 17:32:00,
2013-08-08 12:33:00,101.8,59.4,30.00,WNW,284,0.0,0.0,25,0.00,,---,0.00,VWS V14.01,2013-08-08 17:33:00,
2013-08-08 12:34:00,101.8,59.4,30.00,SW,236,0.0,0.0,25,0.00,,---,0.00,VWS V14.01,2013-08-08 17:34:00,
2013-08-08 12:35:00,101.5,59.1,30.00,SSW,196,2.2,4.0,25,0.00,,---,0.35,VWS V14.01,2013-08-08 17:35:00,
2013-08-08 12:36:00,101.3,59.0,30.00,SSW,196,2.2,4.0,25,0.00,,---,0.00,VWS V14.01,2013-08-08 17:36:00,
2013-08-08 12:37:00,100.9,58.7,30.00,West,273,0.0,3.6,25,0.00,,---,0.00,VWS V14.01,2013-08-08 17:37:00,
2013-08-08 12:38:00,100.9,57.5,30.00,WNW,298,3.1,4.0,24,0.00,,---,0.00,VWS V14.01,2013-08-08 17:38:00,
2013-08-08 12:39:00,100.4,55.9,30.00,WNW,288,0.0,4.0,23,0.00,,---,0.00,VWS V14.01,2013-08-08 17:39:00,
2013-08-08 12:40:00,100.9,58.7,30.00,WNW,294,2.7,3.1,25,0.00,,---,0.00,VWS V14.01,2013-08-08 17:40:00,
2013-08-08 12:41:00,100.9,58.7,30.00,WNW,294,3.1,3.1,25,0.00,,---,0.00,VWS V14.01,2013-08-08 17:41:00,
2013-08-08 12:42:00,101.3,59.0,30.00,WNW,288,2.2,3.1,25,0.00,,---,0.00,VWS V14.01,2013-08-08 17:42:00,
2013-08-08 12:43:00,101.5,59.1,30.00,WNW,288,0.0,2.2,25,0.00,,---,0.00,VWS V14.01,2013-08-08 17:43:00,
2013-08-08 12:44:00,101.5,59.1,30.00,West,276,3.6,4.0,25,0.00,,---,0.00,VWS V14.01,2013-08-08 17:44:00,
2013-08-08 12:45:00,101.8,59.4,30.00,West,281,4.0,4.0,25,0.00,,---,0.00,VWS V14.01,2013-08-08 17:45:00,
2013-08-08 12:46:00,101.8,59.4,30.00,WSW,250,2.7,4.0,25,0.00,,---,0.00,VWS V14.01,2013-08-08 17:46:00,
2013-08-08 12:47:00,100.9,56.4,30.00,SW,229,4.0,4.9,23,0.00,,---,0.00,VWS V14.01,2013-08-08 17:47:00,
2013-08-08 12:48:00,100.6,56.1,30.00,SSW,208,3.1,4.0,23,0.00,,---,0.00,VWS V14.01,2013-08-08 17:48:00,
2013-08-08 12:49:00,100.4,57.1,30.00,SSW,194,0.0,3.1,24,0.00,,---,0.00,VWS V14.01,2013-08-08 17:49:00,
2013-08-08 12:50:00,100.4,57.1,30.00,SSE,161,2.2,3.1,24,0.00,,---,0.00,VWS V14.01,2013-08-08 17:50:00,
2013-08-08 12:51:00,100.4,57.1,30.00,SSE,161,2.2,3.1,24,0.00,,---,0.00,VWS V14.01,2013-08-08 17:51:00,
2013-08-08 12:52:00,100.6,57.2,30.00,South,188,3.1,3.6,24,0.00,,---,0.00,VWS V14.01,2013-08-08 17:52:00,
2013-08-08 12:53:00,100.6,57.2,30.00,South,188,0.0,3.1,24,0.00,,---,0.00,VWS V14.01,2013-08-08 17:53:00,
2013-08-08 12:54:00,101.1,58.8,30.00,South,188,0.0,0.0,25,0.00,,---,0.00,VWS V14.01,2013-08-08 17:54:00,
2013-08-08 12:55:00,101.3,59.0,30.00,SSW,193,2.7,3.1,25,0.00,,---,0.00,VWS V14.01,2013-08-08 17:55:00,
2013-08-08 12:56:00,101.3,59.0,30.00,SSW,198,0.0,3.1,25,0.00,,---,0.00,VWS V14.01,2013-08-08 17:56:00,
2013-08-08 12:57:00,101.5,59.1,30.00,WSW,250,0.0,0.0,25,0.00,,---,0.00,VWS V14.01,2013-08-08 17:57:00,
2013-08-08 12:58:00,101.7,59.3,30.00,SW,217,3.1,4.0,25,0.00,,---,0.00,VWS V14.01,2013-08-08 17:58:00,
2013-08-08 12:59:00,101.5,58.0,30.00,SW,220,2.7,3.1,24,0.00,,---,0.00,VWS V14.01,2013-08-08 17:59:00,
2013-08-08 13:00:00,102.0,59.6,30.00,SW,221,0.0,0.0,25,0.00,,---,0.00,VWS V14.01,2013-08-08 18:00:00,
2013-08-08 13:01:00,102.0,59.6,30.00,SW,221,0.0,0.0,25,0.00,,---,0.00,VWS V14.01,2013-08-08 18:01:00,
2013-08-08 13:02:00,102.0,58.5,30.00,SE,142,0.0,0.0,24,0.00,,---,0.00,VWS V14.01,2013-08-08 18:02:00,
2013-08-08 13:03:00,102.0,57.3,30.00,SW,226,2.7,3.6,23,0.00,,---,0.00,VWS V14.01,2013-08-08 18:03:00,
2013-08-08 13:04:00,101.8,55.9,30.00,WNW,286,2.7,3.6,22,0.00,,---,0.00,VWS V14.01,2013-08-08 18:04:00,
2013-08-08 13:05:00,101.7,54.5,30.00,SW,216,0.0,3.1,21,0.00,,---,0.00,VWS V14.01,2013-08-08 18:05:00,
2013-08-08 13:06:00,101.7,54.5,30.00,SW,216,2.7,3.1,21,0.00,,---,0.00,VWS V14.01,2013-08-08 18:06:00,
2013-08-08 13:07:00,101.7,54.5,30.00,SW,236,2.7,2.7,21,0.00,,---,0.00,VWS V14.01,2013-08-08 18:07:00,
2013-08-08 13:08:00,101.7,55.7,30.00,WSW,242,2.2,3.6,22,0.00,,---,0.00,VWS V14.01,2013-08-08 18:08:00,
2013-08-08 13:09:00,101.7,55.7,30.00,NW,315,3.1,4.0,22,0.00,,---,0.00,VWS V14.01,2013-08-08 18:09:00,
2013-08-08 13:10:00,101.7,55.7,30.00,WNW,293,4.0,4.0,22,0.00,,---,0.00,VWS V14.01,2013-08-08 18:10:00,
2013-08-08 13:11:00,101.7,55.7,30.00,South,191,2.2,4.0,22,0.00,,---,0.00,VWS V14.01,2013-08-08 18:11:00,
2013-08-08 13:12:00,101.7,54.5,30.00,West,281,2.7,2.7,21,0.00,,---,0.00,VWS V14.01,2013-08-08 18:12:00,
2013-08-08 13:13:00,101.7,55.7,30.00,West,262,2.7,2.7,22,0.00,,---,0.00,VWS V14.01,2013-08-08 18:13:00,
2013-08-08 13:14:00,101.5,53.0,30.00,SW,219,3.6,6.3,20,0.00,,---,0.00,VWS V14.01,2013-08-08 18:14:00,
2013-08-08 13:15:00,101.1,52.7,30.00,SSE,165,5.4,5.4,20,0.00,,---,0.00,VWS V14.01,2013-08-08 18:15:00,
2013-08-08 13:16:00,101.1,52.7,30.00,SW,219,5.4,5.4,20,0.00,,---,0.00,VWS V14.01,2013-08-08 18:16:00,
2013-08-08 13:17:00,100.8,52.4,30.00,SW,226,3.1,5.4,20,0.00,,---,0.00,VWS V14.01,2013-08-08 18:17:00,
2013-08-08 13:18:00,100.6,53.6,30.00,SW,221,5.8,5.8,21,0.00,,---,0.00,VWS V14.01,2013-08-08 18:18:00,
2013-08-08 13:19:00,100.4,53.4,30.00,West,269,4.0,5.8,21,0.00,,---,0.00,VWS V14.01,2013-08-08 18:19:00,
2013-08-08 13:20:00,100.8,55.0,30.00,SW,214,2.2,3.1,22,0.00,,---,0.00,VWS V14.01,2013-08-08 18:20:00,
2013-08-08 13:21:00,100.9,55.2,30.00,SSW,198,3.1,3.1,22,0.00,,---,0.00,VWS V14.01,2013-08-08 18:21:00,
2013-08-08 13:22:00,100.6,53.6,30.00,South,188,4.9,8.1,21,0.00,,---,0.00,VWS V14.01,2013-08-08 18:22:00,
2013-08-08 13:23:00,100.0,54.4,30.00,South,181,4.0,4.9,22,0.00,,---,0.00,VWS V14.01,2013-08-08 18:23:00,
2013-08-08 13:24:00,100.2,55.8,30.00,South,190,3.1,4.0,23,0.00,,---,0.00,VWS V14.01,2013-08-08 18:24:00,
2013-08-08 13:25:00,100.4,54.7,30.00,SSE,162,3.1,3.6,22,0.00,,---,0.00,VWS V14.01,2013-08-08 18:25:00,
2013-08-08 13:26:00,100.4,54.7,30.00,South,183,4.0,4.0,22,0.00,,---,0.00,VWS V14.01,2013-08-08 18:26:00,
2013-08-08 13:27:00,100.6,53.6,30.00,South,179,2.7,4.0,21,0.00,,---,0.00,VWS V14.01,2013-08-08 18:27:00,
2013-08-08 13:28:00,100.8,53.7,30.00,SW,225,2.7,3.1,21,0.00,,---,0.00,VWS V14.01,2013-08-08 18:28:00,
2013-08-08 13:29:00,100.2,53.3,30.00,West,273,0.0,6.3,21,0.00,,---,0.00,VWS V14.01,2013-08-08 18:29:00,
2013-08-08 13:30:00,100.8,55.0,30.00,WSW,254,3.1,3.1,22,0.00,,---,0.00,VWS V14.01,2013-08-08 18:30:00,
2013-08-08 13:31:00,100.8,55.0,30.00,SE,146,3.1,3.1,22,0.00,,---,0.00,VWS V14.01,2013-08-08 18:31:00,
2013-08-08 13:32:00,100.9,55.2,30.00,WNW,283,2.7,3.1,22,0.00,,---,0.00,VWS V14.01,2013-08-08 18:32:00,
2013-08-08 13:33:00,100.9,55.2,30.00,WNW,289,2.2,4.0,22,0.00,,---,0.00,VWS V14.01,2013-08-08 18:33:00,
2013-08-08 13:34:00,100.9,53.9,30.00,SSW,209,2.7,2.7,21,0.00,,---,0.00,VWS V14.01,2013-08-08 18:34:00,
2013-08-08 13:35:00,101.1,54.0,29.97,South,172,0.0,2.2,21,0.00,,---,0.35,VWS V14.01,2013-08-08 18:35:00,
2013-08-08 13:36:00,101.3,54.2,29.97,South,173,0.0,2.2,21,0.00,,---,0.00,VWS V14.01,2013-08-08 18:36:00,
2013-08-08 13:37:00,101.3,54.2,29.97,WNW,300,2.2,4.0,21,0.00,,---,0.00,VWS V14.01,2013-08-08 18:37:00,
2013-08-08 13:38:00,101.3,52.8,29.97,WSW,250,3.1,5.4,20,0.00,,---,0.00,VWS V14.01,2013-08-08 18:38:00,
2013-08-08 13:40:00,100.9,52.5,29.97,West,266,2.7,4.0,20,0.00,,---,0.00,VWS V14.01,2013-08-08 18:40:00,
2013-08-08 13:41:00,100.9,52.5,29.97,West,275,3.1,4.0,20,0.00,,---,0.00,VWS V14.01,2013-08-08 18:41:00,
2013-08-08 13:42:00,100.8,52.4,29.97,WNW,299,0.0,3.6,20,0.00,,---,0.00,VWS V14.01,2013-08-08 18:42:00,
2013-08-08 13:43:00,100.6,50.9,29.97,SSW,201,4.0,4.5,19,0.00,,---,0.00,VWS V14.01,2013-08-08 18:43:00,
2013-08-08 13:44:00,100.4,50.7,29.97,West,275,3.1,5.8,19,0.00,,---,0.00,VWS V14.01,2013-08-08 18:44:00,
2013-08-08 13:45:00,100.4,52.1,29.97,SSW,212,2.2,3.6,20,0.00,,---,0.00,VWS V14.01,2013-08-08 18:45:00,
2013-08-08 13:46:00,100.4,52.1,29.97,SSW,212,2.2,3.6,20,0.00,,---,0.00,VWS V14.01,2013-08-08 18:46:00,
2013-08-08 13:47:00,100.4,52.1,29.97,WSW,240,4.0,4.0,20,0.00,,---,0.00,VWS V14.01,2013-08-08 18:47:00,
2013-08-08 13:48:00,100.4,52.1,29.97,West,270,4.9,5.4,20,0.00,,---,0.00,VWS V14.01,2013-08-08 18:48:00,
2013-08-08 13:49:00,100.0,51.8,29.97,SSW,206,2.7,4.9,20,0.00,,---,0.00,VWS V14.01,2013-08-08 18:49:00,
2013-08-08 13:50:00,100.0,51.8,29.97,South,191,0.0,0.0,20,0.00,,---,0.00,VWS V14.01,2013-08-08 18:50:00,
2013-08-08 13:51:00,100.0,51.8,29.97,South,191,0.0,0.0,20,0.00,,---,0.00,VWS V14.01,2013-08-08 18:51:00,
2013-08-08 13:52:00,100.2,52.0,29.97,WSW,240,2.7,2.7,20,0.00,,---,0.00,VWS V14.01,2013-08-08 18:52:00,
2013-08-08 13:53:00,100.0,51.8,29.97,SSE,164,3.1,3.6,20,0.00,,---,0.00,VWS V14.01,2013-08-08 18:53:00,
2013-08-08 13:54:00,100.4,53.4,29.97,WNW,289,0.0,3.1,21,0.00,,---,0.00,VWS V14.01,2013-08-08 18:54:00,
2013-08-08 13:55:00,100.4,52.1,29.97,SW,219,0.0,3.6,20,0.00,,---,0.00,VWS V14.01,2013-08-08 18:55:00,
2013-08-08 13:56:00,100.4,52.1,29.97,WNW,289,3.1,3.6,20,0.00,,---,0.00,VWS V14.01,2013-08-08 18:56:00,
2013-08-08 13:57:00,100.8,53.7,29.97,South,174,5.4,5.4,21,0.00,,---,0.00,VWS V14.01,2013-08-08 18:57:00,
2013-08-08 13:58:00,100.4,50.7,29.97,South,182,4.0,5.4,19,0.00,,---,0.00,VWS V14.01,2013-08-08 18:58:00,
2013-08-08 13:59:00,100.0,51.8,29.97,South,184,4.0,4.0,20,0.00,,---,0.00,VWS V14.01,2013-08-08 18:59:00,
2013-08-08 14:00:00,100.0,51.8,29.97,SSW,212,6.3,6.3,20,0.00,,---,0.00,VWS V14.01,2013-08-08 19:00:00,
2013-08-08 14:01:00,100.0,51.8,29.97,SSE,154,4.0,6.3,20,0.00,,---,0.00,VWS V14.01,2013-08-08 19:01:00,
2013-08-08 14:02:00,99.5,51.4,29.97,South,179,3.1,4.0,20,0.00,,---,0.00,VWS V14.01,2013-08-08 19:02:00,
2013-08-08 14:03:00,99.5,51.4,29.97,NW,322,2.2,3.1,20,0.00,,---,0.00,VWS V14.01,2013-08-08 19:03:00,
2013-08-08 14:04:00,99.5,52.7,29.97,SW,219,5.8,5.8,21,0.00,,---,0.00,VWS V14.01,2013-08-08 19:04:00,
2013-08-08 14:05:00,99.0,50.9,29.97,South,172,4.9,6.3,20,0.00,,---,0.00,VWS V14.01,2013-08-08 19:05:00,
2013-08-08 14:06:00,99.0,50.9,29.97,South,172,4.9,6.3,20,0.00,,---,0.00,VWS V14.01,2013-08-08 19:06:00,
2013-08-08 14:07:00,99.0,52.2,29.97,SSE,153,4.0,5.4,21,0.00,,---,0.00,VWS V14.01,2013-08-08 19:07:00,
2013-08-08 14:08:00,99.0,52.2,29.97,SSE,153,4.0,4.0,21,0.00,,---,0.00,VWS V14.01,2013-08-08 19:08:00,
2013-08-08 14:09:00,99.0,52.2,29.97,SE,143,4.0,4.0,21,0.00,,---,0.00,VWS V14.01,2013-08-08 19:09:00,
2013-08-08 14:10:00,99.0,52.2,29.97,SSE,168,2.7,6.3,21,0.00,,---,0.00,VWS V14.01,2013-08-08 19:10:00,
2013-08-08 14:11:00,98.6,52.0,29.97,SSE,168,2.7,6.3,21,0.00,,---,0.00,VWS V14.01,2013-08-08 19:11:00,
2013-08-08 14:12:00,98.4,51.8,29.97,SSE,165,4.5,5.8,21,0.00,,---,0.00,VWS V14.01,2013-08-08 19:12:00,
2013-08-08 14:13:00,98.4,51.8,29.97,SE,146,5.4,5.4,21,0.00,,---,0.00,VWS V14.01,2013-08-08 19:13:00,
2013-08-08 14:14:00,98.4,53.1,29.97,West,266,4.0,5.4,22,0.00,,---,0.00,VWS V14.01,2013-08-08 19:14:00,
2013-08-08 14:15:00,98.4,53.1,29.97,West,271,2.7,4.0,22,0.00,,---,0.00,VWS V14.01,2013-08-08 19:15:00,
2013-08-08 14:16:00,98.4,53.1,29.97,WNW,291,3.1,4.0,22,0.00,,---,0.00,VWS V14.01,2013-08-08 19:16:00,
2013-08-08 14:17:00,98.4,53.1,29.97,West,262,5.8,5.8,22,0.00,,---,0.00,VWS V14.01,2013-08-08 19:17:00,
2013-08-08 14:18:00,98.2,52.9,29.97,SW,220,4.0,5.8,22,0.00,,---,0.00,VWS V14.01,2013-08-08 19:18:00,
2013-08-08 14:19:00,98.1,52.8,29.97,SSW,203,4.9,4.9,22,0.00,,---,0.00,VWS V14.01,2013-08-08 19:19:00,
2013-08-08 14:20:00,98.2,52.9,29.97,South,173,2.2,2.2,22,0.00,,---,0.00,VWS V14.01,2013-08-08 19:20:00,
2013-08-08 14:21:00,98.2,52.9,29.97,South,173,0.0,2.2,22,0.00,,---,0.00,VWS V14.01,2013-08-08 19:21:00,
2013-08-08 14:22:00,98.4,53.1,29.97,SSW,194,5.8,5.8,22,0.00,,---,0.00,VWS V14.01,2013-08-08 19:22:00,
2013-08-08 14:23:00,98.4,51.8,29.97,SSW,192,5.4,5.8,21,0.00,,---,0.00,VWS V14.01,2013-08-08 19:23:00,
2013-08-08 14:24:00,98.2,51.7,29.97,West,264,3.1,5.4,21,0.00,,---,0.00,VWS V14.01,2013-08-08 19:24:00,
2013-08-08 14:25:00,98.2,51.7,29.97,SSE,156,3.1,3.1,21,0.00,,---,0.00,VWS V14.01,2013-08-08 19:25:00,
2013-08-08 14:26:00,98.2,52.9,29.97,SSE,156,3.1,3.1,22,0.00,,---,0.00,VWS V14.01,2013-08-08 19:26:00,
2013-08-08 14:27:00,98.4,53.1,29.97,SW,223,4.0,6.3,22,0.00,,---,0.00,VWS V14.01,2013-08-08 19:27:00,
2013-08-08 14:28:00,98.2,52.9,29.97,WSW,252,2.7,4.5,22,0.00,,---,0.00,VWS V14.01,2013-08-08 19:28:00,
2013-08-08 14:29:00,98.1,52.8,29.97,SW,228,4.0,4.0,22,0.00,,---,0.00,VWS V14.01,2013-08-08 19:29:00,
2013-08-08 14:30:00,98.2,54.1,29.97,SW,230,4.9,4.9,23,0.00,,---,0.00,VWS V14.01,2013-08-08 19:30:00,
2013-08-08 14:31:00,98.2,54.1,29.97,SW,230,4.9,4.9,23,0.00,,---,0.00,VWS V14.01,2013-08-08 19:31:00,
2013-08-08 14:32:00,98.1,52.8,29.97,SW,227,2.7,5.4,22,0.00,,---,0.00,VWS V14.01,2013-08-08 19:32:00,
2013-08-08 14:33:00,98.1,51.5,29.97,WSW,247,4.0,4.0,21,0.00,,---,0.00,VWS V14.01,2013-08-08 19:33:00,
2013-08-08 14:34:00,98.2,52.9,29.97,WSW,257,0.0,4.0,22,0.00,,---,0.00,VWS V14.01,2013-08-08 19:34:00,
2013-08-08 14:35:00,98.4,51.8,29.97,West,261,4.0,4.0,21,0.00,,---,0.00,VWS V14.01,2013-08-08 19:35:00,
2013-08-08 14:36:00,98.4,51.8,29.97,SSE,159,3.1,4.0,21,0.00,,---,0.00,VWS V14.01,2013-08-08 19:36:00,
2013-08-08 14:37:00,98.4,51.8,29.97,WNW,287,3.1,3.1,21,0.00,,---,0.00,VWS V14.01,2013-08-08 19:37:00,
2013-08-08 14:38:00,98.4,51.8,29.97,WNW,283,4.9,6.3,21,0.00,,---,0.00,VWS V14.01,2013-08-08 19:38:00,
2013-08-08 14:39:00,98.1,51.5,29.97,West,279,4.9,4.9,21,0.00,,---,0.00,VWS V14.01,2013-08-08 19:39:00,
2013-08-08 14:40:00,98.1,51.5,29.97,SSW,210,3.6,3.6,21,0.00,,---,0.00,VWS V14.01,2013-08-08 19:40:00,
2013-08-08 14:41:00,98.1,51.5,29.97,SSW,210,3.6,3.6,21,0.00,,---,0.00,VWS V14.01,2013-08-08 19:41:00,
2013-08-08 14:42:00,97.9,50.0,29.97,SSW,199,2.7,6.3,20,0.00,,---,0.00,VWS V14.01,2013-08-08 19:42:00,
2013-08-08 14:43:00,97.9,51.3,29.97,South,189,2.7,2.7,21,0.00,,---,0.00,VWS V14.01,2013-08-08 19:43:00,
2013-08-08 14:44:00,97.9,51.3,29.97,NW,308,2.7,3.1,21,0.00,,---,0.00,VWS V14.01,2013-08-08 19:44:00,
2013-08-08 14:45:00,98.1,51.5,29.97,WNW,291,4.0,5.4,21,0.00,,---,0.00,VWS V14.01,2013-08-08 19:45:00,
2013-08-08 14:46:00,98.1,51.5,29.97,WNW,291,4.0,5.4,21,0.00,,---,0.00,VWS V14.01,2013-08-08 19:46:00,
2013-08-08 14:47:00,97.7,51.2,29.97,West,271,3.6,4.0,21,0.00,,---,0.00,VWS V14.01,2013-08-08 19:47:00,
2013-08-08 14:48:00,97.5,52.3,29.97,SW,229,3.1,3.6,22,0.00,,---,0.00,VWS V14.01,2013-08-08 19:48:00,
2013-08-08 14:49:00,97.7,52.5,29.97,South,189,4.0,6.3,22,0.00,,---,0.00,VWS V14.01,2013-08-08 19:49:00,
2013-08-08 14:50:00,97.5,52.3,29.97,SSW,209,2.7,4.0,22,0.00,,---,0.00,VWS V14.01,2013-08-08 19:50:00,
2013-08-08 14:51:00,97.5,52.3,29.97,SW,217,3.1,4.0,22,0.00,,---,0.00,VWS V14.01,2013-08-08 19:51:00,
2013-08-08 14:52:00,97.7,53.7,29.97,SW,233,0.0,4.0,23,0.00,,---,0.00,VWS V14.01,2013-08-08 19:52:00,
2013-08-08 14:53:00,97.7,53.7,29.97,WSW,253,0.0,2.7,23,0.00,,---,0.00,VWS V14.01,2013-08-08 19:53:00,
2013-08-08 14:54:00,97.9,56.1,29.97,WNW,294,4.0,4.0,25,0.00,,---,0.00,VWS V14.01,2013-08-08 19:54:00,
2013-08-08 14:55:00,97.9,53.8,29.97,WNW,295,2.7,5.4,23,0.00,,---,0.00,VWS V14.01,2013-08-08 19:55:00,
2013-08-08 14:56:00,97.9,53.8,29.97,WNW,295,2.7,5.4,23,0.00,,---,0.00,VWS V14.01,2013-08-08 19:56:00,
2013-08-08 14:57:00,97.7,53.7,29.97,WSW,237,2.2,3.1,23,0.00,,---,0.00,VWS V14.01,2013-08-08 19:57:00,
2013-08-08 14:58:00,97.9,55.0,29.97,WNW,288,3.6,3.6,24,0.00,,---,0.00,VWS V14.01,2013-08-08 19:58:00,
2013-08-08 14:59:00,97.9,53.8,29.97,WSW,247,3.1,5.4,23,0.00,,---,0.00,VWS V14.01,2013-08-08 19:59:00,
2013-08-08 15:00:00,97.7,54.8,29.97,SW,214,2.7,4.0,24,0.00,,---,0.00,VWS V14.01,2013-08-08 20:00:00,
2013-08-08 15:01:00,97.7,54.8,29.97,SW,214,2.7,4.0,24,0.00,,---,0.00,VWS V14.01,2013-08-08 20:01:00,
2013-08-08 15:02:00,97.9,55.0,29.97,WNW,286,3.6,3.6,24,0.00,,---,0.00,VWS V14.01,2013-08-08 20:02:00,
2013-08-08 15:03:00,98.1,54.0,29.97,ESE,114,2.7,3.6,23,0.00,,---,0.00,VWS V14.01,2013-08-08 20:03:00,
2013-08-08 15:04:00,98.1,54.0,29.97,East,100,0.0,3.6,23,0.00,,---,0.00,VWS V14.01,2013-08-08 20:04:00,
2013-08-08 15:05:00,98.4,54.3,29.97,East,98,3.1,5.4,23,0.00,,---,0.00,VWS V14.01,2013-08-08 20:05:00,
2013-08-08 15:06:00,98.4,54.3,29.97,East,98,3.1,5.4,23,0.00,,---,0.00,VWS V14.01,2013-08-08 20:06:00,
2013-08-08 15:07:00,98.6,54.4,29.97,West,260,3.6,6.3,23,0.00,,---,0.00,VWS V14.01,2013-08-08 20:07:00,
2013-08-08 15:08:00,98.6,54.4,29.97,SSW,213,3.6,5.8,23,0.00,,---,0.00,VWS V14.01,2013-08-08 20:08:00,
2013-08-08 15:09:00,99.0,54.7,29.97,SSW,203,3.6,5.8,23,0.00,,---,0.00,VWS V14.01,2013-08-08 20:09:00,
2013-08-08 15:10:00,99.3,55.0,29.97,West,278,4.0,4.9,23,0.00,,---,0.00,VWS V14.01,2013-08-08 20:10:00,
2013-08-08 15:11:00,99.3,55.0,29.97,West,278,4.0,4.9,23,0.00,,---,0.00,VWS V14.01,2013-08-08 20:11:00,
2013-08-08 15:12:00,99.1,54.9,29.97,WSW,257,3.6,4.0,23,0.00,,---,0.00,VWS V14.01,2013-08-08 20:12:00,
2013-08-08 15:13:00,99.0,57.0,29.97,WNW,294,3.1,5.8,25,0.00,,---,0.00,VWS V14.01,2013-08-08 20:13:00,
2013-08-08 15:14:00,98.6,55.6,29.97,WSW,250,3.1,4.0,24,0.00,,---,0.00,VWS V14.01,2013-08-08 20:14:00,
2013-08-08 15:15:00,98.6,56.7,29.97,WSW,252,3.1,3.1,25,0.00,,---,0.00,VWS V14.01,2013-08-08 20:15:00,
2013-08-08 15:16:00,98.6,55.6,29.97,WNW,289,6.7,6.7,24,0.00,,---,0.00,VWS V14.01,2013-08-08 20:16:00,
2013-08-08 15:17:00,98.6,55.6,29.97,WNW,300,2.2,6.7,24,0.00,,---,0.00,VWS V14.01,2013-08-08 20:17:00,
2013-08-08 15:18:00,98.6,55.6,29.97,WSW,243,3.6,3.6,24,0.00,,---,0.00,VWS V14.01,2013-08-08 20:18:00,
2013-08-08 15:19:00,98.4,55.4,29.97,SW,230,3.1,5.8,24,0.00,,---,0.00,VWS V14.01,2013-08-08 20:19:00,
2013-08-08 15:20:00,98.6,54.4,29.97,WSW,246,2.2,5.4,23,0.00,,---,0.00,VWS V14.01,2013-08-08 20:20:00,
2013-08-08 15:21:00,98.4,54.3,29.97,SSW,198,4.9,4.9,23,0.00,,---,0.00,VWS V14.01,2013-08-08 20:21:00,
2013-08-08 15:22:00,97.9,53.8,29.97,WSW,257,5.8,5.8,23,0.00,,---,0.00,VWS V14.01,2013-08-08 20:22:00,
2013-08-08 15:23:00,97.7,53.7,29.97,SW,223,3.6,5.8,23,0.00,,---,0.00,VWS V14.01,2013-08-08 20:23:00,
2013-08-08 15:24:00,97.9,53.8,29.97,SSE,157,3.6,3.6,23,0.00,,---,0.00,VWS V14.01,2013-08-08 20:24:00,
2013-08-08 15:25:00,98.1,54.0,29.97,SW,234,3.1,3.6,23,0.00,,---,0.00,VWS V14.01,2013-08-08 20:25:00,
2013-08-08 15:26:00,98.4,54.3,29.97,SSE,157,5.8,5.8,23,0.00,,---,0.00,VWS V14.01,2013-08-08 20:26:00,
2013-08-08 15:27:00,98.6,54.4,29.97,SW,217,3.1,5.8,23,0.00,,---,0.00,VWS V14.01,2013-08-08 20:27:00,
2013-08-08 15:28:00,98.6,54.4,29.97,WSW,240,4.0,5.4,23,0.00,,---,0.00,VWS V14.01,2013-08-08 20:28:00,
2013-08-08 15:29:00,98.4,54.3,29.97,SW,233,5.4,5.4,23,0.00,,---,0.00,VWS V14.01,2013-08-08 20:29:00,
2013-08-08 15:30:00,97.7,57.0,29.97,West,273,3.6,5.4,26,0.00,,---,0.00,VWS V14.01,2013-08-08 20:30:00,
2013-08-08 15:31:00,97.7,57.0,29.97,West,273,3.6,5.4,26,0.00,,---,0.00,VWS V14.01,2013-08-08 20:31:00,
2013-08-08 15:32:00,97.5,56.9,29.97,West,269,3.6,4.9,26,0.00,,---,0.00,VWS V14.01,2013-08-08 20:32:00,
2013-08-08 15:33:00,97.5,56.9,29.97,West,274,7.2,7.2,26,0.00,,---,0.00,VWS V14.01,2013-08-08 20:33:00,
2013-08-08 15:34:00,97.5,56.9,29.94,WSW,249,3.6,7.2,26,0.00,,---,0.00,VWS V14.01,2013-08-08 20:34:00,
2013-08-08 15:35:00,97.9,57.2,29.94,WNW,282,2.2,3.6,26,0.00,,---,0.00,VWS V14.01,2013-08-08 20:35:00,
2013-08-08 15:36:00,97.9,57.2,29.94,WNW,282,2.2,3.6,26,0.00,,---,0.00,VWS V14.01,2013-08-08 20:36:00,
2013-08-08 15:37:00,97.9,57.2,29.94,West,281,3.6,4.0,26,0.00,,---,0.00,VWS V14.01,2013-08-08 20:37:00,
2013-08-08 15:38:00,97.9,57.2,29.94,SW,221,3.6,3.6,26,0.00,,---,0.00,VWS V14.01,2013-08-08 20:38:00,
2013-08-08 15:39:00,97.9,57.2,29.94,West,281,2.7,6.3,26,0.00,,---,0.00,VWS V14.01,2013-08-08 20:39:00,
2013-08-08 15:40:00,97.9,57.2,29.94,SW,236,5.4,5.4,26,0.00,,---,0.00,VWS V14.01,2013-08-08 20:40:00,
2013-08-08 15:41:00,97.9,57.2,29.94,SW,236,5.4,5.4,26,0.00,,---,0.00,VWS V14.01,2013-08-08 20:41:00,
2013-08-08 15:42:00,97.7,57.0,29.94,SSW,207,5.4,5.4,26,0.00,,---,0.00,VWS V14.01,2013-08-08 20:42:00,
2013-08-08 15:43:00,97.7,57.0,29.94,West,277,5.8,5.8,26,0.00,,---,0.00,VWS V14.01,2013-08-08 20:43:00,
2013-08-08 15:44:00,97.7,57.0,29.94,West,273,3.6,5.8,26,0.00,,---,0.00,VWS V14.01,2013-08-08 20:44:00,
2013-08-08 15:45:00,97.5,56.9,29.94,SSE,162,3.6,4.9,26,0.00,,---,0.00,VWS V14.01,2013-08-08 20:45:00,
2013-08-08 15:46:00,97.5,56.9,29.94,SSE,162,3.6,4.9,26,0.00,,---,0.00,VWS V14.01,2013-08-08 20:46:00,
2013-08-08 15:47:00,97.5,56.9,29.94,WSW,238,3.1,3.6,26,0.00,,---,0.00,VWS V14.01,2013-08-08 20:47:00,
2013-08-08 15:48:00,97.7,57.0,29.94,West,278,3.6,3.6,26,0.00,,---,0.00,VWS V14.01,2013-08-08 20:48:00,
2013-08-08 15:49:00,97.9,57.2,29.94,West,278,4.0,4.0,26,0.00,,---,0.00,VWS V14.01,2013-08-08 20:49:00,
2013-08-08 15:50:00,97.9,57.2,29.94,West,261,3.6,4.9,26,0.00,,---,0.00,VWS V14.01,2013-08-08 20:50:00,
2013-08-08 15:51:00,97.9,57.2,29.94,West,261,3.6,4.9,26,0.00,,---,0.00,VWS V14.01,2013-08-08 20:51:00,
2013-08-08 15:52:00,97.9,57.2,29.94,West,274,4.0,5.8,26,0.00,,---,0.00,VWS V14.01,2013-08-08 20:52:00,
2013-08-08 15:53:00,97.9,57.2,29.94,West,278,3.1,5.8,26,0.00,,---,0.00,VWS V14.01,2013-08-08 20:53:00,
2013-08-08 15:54:00,97.9,57.2,29.94,WNW,302,2.2,4.9,26,0.00,,---,0.00,VWS V14.01,2013-08-08 20:54:00,
2013-08-08 15:55:00,97.9,57.2,29.94,West,277,4.0,5.4,26,0.00,,---,0.00,VWS V14.01,2013-08-08 20:55:00,
2013-08-08 15:56:00,97.9,57.2,29.94,West,277,2.7,5.4,26,0.00,,---,0.00,VWS V14.01,2013-08-08 20:56:00,
2013-08-08 15:57:00,97.9,57.2,29.94,SSW,211,3.1,3.6,26,0.00,,---,0.00,VWS V14.01,2013-08-08 20:57:00,
2013-08-08 15:58:00,97.9,57.2,29.94,WSW,258,3.1,5.8,26,0.00,,---,0.00,VWS V14.01,2013-08-08 20:58:00,
2013-08-08 15:59:00,97.7,57.0,29.94,West,264,3.6,3.6,26,0.00,,---,0.00,VWS V14.01,2013-08-08 20:59:00,
2013-08-08 16:00:00,97.3,56.8,29.94,NNW,329,3.1,3.1,26,0.00,,---,0.00,VWS V14.01,2013-08-08 21:00:00,
2013-08-08 16:01:00,97.3,56.8,29.94,WSW,245,2.7,5.4,26,0.00,,---,0.00,VWS V14.01,2013-08-08 21:01:00,
2013-08-08 16:02:00,97.3,56.8,29.94,SW,216,6.3,6.3,26,0.00,,---,0.00,VWS V14.01,2013-08-08 21:02:00,
2013-08-08 16:03:00,97.0,56.4,29.94,South,182,2.7,6.3,26,0.00,,---,0.00,VWS V14.01,2013-08-08 21:03:00,
2013-08-08 16:04:00,97.0,56.4,29.94,SSW,195,3.6,7.2,26,0.00,,---,0.00,VWS V14.01,2013-08-08 21:04:00,
2013-08-08 16:05:00,97.2,56.6,29.94,WNW,292,6.3,6.3,26,0.00,,---,0.00,VWS V14.01,2013-08-08 21:05:00,
2013-08-08 16:06:00,97.2,56.6,29.94,WNW,292,6.3,6.3,26,0.00,,---,0.00,VWS V14.01,2013-08-08 21:06:00,
2013-08-08 16:07:00,97.0,56.4,29.94,South,177,5.4,6.3,26,0.00,,---,0.00,VWS V14.01,2013-08-08 21:07:00,
2013-08-08 16:08:00,97.5,56.9,29.94,SSE,151,3.6,5.8,26,0.00,,---,0.00,VWS V14.01,2013-08-08 21:08:00,
2013-08-08 16:09:00,97.5,56.9,29.94,SSE,159,4.9,7.6,26,0.00,,---,0.00,VWS V14.01,2013-08-08 21:09:00,
2013-08-08 16:10:00,97.3,56.8,29.94,WNW,282,3.1,6.3,26,0.00,,---,0.00,VWS V14.01,2013-08-08 21:10:00,
2013-08-08 16:11:00,97.3,56.8,29.94,WNW,282,3.1,6.3,26,0.00,,---,0.00,VWS V14.01,2013-08-08 21:11:00,
2013-08-08 16:12:00,97.2,56.6,29.94,SW,229,3.1,5.4,26,0.00,,---,0.00,VWS V14.01,2013-08-08 21:12:00,
2013-08-08 16:13:00,97.2,56.6,29.94,SW,220,4.9,6.3,26,0.00,,---,0.00,VWS V14.01,2013-08-08 21:13:00,
2013-08-08 16:14:00,97.2,56.6,29.94,West,261,2.7,4.9,26,0.00,,---,0.00,VWS V14.01,2013-08-08 21:14:00,
2013-08-08 16:15:00,97.2,56.6,29.94,NW,307,4.0,4.9,26,0.00,,---,0.00,VWS V14.01,2013-08-08 21:15:00,
2013-08-08 16:16:00,97.0,56.4,29.94,WSW,256,4.9,6.3,26,0.00,,---,0.00,VWS V14.01,2013-08-08 21:16:00,
2013-08-08 16:17:00,97.2,56.6,29.94,WNW,286,3.6,6.3,26,0.00,,---,0.00,VWS V14.01,2013-08-08 21:17:00,
2013-08-08 16:18:00,97.0,56.4,29.94,WNW,291,2.7,4.0,26,0.00,,---,0.00,VWS V14.01,2013-08-08 21:18:00,
2013-08-08 16:19:00,97.2,56.6,29.94,WSW,245,2.7,5.8,26,0.00,,---,0.00,VWS V14.01,2013-08-08 21:19:00,
2013-08-08 16:20:00,97.3,56.8,29.94,West,267,3.1,3.1,26,0.00,,---,0.00,VWS V14.01,2013-08-08 21:20:00,
2013-08-08 16:21:00,97.2,56.6,29.94,WSW,257,3.1,4.9,26,0.00,,---,0.00,VWS V14.01,2013-08-08 21:21:00,
2013-08-08 16:22:00,97.2,56.6,29.94,WSW,243,2.7,4.9,26,0.00,,---,0.00,VWS V14.01,2013-08-08 21:22:00,
2013-08-08 16:23:00,97.0,56.4,29.94,West,263,3.1,4.9,26,0.00,,---,0.00,VWS V14.01,2013-08-08 21:23:00,
2013-08-08 16:24:00,96.8,56.3,29.94,West,279,5.8,5.8,26,0.00,,---,0.00,VWS V14.01,2013-08-08 21:24:00,
2013-08-08 16:25:00,96.6,56.1,29.94,SW,227,2.7,5.8,26,0.00,,---,0.00,VWS V14.01,2013-08-08 21:25:00,
2013-08-08 16:26:00,97.0,56.4,29.94,WSW,254,4.0,5.4,26,0.00,,---,0.00,VWS V14.01,2013-08-08 21:26:00,
2013-08-08 16:27:00,96.8,56.3,29.94,West,262,4.9,5.4,26,0.00,,---,0.00,VWS V14.01,2013-08-08 21:27:00,
2013-08-08 16:28:00,96.6,56.1,29.94,South,183,2.7,5.4,26,0.00,,---,0.00,VWS V14.01,2013-08-08 21:28:00,
2013-08-08 16:29:00,96.8,56.3,29.94,South,191,3.6,6.3,26,0.00,,---,0.00,VWS V14.01,2013-08-08 21:29:00,
2013-08-08 16:30:00,96.6,56.1,29.94,WNW,284,2.7,3.6,26,0.00,,---,0.00,VWS V14.01,2013-08-08 21:30:00,
2013-08-08 16:31:00,96.6,56.1,29.94,SW,214,2.7,2.7,26,0.00,,---,0.00,VWS V14.01,2013-08-08 21:31:00,
2013-08-08 16:32:00,96.6,56.1,29.94,SSW,204,2.7,2.7,26,0.00,,---,0.00,VWS V14.01,2013-08-08 21:32:00,
2013-08-08 16:33:00,96.8,56.3,29.94,West,275,4.9,4.9,26,0.00,,---,0.00,VWS V14.01,2013-08-08 21:33:00,
2013-08-08 16:34:00,96.4,56.0,29.94,West,275,4.0,4.9,26,0.00,,---,0.00,VWS V14.01,2013-08-08 21:34:00,
2013-08-08 16:35:00,96.4,56.0,29.94,West,276,4.0,5.8,26,0.00,,---,0.00,VWS V14.01,2013-08-08 21:35:00,
2013-08-08 16:36:00,96.4,56.0,29.94,West,268,2.7,4.0,26,0.00,,---,0.00,VWS V14.01,2013-08-08 21:36:00,
2013-08-08 16:37:00,96.4,56.0,29.94,SSE,151,4.0,4.5,26,0.00,,---,0.00,VWS V14.01,2013-08-08 21:37:00,
2013-08-08 16:38:00,96.6,55.1,29.94,SSE,163,4.0,7.6,25,0.00,,---,0.00,VWS V14.01,2013-08-08 21:38:00,
2013-08-08 16:39:00,96.8,54.1,29.94,SSE,155,6.3,6.3,24,0.00,,---,0.00,VWS V14.01,2013-08-08 21:39:00,
2013-08-08 16:40:00,96.1,53.5,29.94,SSW,209,4.9,8.1,24,0.00,,---,0.00,VWS V14.01,2013-08-08 21:40:00,
2013-08-08 16:41:00,95.7,54.3,29.94,South,180,2.7,4.9,25,0.00,,---,0.00,VWS V14.01,2013-08-08 21:41:00,
2013-08-08 16:42:00,95.9,54.5,29.94,SW,228,2.2,4.9,25,0.00,,---,0.00,VWS V14.01,2013-08-08 21:42:00,
2013-08-08 16:43:00,96.3,55.8,29.94,WNW,285,2.7,3.1,26,0.00,,---,0.00,VWS V14.01,2013-08-08 21:43:00,
2013-08-08 16:44:00,96.3,54.8,29.94,WNW,291,4.0,5.8,25,0.00,,---,0.00,VWS V14.01,2013-08-08 21:44:00,
2013-08-08 16:45:00,96.3,54.8,29.94,West,274,3.6,4.0,25,0.00,,---,0.00,VWS V14.01,2013-08-08 21:45:00,
2013-08-08 16:46:00,96.1,54.6,29.94,WNW,302,3.1,4.0,25,0.00,,---,0.00,VWS V14.01,2013-08-08 21:46:00,
2013-08-08 16:47:00,96.1,54.6,29.94,WSW,249,3.1,4.0,25,0.00,,---,0.00,VWS V14.01,2013-08-08 21:47:00,
2013-08-08 16:48:00,96.1,53.5,29.94,West,264,2.2,3.6,24,0.00,,---,0.00,VWS V14.01,2013-08-08 21:48:00,
2013-08-08 16:49:00,96.1,54.6,29.94,SSW,200,2.7,3.1,25,0.00,,---,0.00,VWS V14.01,2013-08-08 21:49:00,
2013-08-08 16:50:00,95.9,54.5,29.94,South,187,2.7,4.0,25,0.00,,---,0.00,VWS V14.01,2013-08-08 21:50:00,
2013-08-08 16:51:00,96.6,56.1,29.94,WNW,302,2.7,2.7,26,0.00,,---,0.00,VWS V14.01,2013-08-08 21:51:00,
2013-08-08 16:52:00,96.6,56.1,29.94,South,171,3.1,3.1,26,0.00,,---,0.00,VWS V14.01,2013-08-08 21:52:00,
2013-08-08 16:53:00,96.8,54.1,29.94,SSW,209,6.3,6.3,24,0.00,,---,0.00,VWS V14.01,2013-08-08 21:53:00,
2013-08-08 16:54:00,96.8,54.1,29.94,SSW,203,4.0,6.3,24,0.00,,---,0.00,VWS V14.01,2013-08-08 21:54:00,
2013-08-08 16:55:00,96.4,53.8,29.94,SW,214,3.1,4.9,24,0.00,,---,0.00,VWS V14.01,2013-08-08 21:55:00,
2013-08-08 16:56:00,96.1,54.6,29.94,SSE,167,3.6,3.6,25,0.00,,---,0.00,VWS V14.01,2013-08-08 21:56:00,
2013-08-08 16:57:00,96.1,54.6,29.94,SSE,155,3.6,3.6,25,0.00,,---,0.00,VWS V14.01,2013-08-08 21:57:00,
2013-08-08 16:58:00,95.9,54.5,29.94,West,280,3.1,5.4,25,0.00,,---,0.00,VWS V14.01,2013-08-08 21:58:00,
2013-08-08 16:59:00,95.9,55.5,29.94,SW,235,3.6,4.0,26,0.00,,---,0.00,VWS V14.01,2013-08-08 21:59:00,
2013-08-08 17:00:00,96.1,54.6,29.94,South,191,0.0,3.6,25,0.00,,---,0.00,VWS V14.01,2013-08-08 22:00:00,
2013-08-08 17:01:00,96.3,54.8,29.94,SSW,203,3.1,3.6,25,0.00,,---,0.00,VWS V14.01,2013-08-08 22:01:00,
2013-08-08 17:02:00,96.4,54.9,29.94,SW,223,4.0,4.0,25,0.00,,---,0.00,VWS V14.01,2013-08-08 22:02:00,
2013-08-08 17:03:00,96.3,54.8,29.94,SW,228,6.3,6.3,25,0.00,,---,0.00,VWS V14.01,2013-08-08 22:03:00,
2013-08-08 17:04:00,95.7,53.2,29.94,WSW,243,3.1,6.3,24,0.00,,---,0.00,VWS V14.01,2013-08-08 22:04:00,
2013-08-08 17:05:00,95.7,53.2,29.94,WSW,252,4.0,4.0,24,0.00,,---,0.00,VWS V14.01,2013-08-08 22:05:00,
2013-08-08 17:06:00,95.4,54.0,29.94,West,268,3.6,3.6,25,0.00,,---,0.00,VWS V14.01,2013-08-08 22:06:00,
2013-08-08 17:07:00,95.4,54.0,29.94,SW,234,2.7,3.6,25,0.00,,---,0.00,VWS V14.01,2013-08-08 22:07:00,
2013-08-08 17:08:00,95.4,54.0,29.94,SSE,164,3.6,7.2,25,0.00,,---,0.00,VWS V14.01,2013-08-08 22:08:00,
2013-08-08 17:09:00,95.4,54.0,29.94,West,268,2.7,5.8,25,0.00,,---,0.00,VWS V14.01,2013-08-08 22:09:00,
2013-08-08 17:10:00,95.5,54.2,29.94,South,182,4.0,4.0,25,0.00,,---,0.00,VWS V14.01,2013-08-08 22:10:00,
2013-08-08 17:11:00,95.5,55.2,29.94,SSW,193,4.0,4.9,26,0.00,,---,0.00,VWS V14.01,2013-08-08 22:11:00,
2013-08-08 17:12:00,95.4,54.0,29.94,NW,321,2.2,4.9,25,0.00,,---,0.00,VWS V14.01,2013-08-08 22:12:00,
2013-08-08 17:13:00,95.2,53.8,29.94,West,259,2.7,4.0,25,0.00,,---,0.00,VWS V14.01,2013-08-08 22:13:00,
2013-08-08 17:14:00,95.2,52.7,29.94,West,270,3.6,5.4,24,0.00,,---,0.00,VWS V14.01,2013-08-08 22:14:00,
2013-08-08 17:15:00,95.5,53.0,29.94,SW,216,3.1,4.0,24,0.00,,---,0.00,VWS V14.01,2013-08-08 22:15:00,
2013-08-08 17:16:00,95.5,53.0,29.94,West,279,3.1,4.9,24,0.00,,---,0.00,VWS V14.01,2013-08-08 22:16:00,
2013-08-08 17:17:00,95.4,52.9,29.94,WNW,286,5.4,5.4,24,0.00,,---,0.00,VWS V14.01,2013-08-08 22:17:00,
2013-08-08 17:18:00,95.4,52.9,29.94,WNW,283,3.1,5.4,24,0.00,,---,0.00,VWS V14.01,2013-08-08 22:18:00,
2013-08-08 17:19:00,95.0,53.7,29.94,West,259,2.7,4.9,25,0.00,,---,0.00,VWS V14.01,2013-08-08 22:19:00,
2013-08-08 17:20:00,95.0,53.7,29.94,WSW,238,2.7,3.6,25,0.00,,---,0.00,VWS V14.01,2013-08-08 22:20:00,
2013-08-08 17:21:00,95.4,54.0,29.94,SSW,203,7.6,7.6,25,0.00,,---,0.00,VWS V14.01,2013-08-08 22:21:00,
2013-08-08 17:22:00,95.4,54.0,29.94,SSE,149,5.8,7.6,25,0.00,,---,0.00,VWS V14.01,2013-08-08 22:22:00,
2013-08-08 17:23:00,95.4,52.9,29.94,WSW,255,4.0,5.8,24,0.00,,---,0.00,VWS V14.01,2013-08-08 22:23:00,
2013-08-08 17:24:00,94.8,53.5,29.94,WSW,254,2.7,4.0,25,0.00,,---,0.00,VWS V14.01,2013-08-08 22:24:00,
2013-08-08 17:25:00,94.8,53.5,29.94,West,281,2.7,3.6,25,0.00,,---,0.00,VWS V14.01,2013-08-08 22:25:00,
2013-08-08 17:26:00,94.6,52.3,29.94,West,281,4.0,4.0,24,0.00,,---,0.00,VWS V14.01,2013-08-08 22:26:00,
2013-08-08 17:27:00,94.5,52.1,29.94,WSW,243,0.0,4.0,24,0.00,,---,0.00,VWS V14.01,2013-08-08 22:27:00,
2013-08-08 17:28:00,94.3,52.0,29.94,NW,312,4.0,4.0,24,0.00,,---,0.00,VWS V14.01,2013-08-08 22:28:00,
2013-08-08 17:29:00,94.3,52.0,29.94,South,170,4.0,4.9,24,0.00,,---,0.00,VWS V14.01,2013-08-08 22:29:00,
2013-08-08 17:30:00,94.6,52.3,29.94,West,275,3.6,4.0,24,0.00,,---,0.00,VWS V14.01,2013-08-08 22:30:00,
2013-08-08 17:31:00,94.3,53.1,29.94,West,263,2.7,3.1,25,0.00,,---,0.00,VWS V14.01,2013-08-08 22:31:00,
2013-08-08 17:32:00,94.3,53.1,29.94,South,188,4.0,6.3,25,0.00,,---,0.00,VWS V14.01,2013-08-08 22:32:00,
2013-08-08 17:33:00,94.1,52.9,29.94,WSW,247,2.7,4.0,25,0.00,,---,0.00,VWS V14.01,2013-08-08 22:33:00,
2013-08-08 17:34:00,94.1,54.0,29.94,WSW,245,2.2,4.9,26,0.00,,---,0.00,VWS V14.01,2013-08-08 22:34:00,
2013-08-08 17:35:00,94.3,54.2,29.94,WSW,249,3.6,4.0,26,0.00,,---,0.00,VWS V14.01,2013-08-08 22:35:00,
2013-08-08 17:36:00,94.3,54.2,29.94,SW,226,3.1,3.1,26,0.00,,---,0.00,VWS V14.01,2013-08-08 22:36:00,
2013-08-08 17:37:00,94.3,54.2,29.94,SSW,197,4.0,4.0,26,0.00,,---,0.00,VWS V14.01,2013-08-08 22:37:00,
2013-08-08 17:38:00,94.1,54.0,29.94,SSW,193,3.1,5.4,26,0.00,,---,0.00,VWS V14.01,2013-08-08 22:38:00,
2013-08-08 17:39:00,93.9,53.9,29.94,SW,217,2.7,4.0,26,0.00,,---,0.00,VWS V14.01,2013-08-08 22:39:00,
2013-08-08 17:40:00,93.9,54.9,29.94,SSE,167,2.2,3.1,27,0.00,,---,0.00,VWS V14.01,2013-08-08 22:40:00,
2013-08-08 17:41:00,94.5,55.3,29.94,West,261,4.0,5.4,27,0.00,,---,0.00,VWS V14.01,2013-08-08 22:41:00,
2013-08-08 17:42:00,94.5,55.3,29.94,West,262,3.1,5.4,27,0.00,,---,0.00,VWS V14.01,2013-08-08 22:42:00,
2013-08-08 17:43:00,94.3,55.2,29.94,WNW,292,3.1,3.6,27,0.00,,---,0.00,VWS V14.01,2013-08-08 22:43:00,
2013-08-08 17:44:00,93.9,54.9,29.94,West,259,2.7,3.6,27,0.00,,---,0.00,VWS V14.01,2013-08-08 22:44:00,
2013-08-08 17:45:00,93.7,54.7,29.94,SSE,158,5.4,6.3,27,0.00,,---,0.00,VWS V14.01,2013-08-08 22:45:00,
2013-08-08 17:46:00,93.7,54.7,29.94,SSE,159,2.2,5.8,27,0.00,,---,0.00,VWS V14.01,2013-08-08 22:46:00,
2013-08-08 17:47:00,93.7,54.7,29.94,SSE,159,2.2,5.8,27,0.00,,---,0.00,VWS V14.01,2013-08-08 22:47:00,
2013-08-08 17:48:00,93.7,54.7,29.94,SSE,154,4.0,4.0,27,0.00,,---,0.00,VWS V14.01,2013-08-08 22:48:00,
2013-08-08 17:49:00,94.3,55.2,29.94,WSW,239,3.6,6.3,27,0.00,,---,0.00,VWS V14.01,2013-08-08 22:49:00,
2013-08-08 17:50:00,94.3,55.2,29.94,SSE,163,3.1,4.0,27,0.00,,---,0.00,VWS V14.01,2013-08-08 22:50:00,
2013-08-08 17:51:00,93.9,54.9,29.94,West,273,2.7,2.7,27,0.00,,---,0.00,VWS V14.01,2013-08-08 22:51:00,
2013-08-08 17:52:00,93.7,54.7,29.94,West,273,2.7,2.7,27,0.00,,---,0.00,VWS V14.01,2013-08-08 22:52:00,
2013-08-08 17:53:00,93.7,54.7,29.94,NNW,337,3.6,3.6,27,0.00,,---,0.00,VWS V14.01,2013-08-08 22:53:00,
2013-08-08 17:54:00,93.9,54.9,29.94,SW,221,2.2,3.6,27,0.00,,---,0.00,VWS V14.01,2013-08-08 22:54:00,
2013-08-08 17:55:00,93.9,54.9,29.94,West,275,2.7,3.1,27,0.00,,---,0.00,VWS V14.01,2013-08-08 22:55:00,
2013-08-08 17:56:00,93.6,54.6,29.94,SW,219,3.1,4.0,27,0.00,,---,0.00,VWS V14.01,2013-08-08 22:56:00,
2013-08-08 17:57:00,93.6,54.6,29.94,SW,223,2.2,4.9,27,0.00,,---,0.00,VWS V14.01,2013-08-08 22:57:00,
2013-08-08 17:58:00,93.4,54.4,29.94,SW,223,0.0,2.7,27,0.00,,---,0.00,VWS V14.01,2013-08-08 22:58:00,
2013-08-08 17:59:00,93.4,54.4,29.94,WNW,288,2.7,2.7,27,0.00,,---,0.00,VWS V14.01,2013-08-08 22:59:00,
2013-08-08 18:00:00,93.6,54.6,29.94,WNW,296,3.6,3.6,27,0.00,,---,0.00,VWS V14.01,2013-08-08 23:00:00,
2013-08-08 18:01:00,93.4,54.4,29.94,WNW,298,3.1,4.0,27,0.00,,---,0.00,VWS V14.01,2013-08-08 23:01:00,
2013-08-08 18:02:00,93.4,54.4,29.94,WNW,290,3.1,4.0,27,0.00,,---,0.00,VWS V14.01,2013-08-08 23:02:00,
2013-08-08 18:03:00,93.0,54.1,29.94,West,268,3.1,4.9,27,0.00,,---,0.00,VWS V14.01,2013-08-08 23:03:00,
2013-08-08 18:04:00,93.0,54.1,29.94,WNW,285,2.7,3.6,27,0.00,,---,0.00,VWS V14.01,2013-08-08 23:04:00,
2013-08-08 18:05:00,92.8,54.0,29.94,West,273,2.7,3.6,27,0.00,,---,0.00,VWS V14.01,2013-08-08 23:05:00,
2013-08-08 18:06:00,93.0,54.1,29.94,WSW,253,3.1,4.9,27,0.00,,---,0.00,VWS V14.01,2013-08-08 23:06:00,
2013-08-08 18:07:00,93.0,54.1,29.94,WSW,253,4.9,4.9,27,0.00,,---,0.00,VWS V14.01,2013-08-08 23:07:00,
2013-08-08 18:08:00,93.0,54.1,29.94,West,259,0.0,4.9,27,0.00,,---,0.00,VWS V14.01,2013-08-08 23:08:00,
2013-08-08 18:09:00,92.8,55.0,29.94,WSW,254,3.1,3.1,28,0.00,,---,0.00,VWS V14.01,2013-08-08 23:09:00,
2013-08-08 18:10:00,92.8,55.0,29.94,West,280,3.6,3.6,28,0.00,,---,0.00,VWS V14.01,2013-08-08 23:10:00,
2013-08-08 18:11:00,92.7,54.8,29.94,SSW,210,2.7,4.0,28,0.00,,---,0.00,VWS V14.01,2013-08-08 23:11:00,
2013-08-08 18:12:00,92.7,54.8,29.94,SSW,195,2.2,4.0,28,0.00,,---,0.00,VWS V14.01,2013-08-08 23:12:00,
2013-08-08 18:13:00,92.8,55.0,29.94,West,272,3.1,3.1,28,0.00,,---,0.00,VWS V14.01,2013-08-08 23:13:00,
2013-08-08 18:14:00,92.7,54.8,29.94,SW,232,3.1,3.1,28,0.00,,---,0.00,VWS V14.01,2013-08-08 23:14:00,
2013-08-08 18:15:00,92.5,54.7,29.94,WNW,300,2.7,3.6,28,0.00,,---,0.00,VWS V14.01,2013-08-08 23:15:00,
2013-08-08 18:16:00,92.3,54.5,29.94,West,276,2.7,4.0,28,0.00,,---,0.00,VWS V14.01,2013-08-08 23:16:00,
2013-08-08 18:17:00,92.3,54.5,29.94,WSW,250,2.7,4.0,28,0.00,,---,0.00,VWS V14.01,2013-08-08 23:17:00,
2013-08-08 18:18:00,92.1,54.4,29.94,South,186,3.6,3.6,28,0.00,,---,0.00,VWS V14.01,2013-08-08 23:18:00,
2013-08-08 18:19:00,92.1,54.4,29.94,West,278,5.4,5.4,28,0.00,,---,0.00,VWS V14.01,2013-08-08 23:19:00,
2013-08-08 18:20:00,92.1,54.4,29.94,West,281,3.6,5.4,28,0.00,,---,0.00,VWS V14.01,2013-08-08 23:20:00,
2013-08-08 18:21:00,91.8,55.0,29.94,WSW,257,2.7,4.9,29,0.00,,---,0.00,VWS V14.01,2013-08-08 23:21:00,
2013-08-08 18:22:00,91.8,55.0,29.94,WSW,257,2.7,4.9,29,0.00,,---,0.00,VWS V14.01,2013-08-08 23:22:00,
2013-08-08 18:23:00,91.8,55.0,29.94,WSW,258,3.1,3.6,29,0.00,,---,0.00,VWS V14.01,2013-08-08 23:23:00,
2013-08-08 18:24:00,91.9,55.2,29.94,SW,217,2.2,3.1,29,0.00,,---,0.00,VWS V14.01,2013-08-08 23:24:00,
2013-08-08 18:25:00,91.9,55.2,29.94,South,186,2.7,3.6,29,0.00,,---,0.00,VWS V14.01,2013-08-08 23:25:00,
2013-08-08 18:26:00,92.1,55.3,29.94,SW,224,3.6,3.6,29,0.00,,---,0.00,VWS V14.01,2013-08-08 23:26:00,
2013-08-08 18:27:00,91.9,55.2,29.94,SW,223,2.7,3.6,29,0.00,,---,0.00,VWS V14.01,2013-08-08 23:27:00,
2013-08-08 18:28:00,91.8,55.0,29.94,WSW,237,2.7,3.6,29,0.00,,---,0.00,VWS V14.01,2013-08-08 23:28:00,
2013-08-08 18:29:00,91.8,54.0,29.94,SSW,210,0.0,4.0,28,0.00,,---,0.00,VWS V14.01,2013-08-08 23:29:00,
2013-08-08 18:30:00,91.9,54.2,29.94,WSW,238,3.6,3.6,28,0.00,,---,0.00,VWS V14.01,2013-08-08 23:30:00,
2013-08-08 18:31:00,92.1,54.4,29.94,South,189,2.7,3.6,28,0.00,,---,0.00,VWS V14.01,2013-08-08 23:31:00,
2013-08-08 18:32:00,91.9,54.2,29.94,WSW,238,0.0,3.1,28,0.00,,---,0.00,VWS V14.01,2013-08-08 23:32:00,
2013-08-08 18:33:00,91.8,54.0,29.94,West,272,3.1,3.1,28,0.00,,---,0.00,VWS V14.01,2013-08-08 23:33:00,
2013-08-08 18:34:00,91.8,55.0,29.94,SW,231,2.2,3.1,29,0.00,,---,0.00,VWS V14.01,2013-08-08 23:34:00,
2013-08-08 18:35:00,91.8,55.0,29.94,WNW,283,3.6,3.6,29,0.00,,---,0.00,VWS V14.01,2013-08-08 23:35:00,
2013-08-08 18:36:00,91.6,54.9,29.94,SW,229,3.6,3.6,29,0.00,,---,0.00,VWS V14.01,2013-08-08 23:36:00,
2013-08-08 18:37:00,91.8,55.0,29.94,SW,230,3.1,4.9,29,0.00,,---,0.00,VWS V14.01,2013-08-08 23:37:00,
2013-08-08 18:38:00,91.8,54.0,29.94,NW,304,2.7,2.7,28,0.00,,---,0.00,VWS V14.01,2013-08-08 23:38:00,
2013-08-08 18:39:00,91.6,53.9,29.94,West,267,3.1,3.1,28,0.00,,---,0.00,VWS V14.01,2013-08-08 23:39:00,
2013-08-08 18:40:00,91.4,54.7,29.94,WNW,286,2.7,3.6,29,0.00,,---,0.00,VWS V14.01,2013-08-08 23:40:00,
2013-08-08 18:41:00,91.4,54.7,29.94,West,281,3.1,3.1,29,0.00,,---,0.00,VWS V14.01,2013-08-08 23:41:00,
2013-08-08 18:42:00,91.6,54.9,29.94,SW,235,2.2,2.2,29,0.00,,---,0.00,VWS V14.01,2013-08-08 23:42:00,
2013-08-08 18:43:00,91.6,54.9,29.94,WSW,247,2.7,3.1,29,0.00,,---,0.00,VWS V14.01,2013-08-08 23:43:00,
2013-08-08 18:44:00,91.4,54.7,29.94,West,259,3.6,3.6,29,0.00,,---,0.00,VWS V14.01,2013-08-08 23:44:00,
2013-08-08 18:45:00,91.4,54.7,29.94,WSW,239,2.7,3.6,29,0.00,,---,0.00,VWS V14.01,2013-08-08 23:45:00,
2013-08-08 18:46:00,91.4,54.7,29.94,WNW,288,0.0,2.7,29,0.00,,---,0.00,VWS V14.01,2013-08-08 23:46:00,
2013-08-08 18:47:00,91.4,54.7,29.94,WSW,246,3.1,3.1,29,0.00,,---,0.00,VWS V14.01,2013-08-08 23:47:00,
2013-08-08 18:48:00,91.2,54.5,29.94,SW,228,3.1,3.1,29,0.00,,---,0.00,VWS V14.01,2013-08-08 23:48:00,
2013-08-08 18:49:00,91.2,54.5,29.94,WSW,239,0.0,3.1,29,0.00,,---,0.00,VWS V14.01,2013-08-08 23:49:00,
2013-08-08 18:50:00,91.0,55.3,29.94,WSW,241,0.0,0.0,30,0.00,,---,0.00,VWS V14.01,2013-08-08 23:50:00,
2013-08-08 18:51:00,91.0,55.3,29.94,West,265,3.1,3.6,30,0.00,,---,0.00,VWS V14.01,2013-08-08 23:51:00,
2013-08-08 18:52:00,91.0,55.3,29.94,South,189,2.7,2.7,30,0.00,,---,0.00,VWS V14.01,2013-08-08 23:52:00,
2013-08-08 18:53:00,91.0,55.3,29.94,South,190,2.2,2.7,30,0.00,,---,0.00,VWS V14.01,2013-08-08 23:53:00,
2013-08-08 18:54:00,91.0,55.3,29.94,SSW,205,2.7,4.0,30,0.00,,---,0.00,VWS V14.01,2013-08-08 23:54:00,
2013-08-08 18:55:00,90.9,55.2,29.94,SSW,205,2.2,2.7,30,0.00,,---,0.00,VWS V14.01,2013-08-08 23:55:00,
2013-08-08 18:56:00,90.9,55.2,29.94,WNW,288,3.1,3.1,30,0.00,,---,0.00,VWS V14.01,2013-08-08 23:56:00,
2013-08-08 18:57:00,90.9,55.2,29.94,SW,232,3.1,3.1,30,0.00,,---,0.00,VWS V14.01,2013-08-08 23:57:00,
2013-08-08 18:58:00,90.9,55.2,29.94,SW,229,0.0,3.1,30,0.00,,---,0.00,VWS V14.01,2013-08-08 23:58:00,
2013-08-08 18:59:00,91.0,55.3,29.94,SSW,194,2.7,3.1,30,0.00,,---,0.00,VWS V14.01,2013-08-08 23:59:00,
2013-08-08 19:00:00,91.0,54.4,29.94,SSW,213,3.1,3.6,29,0.00,,---,0.00,VWS V14.01,2013-08-09 00:00:00,
2013-08-08 19:01:00,90.7,55.0,29.94,West,271,0.0,3.1,30,0.00,,---,0.00,VWS V14.01,2013-08-09 00:01:00,
2013-08-08 19:02:00,90.7,55.0,29.94,South,170,3.1,4.0,30,0.00,,---,0.00,VWS V14.01,2013-08-09 00:02:00,
2013-08-08 19:03:00,90.7,55.0,29.94,WSW,237,2.7,4.0,30,0.00,,---,0.00,VWS V14.01,2013-08-09 00:03:00,
2013-08-08 19:04:00,90.7,55.0,29.94,WSW,244,2.2,2.7,30,0.00,,---,0.00,VWS V14.01,2013-08-09 00:04:00,
2013-08-08 19:05:00,90.9,55.2,29.94,WSW,244,0.0,2.2,30,0.00,,---,0.00,VWS V14.01,2013-08-09 00:05:00,
2013-08-08 19:06:00,90.7,55.0,29.94,WSW,244,0.0,0.0,30,0.00,,---,0.00,VWS V14.01,2013-08-09 00:06:00,
2013-08-08 19:07:00,90.5,54.9,29.94,SSW,194,0.0,0.0,30,0.00,,---,0.00,VWS V14.01,2013-08-09 00:07:00,
2013-08-08 19:08:00,90.7,55.0,29.94,SSW,194,0.0,0.0,30,0.00,,---,0.00,VWS V14.01,2013-08-09 00:08:00,
2013-08-08 19:09:00,90.7,55.0,29.94,SSW,203,0.0,0.0,30,0.00,,---,0.00,VWS V14.01,2013-08-09 00:09:00,
2013-08-08 19:10:00,90.7,55.0,29.94,WSW,243,0.0,0.0,30,0.00,,---,0.00,VWS V14.01,2013-08-09 00:10:00,
2013-08-08 19:11:00,90.5,54.9,29.94,WSW,245,0.0,0.0,30,0.00,,---,0.00,VWS V14.01,2013-08-09 00:11:00,
2013-08-08 19:12:00,90.1,54.5,29.94,SW,215,3.6,3.6,30,0.00,,---,0.00,VWS V14.01,2013-08-09 00:12:00,
2013-08-08 19:13:00,90.1,54.6,29.94,South,181,3.1,3.6,30,0.00,,---,0.00,VWS V14.01,2013-08-09 00:13:00,
2013-08-08 19:14:00,90.1,54.6,29.94,SW,224,3.6,3.6,30,0.00,,---,0.00,VWS V14.01,2013-08-09 00:14:00,
2013-08-08 19:15:00,90.1,54.6,29.94,SW,216,0.0,4.0,30,0.00,,---,0.00,VWS V14.01,2013-08-09 00:15:00,
2013-08-08 19:16:00,90.1,55.5,29.94,WNW,292,3.6,4.5,31,0.00,,---,0.00,VWS V14.01,2013-08-09 00:16:00,
2013-08-08 19:17:00,90.0,55.3,29.94,WNW,282,2.2,2.2,31,0.00,,---,0.00,VWS V14.01,2013-08-09 00:17:00,
2013-08-08 19:18:00,90.0,55.3,29.94,WNW,282,2.7,2.7,31,0.00,,---,0.00,VWS V14.01,2013-08-09 00:18:00,
2013-08-08 19:19:00,90.1,55.5,29.94,WSW,240,4.0,4.0,31,0.00,,---,0.00,VWS V14.01,2013-08-09 00:19:00,
2013-08-08 19:20:00,90.1,55.5,29.94,SW,233,0.0,4.0,31,0.00,,---,0.00,VWS V14.01,2013-08-09 00:20:00,
2013-08-08 19:21:00,90.3,55.6,29.94,SW,233,0.0,0.0,31,0.00,,---,0.00,VWS V14.01,2013-08-09 00:21:00,
2013-08-08 19:22:00,90.0,55.3,29.94,WSW,239,0.0,0.0,31,0.00,,---,0.00,VWS V14.01,2013-08-09 00:22:00,
2013-08-08 19:23:00,90.0,55.3,29.94,WSW,239,0.0,0.0,31,0.00,,---,0.00,VWS V14.01,2013-08-09 00:23:00,
2013-08-08 19:24:00,90.0,55.3,29.94,WSW,239,0.0,0.0,31,0.00,,---,0.00,VWS V14.01,2013-08-09 00:24:00,
2013-08-08 19:25:00,90.0,55.3,29.94,WSW,239,0.0,0.0,31,0.00,,---,0.00,VWS V14.01,2013-08-09 00:25:00,
2013-08-08 19:26:00,89.8,56.0,29.94,WSW,239,0.0,0.0,32,0.00,,---,0.00,VWS V14.01,2013-08-09 00:26:00,
2013-08-08 19:27:00,89.6,55.9,29.94,WSW,239,0.0,0.0,32,0.00,,---,0.00,VWS V14.01,2013-08-09 00:27:00,
2013-08-08 19:28:00,89.6,55.9,29.94,WSW,239,0.0,0.0,32,0.00,,---,0.00,VWS V14.01,2013-08-09 00:28:00,
2013-08-08 19:29:00,89.4,55.7,29.94,WSW,239,0.0,0.0,32,0.00,,---,0.00,VWS V14.01,2013-08-09 00:29:00,
2013-08-08 19:30:00,89.4,55.7,29.94,SW,228,2.2,2.2,32,0.00,,---,0.00,VWS V14.01,2013-08-09 00:30:00,
2013-08-08 19:31:00,89.4,55.7,29.94,SSW,208,2.2,4.0,32,0.00,,---,0.00,VWS V14.01,2013-08-09 00:31:00,
2013-08-08 19:32:00,89.4,55.7,29.94,West,263,2.2,2.2,32,0.00,,---,0.00,VWS V14.01,2013-08-09 00:32:00,
2013-08-08 19:33:00,89.4,55.7,29.94,West,263,2.7,2.7,32,0.00,,---,0.00,VWS V14.01,2013-08-09 00:33:00,
2013-08-08 19:34:00,89.1,56.2,29.94,West,263,2.2,3.1,33,0.00,,---,0.00,VWS V14.01,2013-08-09 00:34:00,
2013-08-08 19:35:00,89.1,56.2,29.94,West,263,0.0,2.7,33,0.00,,---,0.00,VWS V14.01,2013-08-09 00:35:00,
2013-08-08 19:36:00,89.1,56.2,29.94,West,263,0.0,0.0,33,0.00,,---,0.00,VWS V14.01,2013-08-09 00:36:00,
2013-08-08 19:37:00,89.1,56.2,29.94,West,263,0.0,0.0,33,0.00,,---,0.00,VWS V14.01,2013-08-09 00:37:00,
2013-08-08 19:38:00,88.9,56.1,29.94,WNW,293,0.0,0.0,33,0.00,,---,0.00,VWS V14.01,2013-08-09 00:38:00,
2013-08-08 19:39:00,88.9,56.1,29.94,WNW,293,0.0,0.0,33,0.00,,---,0.00,VWS V14.01,2013-08-09 00:39:00,
2013-08-08 19:40:00,88.7,55.9,29.94,WNW,293,0.0,0.0,33,0.00,,---,0.00,VWS V14.01,2013-08-09 00:40:00,
2013-08-08 19:41:00,88.7,56.8,29.94,WNW,293,0.0,0.0,34,0.00,,---,0.00,VWS V14.01,2013-08-09 00:41:00,
2013-08-08 19:42:00,88.7,55.9,29.94,South,174,0.0,0.0,33,0.00,,---,0.00,VWS V14.01,2013-08-09 00:42:00,
2013-08-08 19:43:00,88.5,55.8,29.94,SSW,204,0.0,0.0,33,0.00,,---,0.00,VWS V14.01,2013-08-09 00:43:00,
2013-08-08 19:44:00,88.5,55.8,29.94,South,187,0.0,0.0,33,0.00,,---,0.00,VWS V14.01,2013-08-09 00:44:00,
2013-08-08 19:45:00,88.3,56.4,29.94,South,189,0.0,0.0,34,0.00,,---,0.00,VWS V14.01,2013-08-09 00:45:00,
2013-08-08 19:46:00,88.5,56.6,29.94,South,189,0.0,0.0,34,0.00,,---,0.00,VWS V14.01,2013-08-09 00:46:00,
2013-08-08 19:47:00,88.5,55.8,29.94,SW,219,2.2,2.7,33,0.00,,---,0.00,VWS V14.01,2013-08-09 00:47:00,
2013-08-08 19:48:00,88.5,55.8,29.94,SSW,194,2.2,2.7,33,0.00,,---,0.00,VWS V14.01,2013-08-09 00:48:00,
2013-08-08 19:49:00,88.3,55.6,29.94,SSW,194,2.2,2.2,33,0.00,,---,0.00,VWS V14.01,2013-08-09 00:49:00,
2013-08-08 19:50:00,88.2,56.3,29.94,SSW,194,0.0,2.2,34,0.00,,---,0.00,VWS V14.01,2013-08-09 00:50:00,
2013-08-08 19:51:00,88.0,56.1,29.94,SSW,194,0.0,0.0,34,0.00,,---,0.00,VWS V14.01,2013-08-09 00:51:00,
2013-08-08 19:52:00,88.0,56.1,29.94,SSW,210,0.0,0.0,34,0.00,,---,0.00,VWS V14.01,2013-08-09 00:52:00,
2013-08-08 19:53:00,88.0,56.1,29.94,SSW,210,0.0,0.0,34,0.00,,---,0.00,VWS V14.01,2013-08-09 00:53:00,
2013-08-08 19:54:00,88.0,56.1,29.94,SSW,210,0.0,0.0,34,0.00,,---,0.00,VWS V14.01,2013-08-09 00:54:00,
2013-08-08 19:55:00,87.8,56.0,29.94,SSW,210,0.0,0.0,34,0.00,,---,0.00,VWS V14.01,2013-08-09 00:55:00,
2013-08-08 19:56:00,87.8,56.0,29.94,SSW,199,0.0,0.0,34,0.00,,---,0.00,VWS V14.01,2013-08-09 00:56:00,
2013-08-08 19:57:00,87.8,56.0,29.94,SSW,200,0.0,0.0,34,0.00,,---,0.00,VWS V14.01,2013-08-09 00:57:00,
2013-08-08 19:58:00,87.6,56.6,29.94,SSW,200,0.0,0.0,35,0.00,,---,0.00,VWS V14.01,2013-08-09 00:58:00,
2013-08-08 19:59:00,87.6,56.6,29.94,SSW,200,0.0,0.0,35,0.00,,---,0.00,VWS V14.01,2013-08-09 00:59:00,
2013-08-08 20:00:00,87.6,56.6,29.94,SSW,200,0.0,0.0,35,0.00,,---,0.00,VWS V14.01,2013-08-09 01:00:00,
2013-08-08 20:01:00,87.4,56.5,29.94,SSW,200,0.0,0.0,35,0.00,,---,0.00,VWS V14.01,2013-08-09 01:01:00,
2013-08-08 20:02:00,87.6,56.6,29.94,SSW,200,0.0,0.0,35,0.00,,---,0.00,VWS V14.01,2013-08-09 01:02:00,
2013-08-08 20:03:00,87.6,56.6,29.94,SSW,200,0.0,0.0,35,0.00,,---,0.00,VWS V14.01,2013-08-09 01:03:00,
2013-08-08 20:04:00,87.6,57.4,29.94,SSW,200,0.0,0.0,36,0.00,,---,0.00,VWS V14.01,2013-08-09 01:04:00,
2013-08-08 20:05:00,87.4,56.5,29.94,SSW,200,0.0,0.0,35,0.00,,---,0.00,VWS V14.01,2013-08-09 01:05:00,
2013-08-08 20:06:00,87.3,57.1,29.94,SSW,200,0.0,0.0,36,0.00,,---,0.00,VWS V14.01,2013-08-09 01:06:00,
2013-08-08 20:07:00,87.3,57.1,29.94,SSW,200,0.0,0.0,36,0.00,,---,0.00,VWS V14.01,2013-08-09 01:07:00,
2013-08-08 20:08:00,87.1,56.9,29.94,South,177,0.0,0.0,36,0.00,,---,0.00,VWS V14.01,2013-08-09 01:08:00,
2013-08-08 20:09:00,87.1,56.9,29.94,South,177,0.0,0.0,36,0.00,,---,0.00,VWS V14.01,2013-08-09 01:09:00,
2013-08-08 20:10:00,87.1,56.9,29.94,South,177,0.0,0.0,36,0.00,,---,0.00,VWS V14.01,2013-08-09 01:10:00,
2013-08-08 20:11:00,86.9,57.5,29.94,South,177,0.0,0.0,37,0.00,,---,0.00,VWS V14.01,2013-08-09 01:11:00,
2013-08-08 20:12:00,86.7,57.4,29.94,South,177,0.0,0.0,37,0.00,,---,0.00,VWS V14.01,2013-08-09 01:12:00,
2013-08-08 20:13:00,86.9,57.5,29.94,South,177,0.0,0.0,37,0.00,,---,0.00,VWS V14.01,2013-08-09 01:13:00,
2013-08-08 20:14:00,86.9,57.5,29.94,South,177,0.0,0.0,37,0.00,,---,0.00,VWS V14.01,2013-08-09 01:14:00,
2013-08-08 20:15:00,86.9,57.5,29.94,South,177,0.0,0.0,37,0.00,,---,0.00,VWS V14.01,2013-08-09 01:15:00,
2013-08-08 20:16:00,86.7,57.4,29.94,South,177,0.0,0.0,37,0.00,,---,0.00,VWS V14.01,2013-08-09 01:16:00,
2013-08-08 20:17:00,86.7,57.4,29.94,South,177,0.0,0.0,37,0.00,,---,0.00,VWS V14.01,2013-08-09 01:17:00,
2013-08-08 20:18:00,87.1,58.4,29.94,South,177,0.0,0.0,38,0.00,,---,0.00,VWS V14.01,2013-08-09 01:18:00,
2013-08-08 20:19:00,86.9,57.5,29.94,South,177,0.0,0.0,37,0.00,,---,0.00,VWS V14.01,2013-08-09 01:19:00,
2013-08-08 20:20:00,86.7,57.4,29.94,WSW,252,3.1,3.1,37,0.00,,---,0.00,VWS V14.01,2013-08-09 01:20:00,
2013-08-08 20:21:00,86.5,57.9,29.94,SW,218,2.2,3.1,38,0.00,,---,0.00,VWS V14.01,2013-08-09 01:21:00,
2013-08-08 20:22:00,86.4,57.8,29.94,SW,218,0.0,2.2,38,0.00,,---,0.00,VWS V14.01,2013-08-09 01:22:00,
2013-08-08 20:23:00,86.4,57.8,29.94,SW,218,0.0,0.0,38,0.00,,---,0.00,VWS V14.01,2013-08-09 01:23:00,
2013-08-08 20:24:00,86.4,57.8,29.94,SW,218,0.0,0.0,38,0.00,,---,0.00,VWS V14.01,2013-08-09 01:24:00,
2013-08-08 20:25:00,86.2,57.6,29.94,SW,218,0.0,0.0,38,0.00,,---,0.00,VWS V14.01,2013-08-09 01:25:00,
2013-08-08 20:26:00,86.2,57.6,29.94,SW,218,0.0,0.0,38,0.00,,---,0.00,VWS V14.01,2013-08-09 01:26:00,
2013-08-08 20:27:00,86.0,57.5,29.94,SW,218,0.0,0.0,38,0.00,,---,0.00,VWS V14.01,2013-08-09 01:27:00,
2013-08-08 20:28:00,85.8,58.0,29.94,SW,218,0.0,0.0,39,0.00,,---,0.00,VWS V14.01,2013-08-09 01:28:00,
2013-08-08 20:29:00,85.8,58.0,29.94,SW,218,0.0,0.0,39,0.00,,---,0.00,VWS V14.01,2013-08-09 01:29:00,
2013-08-08 20:30:00,85.8,58.0,29.94,SW,218,0.0,0.0,39,0.00,,---,0.00,VWS V14.01,2013-08-09 01:30:00,
2013-08-08 20:31:00,85.6,57.9,29.94,SW,218,0.0,0.0,39,0.00,,---,0.00,VWS V14.01,2013-08-09 01:31:00,
2013-08-08 20:32:00,85.5,58.4,29.94,SW,218,0.0,0.0,40,0.00,,---,0.00,VWS V14.01,2013-08-09 01:32:00,
2013-08-08 20:33:00,85.6,58.6,29.94,SW,218,0.0,0.0,40,0.00,,---,0.00,VWS V14.01,2013-08-09 01:33:00,
2013-08-08 20:34:00,85.6,58.6,29.94,SW,218,0.0,0.0,40,0.00,,---,0.00,VWS V14.01,2013-08-09 01:34:00,
2013-08-08 20:35:00,85.6,58.6,29.94,SW,218,0.0,0.0,40,0.00,,---,0.00,VWS V14.01,2013-08-09 01:35:00,
2013-08-08 20:36:00,85.6,58.6,29.94,SW,218,0.0,0.0,40,0.00,,---,0.00,VWS V14.01,2013-08-09 01:36:00,
2013-08-08 20:37:00,85.5,58.4,29.94,SW,218,0.0,0.0,40,0.00,,---,0.00,VWS V14.01,2013-08-09 01:37:00,
2013-08-08 20:38:00,85.3,58.2,29.94,SW,218,0.0,0.0,40,0.00,,---,0.00,VWS V14.01,2013-08-09 01:38:00,
2013-08-08 20:39:00,85.6,58.6,29.94,SW,218,0.0,0.0,40,0.00,,---,0.00,VWS V14.01,2013-08-09 01:39:00,
2013-08-08 20:40:00,85.8,58.7,29.94,SW,218,0.0,0.0,40,0.00,,---,0.00,VWS V14.01,2013-08-09 01:40:00,
2013-08-08 20:41:00,85.8,58.7,29.94,SW,218,0.0,0.0,40,0.00,,---,0.00,VWS V14.01,2013-08-09 01:41:00,
2013-08-08 20:42:00,85.6,58.6,29.94,SW,217,0.0,0.0,40,0.00,,---,0.00,VWS V14.01,2013-08-09 01:42:00,
2013-08-08 20:43:00,85.5,58.4,29.94,SW,217,0.0,0.0,40,0.00,,---,0.00,VWS V14.01,2013-08-09 01:43:00,
2013-08-08 20:44:00,85.6,59.3,29.94,SW,217,0.0,0.0,41,0.00,,---,0.00,VWS V14.01,2013-08-09 01:44:00,
2013-08-08 20:45:00,85.6,59.3,29.94,SW,217,0.0,0.0,41,0.00,,---,0.00,VWS V14.01,2013-08-09 01:45:00,
2013-08-08 20:46:00,85.6,59.3,29.94,SW,217,0.0,0.0,41,0.00,,---,0.00,VWS V14.01,2013-08-09 01:46:00,
2013-08-08 20:47:00,85.5,59.1,29.94,SW,216,0.0,0.0,41,0.00,,---,0.00,VWS V14.01,2013-08-09 01:47:00,
2013-08-08 20:48:00,85.5,59.1,29.94,SW,217,0.0,0.0,41,0.00,,---,0.00,VWS V14.01,2013-08-09 01:48:00,
2013-08-08 20:49:00,85.1,58.8,29.94,SW,216,0.0,0.0,41,0.00,,---,0.00,VWS V14.01,2013-08-09 01:49:00,
2013-08-08 20:50:00,85.1,58.8,29.94,SW,217,0.0,0.0,41,0.00,,---,0.00,VWS V14.01,2013-08-09 01:50:00,
2013-08-08 20:51:00,85.3,58.9,29.94,SW,217,0.0,0.0,41,0.00,,---,0.00,VWS V14.01,2013-08-09 01:51:00,
2013-08-08 20:52:00,85.3,58.9,29.94,SW,216,0.0,0.0,41,0.00,,---,0.00,VWS V14.01,2013-08-09 01:52:00,
2013-08-08 20:53:00,85.3,58.9,29.94,SW,216,0.0,0.0,41,0.00,,---,0.00,VWS V14.01,2013-08-09 01:53:00,
2013-08-08 20:54:00,84.9,59.3,29.94,SW,216,0.0,0.0,42,0.00,,---,0.00,VWS V14.01,2013-08-09 01:54:00,
2013-08-08 20:55:00,84.7,59.1,29.94,SW,216,0.0,0.0,42,0.00,,---,0.00,VWS V14.01,2013-08-09 01:55:00,
2013-08-08 20:56:00,84.7,59.1,29.94,SW,216,0.0,0.0,42,0.00,,---,0.00,VWS V14.01,2013-08-09 01:56:00,
2013-08-08 20:57:00,84.9,59.3,29.94,SW,216,0.0,0.0,42,0.00,,---,0.00,VWS V14.01,2013-08-09 01:57:00,
2013-08-08 20:58:00,84.9,59.3,29.94,SW,216,0.0,0.0,42,0.00,,---,0.00,VWS V14.01,2013-08-09 01:58:00,
2013-08-08 20:59:00,84.7,59.1,29.94,SW,216,0.0,0.0,42,0.00,,---,0.00,VWS V14.01,2013-08-09 01:59:00,
2013-08-08 21:00:00,84.7,59.1,29.94,SW,216,0.0,0.0,42,0.00,,---,0.00,VWS V14.01,2013-08-09 02:00:00,
2013-08-08 21:01:00,84.6,59.6,29.94,SW,216,0.0,0.0,43,0.00,,---,0.00,VWS V14.01,2013-08-09 02:01:00,
2013-08-08 21:02:00,84.4,59.5,29.94,SW,216,0.0,0.0,43,0.00,,---,0.00,VWS V14.01,2013-08-09 02:02:00,
2013-08-08 21:03:00,84.4,59.5,29.94,SW,216,0.0,0.0,43,0.00,,---,0.00,VWS V14.01,2013-08-09 02:03:00,
2013-08-08 21:04:00,84.0,59.8,29.94,SW,216,0.0,0.0,44,0.00,,---,0.00,VWS V14.01,2013-08-09 02:04:00,
2013-08-08 21:05:00,84.0,59.8,29.94,SW,216,0.0,0.0,44,0.00,,---,0.00,VWS V14.01,2013-08-09 02:05:00,
2013-08-08 21:06:00,84.0,59.8,29.94,SW,216,0.0,0.0,44,0.00,,---,0.00,VWS V14.01,2013-08-09 02:06:00,
2013-08-08 21:07:00,83.8,60.2,29.94,SW,216,0.0,0.0,45,0.00,,---,0.00,VWS V14.01,2013-08-09 02:07:00,
2013-08-08 21:08:00,83.8,60.2,29.94,SW,216,0.0,0.0,45,0.00,,---,0.00,VWS V14.01,2013-08-09 02:08:00,
2013-08-08 21:09:00,83.7,60.1,29.94,SW,216,0.0,0.0,45,0.00,,---,0.00,VWS V14.01,2013-08-09 02:09:00,
2013-08-08 21:10:00,83.7,60.1,29.94,SW,216,0.0,0.0,45,0.00,,---,0.00,VWS V14.01,2013-08-09 02:10:00,
2013-08-08 21:11:00,83.5,60.5,29.94,SW,216,0.0,0.0,46,0.00,,---,0.00,VWS V14.01,2013-08-09 02:11:00,
2013-08-08 21:12:00,83.5,60.5,29.94,SW,216,0.0,0.0,46,0.00,,---,0.00,VWS V14.01,2013-08-09 02:12:00,
2013-08-08 21:13:00,83.3,60.4,29.94,SW,216,0.0,0.0,46,0.00,,---,0.00,VWS V14.01,2013-08-09 02:13:00,
2013-08-08 21:14:00,83.3,61.0,29.94,SW,216,0.0,0.0,47,0.00,,---,0.00,VWS V14.01,2013-08-09 02:14:00,
2013-08-08 21:15:00,83.3,61.0,29.94,SW,216,0.0,0.0,47,0.00,,---,0.00,VWS V14.01,2013-08-09 02:15:00,
2013-08-08 21:16:00,83.1,60.8,29.94,SW,216,0.0,0.0,47,0.00,,---,0.00,VWS V14.01,2013-08-09 02:16:00,
2013-08-08 21:17:00,82.9,60.7,29.94,SW,216,0.0,0.0,47,0.00,,---,0.00,VWS V14.01,2013-08-09 02:17:00,
2013-08-08 21:18:00,82.9,61.2,29.94,SW,216,0.0,0.0,48,0.00,,---,0.00,VWS V14.01,2013-08-09 02:18:00,
2013-08-08 21:19:00,82.8,61.1,29.97,SW,216,0.0,0.0,48,0.00,,---,0.00,VWS V14.01,2013-08-09 02:19:00,
2013-08-08 21:20:00,82.8,61.1,29.97,SW,216,0.0,0.0,48,0.00,,---,0.00,VWS V14.01,2013-08-09 02:20:00,
2013-08-08 21:21:00,82.8,61.1,29.97,SW,216,0.0,0.0,48,0.00,,---,0.00,VWS V14.01,2013-08-09 02:21:00,
2013-08-08 21:22:00,82.6,60.9,29.97,SW,216,0.0,0.0,48,0.00,,---,0.00,VWS V14.01,2013-08-09 02:22:00,
2013-08-08 21:23:00,82.6,60.9,29.97,SW,216,0.0,0.0,48,0.00,,---,0.00,VWS V14.01,2013-08-09 02:23:00,
2013-08-08 21:24:00,82.4,61.3,29.97,SW,216,0.0,0.0,49,0.00,,---,0.00,VWS V14.01,2013-08-09 02:24:00,
2013-08-08 21:25:00,82.4,61.3,29.97,SW,216,0.0,0.0,49,0.00,,---,0.00,VWS V14.01,2013-08-09 02:25:00,
2013-08-08 21:26:00,82.4,61.3,29.97,SW,216,0.0,0.0,49,0.00,,---,0.00,VWS V14.01,2013-08-09 02:26:00,
2013-08-08 21:27:00,82.4,61.3,29.97,SW,216,0.0,0.0,49,0.00,,---,0.00,VWS V14.01,2013-08-09 02:27:00,
2013-08-08 21:28:00,82.2,61.8,29.97,SW,216,0.0,0.0,50,0.00,,---,0.00,VWS V14.01,2013-08-09 02:28:00,
2013-08-08 21:29:00,82.2,61.8,29.97,SW,216,0.0,0.0,50,0.00,,---,0.00,VWS V14.01,2013-08-09 02:29:00,
2013-08-08 21:30:00,82.2,61.8,29.97,SW,216,0.0,0.0,50,0.00,,---,0.00,VWS V14.01,2013-08-09 02:30:00,
2013-08-08 21:31:00,82.2,61.8,29.97,SW,216,0.0,0.0,50,0.00,,---,0.00,VWS V14.01,2013-08-09 02:31:00,
2013-08-08 21:32:00,82.2,61.8,29.97,SW,216,0.0,0.0,50,0.00,,---,0.00,VWS V14.01,2013-08-09 02:32:00,
2013-08-08 21:33:00,82.2,61.8,29.97,SW,216,0.0,0.0,50,0.00,,---,0.00,VWS V14.01,2013-08-09 02:33:00,
2013-08-08 21:34:00,82.0,62.1,29.97,SW,216,0.0,0.0,51,0.00,,---,0.00,VWS V14.01,2013-08-09 02:34:00,
2013-08-08 21:35:00,82.0,62.1,29.97,SW,216,0.0,0.0,51,0.00,,---,0.00,VWS V14.01,2013-08-09 02:35:00,
2013-08-08 21:36:00,82.0,62.1,29.97,SW,216,0.0,0.0,51,0.00,,---,0.00,VWS V14.01,2013-08-09 02:36:00,
2013-08-08 21:37:00,82.0,62.1,29.97,SW,216,0.0,0.0,51,0.00,,---,0.00,VWS V14.01,2013-08-09 02:37:00,
2013-08-08 21:38:00,82.0,62.1,29.97,SW,216,0.0,0.0,51,0.00,,---,0.00,VWS V14.01,2013-08-09 02:38:00,
2013-08-08 21:39:00,81.9,62.5,29.97,SW,216,0.0,0.0,52,0.00,,---,0.00,VWS V14.01,2013-08-09 02:39:00,
2013-08-08 21:40:00,81.9,62.5,29.97,SW,216,0.0,0.0,52,0.00,,---,0.00,VWS V14.01,2013-08-09 02:40:00,
2013-08-08 21:41:00,81.9,62.5,29.97,SW,216,0.0,0.0,52,0.00,,---,0.00,VWS V14.01,2013-08-09 02:41:00,
2013-08-08 21:42:00,81.9,62.5,29.97,SW,216,0.0,0.0,52,0.00,,---,0.00,VWS V14.01,2013-08-09 02:42:00,
2013-08-08 21:43:00,81.9,62.5,29.97,SW,216,0.0,0.0,52,0.00,,---,0.00,VWS V14.01,2013-08-09 02:43:00,
2013-08-08 21:44:00,81.9,62.5,29.97,SW,216,0.0,0.0,52,0.00,,---,0.00,VWS V14.01,2013-08-09 02:44:00,
2013-08-08 21:45:00,81.9,62.5,29.97,SW,216,0.0,0.0,52,0.00,,---,0.00,VWS V14.01,2013-08-09 02:45:00,
2013-08-08 21:46:00,81.7,62.9,29.97,SW,216,0.0,0.0,53,0.00,,---,0.00,VWS V14.01,2013-08-09 02:46:00,
2013-08-08 21:47:00,81.7,62.9,29.97,SW,216,0.0,0.0,53,0.00,,---,0.00,VWS V14.01,2013-08-09 02:47:00,
2013-08-08 21:48:00,81.7,62.9,29.97,SW,216,0.0,0.0,53,0.00,,---,0.00,VWS V14.01,2013-08-09 02:48:00,
2013-08-08 21:49:00,81.7,62.9,29.97,SW,216,0.0,0.0,53,0.00,,---,0.00,VWS V14.01,2013-08-09 02:49:00,
2013-08-08 21:50:00,81.7,62.9,29.97,SW,216,0.0,0.0,53,0.00,,---,0.00,VWS V14.01,2013-08-09 02:50:00,
2013-08-08 21:51:00,81.7,62.9,29.97,SW,216,0.0,0.0,53,0.00,,---,0.00,VWS V14.01,2013-08-09 02:51:00,
2013-08-08 21:52:00,81.5,62.7,29.97,SW,216,0.0,0.0,53,0.00,,---,0.00,VWS V14.01,2013-08-09 02:52:00,
2013-08-08 21:53:00,81.5,63.3,29.97,SW,216,0.0,0.0,54,0.00,,---,0.00,VWS V14.01,2013-08-09 02:53:00,
2013-08-08 21:54:00,81.7,63.4,29.97,SW,216,0.0,0.0,54,0.00,,---,0.00,VWS V14.01,2013-08-09 02:54:00,
2013-08-08 21:55:00,81.7,63.4,29.97,SW,216,0.0,0.0,54,0.00,,---,0.00,VWS V14.01,2013-08-09 02:55:00,
2013-08-08 21:56:00,81.7,63.4,29.97,SW,216,0.0,0.0,54,0.00,,---,0.00,VWS V14.01,2013-08-09 02:56:00,
2013-08-08 21:57:00,81.7,63.4,29.97,SW,216,0.0,0.0,54,0.00,,---,0.00,VWS V14.01,2013-08-09 02:57:00,
2013-08-08 21:58:00,81.7,63.4,29.97,SSW,192,0.0,0.0,54,0.00,,---,0.00,VWS V14.01,2013-08-09 02:58:00,
2013-08-08 21:59:00,81.7,64.0,29.97,South,183,0.0,0.0,55,0.00,,---,0.00,VWS V14.01,2013-08-09 02:59:00,
2013-08-08 22:00:00,82.0,64.3,29.97,South,183,0.0,0.0,55,0.00,,---,0.00,VWS V14.01,2013-08-09 03:00:00,
2013-08-08 22:01:00,82.2,64.5,29.97,South,183,0.0,0.0,55,0.00,,---,0.00,VWS V14.01,2013-08-09 03:01:00,
2013-08-08 22:02:00,82.2,64.5,29.97,South,183,0.0,0.0,55,0.00,,---,0.00,VWS V14.01,2013-08-09 03:02:00,
2013-08-08 22:03:00,82.0,64.3,29.97,South,191,0.0,0.0,55,0.00,,---,0.00,VWS V14.01,2013-08-09 03:03:00,
2013-08-08 22:04:00,82.0,64.3,29.97,SSW,200,0.0,0.0,55,0.00,,---,0.00,VWS V14.01,2013-08-09 03:04:00,
2013-08-08 22:05:00,82.0,64.3,29.97,SSW,200,0.0,0.0,55,0.00,,---,0.00,VWS V14.01,2013-08-09 03:05:00,
2013-08-08 22:06:00,81.9,64.1,29.97,SSW,200,0.0,0.0,55,0.00,,---,0.00,VWS V14.01,2013-08-09 03:06:00,
2013-08-08 22:07:00,82.0,64.8,29.97,SSW,200,0.0,0.0,56,0.00,,---,0.00,VWS V14.01,2013-08-09 03:07:00,
2013-08-08 22:08:00,82.0,64.8,29.97,SSW,201,0.0,2.7,56,0.00,,---,0.00,VWS V14.01,2013-08-09 03:08:00,
2013-08-08 22:09:00,82.2,65.0,29.97,SSW,201,0.0,0.0,56,0.00,,---,0.00,VWS V14.01,2013-08-09 03:09:00,
2013-08-08 22:10:00,82.0,64.8,29.97,SSW,201,0.0,0.0,56,0.00,,---,0.00,VWS V14.01,2013-08-09 03:10:00,
2013-08-08 22:11:00,82.0,64.8,29.97,SSW,201,0.0,0.0,56,0.00,,---,0.00,VWS V14.01,2013-08-09 03:11:00,
2013-08-08 22:12:00,82.0,64.8,29.97,SSW,201,0.0,0.0,56,0.00,,---,0.00,VWS V14.01,2013-08-09 03:12:00,
2013-08-08 22:13:00,82.0,64.8,29.97,SSW,201,0.0,0.0,56,0.00,,---,0.00,VWS V14.01,2013-08-09 03:13:00,
2013-08-08 22:14:00,82.0,64.8,29.97,SSW,201,0.0,0.0,56,0.00,,---,0.00,VWS V14.01,2013-08-09 03:14:00,
2013-08-08 22:15:00,82.0,65.3,29.97,SSW,201,0.0,0.0,57,0.00,,---,0.00,VWS V14.01,2013-08-09 03:15:00,
2013-08-08 22:16:00,82.0,65.3,29.97,SSW,201,0.0,0.0,57,0.00,,---,0.00,VWS V14.01,2013-08-09 03:16:00,
2013-08-08 22:17:00,82.0,65.3,29.97,SSW,201,0.0,0.0,57,0.00,,---,0.00,VWS V14.01,2013-08-09 03:17:00,
2013-08-08 22:18:00,82.0,65.3,29.97,SSW,201,0.0,0.0,57,0.00,,---,0.00,VWS V14.01,2013-08-09 03:18:00,
2013-08-08 22:19:00,81.9,65.2,29.97,SSW,200,0.0,0.0,57,0.00,,---,0.00,VWS V14.01,2013-08-09 03:19:00,
2013-08-08 22:20:00,82.0,65.3,29.97,SSW,201,0.0,0.0,57,0.00,,---,0.00,VWS V14.01,2013-08-09 03:20:00,
2013-08-08 22:21:00,82.0,65.3,29.97,SSW,201,0.0,0.0,57,0.00,,---,0.00,VWS V14.01,2013-08-09 03:21:00,
2013-08-08 22:22:00,81.9,65.2,29.97,SSW,201,0.0,0.0,57,0.00,,---,0.00,VWS V14.01,2013-08-09 03:22:00,
2013-08-08 22:23:00,81.9,65.2,29.97,SSW,201,0.0,0.0,57,0.00,,---,0.00,VWS V14.01,2013-08-09 03:23:00,
2013-08-08 22:24:00,81.9,65.2,29.97,SSW,201,0.0,0.0,57,0.00,,---,0.00,VWS V14.01,2013-08-09 03:24:00,
2013-08-08 22:25:00,81.9,65.7,29.97,SSW,201,0.0,0.0,58,0.00,,---,0.00,VWS V14.01,2013-08-09 03:25:00,
2013-08-08 22:26:00,81.9,65.7,29.97,SSW,201,0.0,0.0,58,0.00,,---,0.00,VWS V14.01,2013-08-09 03:26:00,
2013-08-08 22:27:00,82.0,65.8,29.97,SSW,201,0.0,0.0,58,0.00,,---,0.00,VWS V14.01,2013-08-09 03:27:00,
2013-08-08 22:28:00,82.0,65.8,29.97,SSW,201,0.0,0.0,58,0.00,,---,0.00,VWS V14.01,2013-08-09 03:28:00,
2013-08-08 22:29:00,82.0,65.8,29.97,SSW,201,0.0,0.0,58,0.00,,---,0.00,VWS V14.01,2013-08-09 03:29:00,
2013-08-08 22:30:00,81.9,65.7,29.97,SSW,200,0.0,0.0,58,0.00,,---,0.00,VWS V14.01,2013-08-09 03:30:00,
2013-08-08 22:31:00,81.9,65.7,29.97,SSW,201,0.0,0.0,58,0.00,,---,0.00,VWS V14.01,2013-08-09 03:31:00,
2013-08-08 22:32:00,81.9,65.7,29.97,SSW,201,0.0,0.0,58,0.00,,---,0.00,VWS V14.01,2013-08-09 03:32:00,
2013-08-08 22:33:00,81.9,66.1,29.97,SSW,201,0.0,0.0,59,0.00,,---,0.00,VWS V14.01,2013-08-09 03:33:00,
2013-08-08 22:34:00,81.9,66.1,29.97,SSW,201,0.0,0.0,59,0.00,,---,0.00,VWS V14.01,2013-08-09 03:34:00,
2013-08-08 22:35:00,81.9,66.1,29.97,SSW,201,0.0,0.0,59,0.00,,---,0.00,VWS V14.01,2013-08-09 03:35:00,
2013-08-08 22:36:00,81.9,66.1,29.97,SSW,201,0.0,0.0,59,0.00,,---,0.00,VWS V14.01,2013-08-09 03:36:00,
2013-08-08 22:37:00,81.7,66.0,29.97,SSW,200,0.0,0.0,59,0.00,,---,0.00,VWS V14.01,2013-08-09 03:37:00,
2013-08-08 22:38:00,81.7,66.0,29.97,SSW,201,0.0,0.0,59,0.00,,---,0.00,VWS V14.01,2013-08-09 03:38:00,
2013-08-08 22:39:00,81.5,65.8,29.97,SSW,201,0.0,0.0,59,0.00,,---,0.00,VWS V14.01,2013-08-09 03:39:00,
2013-08-08 22:40:00,81.5,65.8,29.97,SSW,201,0.0,0.0,59,0.00,,---,0.00,VWS V14.01,2013-08-09 03:40:00,
2013-08-08 22:41:00,81.5,65.8,29.97,SSW,201,0.0,0.0,59,0.00,,---,0.00,VWS V14.01,2013-08-09 03:41:00,
2013-08-08 22:42:00,81.5,66.3,29.97,SSW,201,0.0,0.0,60,0.00,,---,0.00,VWS V14.01,2013-08-09 03:42:00,
2013-08-08 22:43:00,81.3,66.1,29.97,SSW,201,0.0,0.0,60,0.00,,---,0.00,VWS V14.01,2013-08-09 03:43:00,
2013-08-08 22:44:00,81.3,66.1,29.97,SSW,201,0.0,0.0,60,0.00,,---,0.00,VWS V14.01,2013-08-09 03:44:00,
2013-08-08 22:45:00,81.3,66.1,29.97,SSW,201,0.0,0.0,60,0.00,,---,0.00,VWS V14.01,2013-08-09 03:45:00,
2013-08-08 22:46:00,81.3,66.1,29.97,SSW,201,0.0,0.0,60,0.00,,---,0.00,VWS V14.01,2013-08-09 03:46:00,
2013-08-08 22:47:00,81.3,66.1,29.97,SSW,200,0.0,0.0,60,0.00,,---,0.00,VWS V14.01,2013-08-09 03:47:00,
2013-08-08 22:48:00,81.5,66.3,29.97,SSW,201,0.0,0.0,60,0.00,,---,0.00,VWS V14.01,2013-08-09 03:48:00,
2013-08-08 22:49:00,81.3,66.1,29.97,SSW,201,0.0,0.0,60,0.00,,---,0.00,VWS V14.01,2013-08-09 03:49:00,
2013-08-08 22:50:00,81.3,66.1,29.97,SSW,200,0.0,0.0,60,0.00,,---,0.00,VWS V14.01,2013-08-09 03:50:00,
2013-08-08 22:51:00,81.1,65.9,29.97,SSW,201,0.0,0.0,60,0.00,,---,0.00,VWS V14.01,2013-08-09 03:51:00,
2013-08-08 22:52:00,81.1,66.4,29.97,SSW,201,0.0,0.0,61,0.00,,---,0.00,VWS V14.01,2013-08-09 03:52:00,
2013-08-08 22:53:00,81.1,66.4,29.97,SSW,201,0.0,0.0,61,0.00,,---,0.00,VWS V14.01,2013-08-09 03:53:00,
2013-08-08 22:54:00,81.3,66.6,29.97,SSW,201,0.0,0.0,61,0.00,,---,0.00,VWS V14.01,2013-08-09 03:54:00,
2013-08-08 22:55:00,81.3,66.6,29.97,SSW,201,0.0,0.0,61,0.00,,---,0.00,VWS V14.01,2013-08-09 03:55:00,
2013-08-08 22:56:00,81.1,66.4,29.97,SSW,201,0.0,0.0,61,0.00,,---,0.00,VWS V14.01,2013-08-09 03:56:00,
2013-08-08 22:57:00,81.1,66.4,29.97,SSW,201,0.0,0.0,61,0.00,,---,0.00,VWS V14.01,2013-08-09 03:57:00,
2013-08-08 22:58:00,81.1,66.4,29.97,SSW,201,0.0,0.0,61,0.00,,---,0.00,VWS V14.01,2013-08-09 03:58:00,
2013-08-08 22:59:00,81.5,67.2,29.97,SSW,201,0.0,0.0,62,0.00,,---,0.00,VWS V14.01,2013-08-09 03:59:00,
2013-08-08 23:00:00,81.5,66.8,29.97,SSW,201,0.0,0.0,61,0.00,,---,0.00,VWS V14.01,2013-08-09 04:00:00,
2013-08-08 23:01:00,81.5,66.8,29.97,SSW,201,0.0,0.0,61,0.00,,---,0.00,VWS V14.01,2013-08-09 04:01:00,
2013-08-08 23:02:00,81.5,66.8,29.97,SSW,201,0.0,0.0,61,0.00,,---,0.00,VWS V14.01,2013-08-09 04:02:00,
2013-08-08 23:03:00,81.3,66.6,29.97,SSW,201,0.0,0.0,61,0.00,,---,0.00,VWS V14.01,2013-08-09 04:03:00,
2013-08-08 23:04:00,81.5,66.8,29.97,SSW,200,0.0,0.0,61,0.00,,---,0.00,VWS V14.01,2013-08-09 04:04:00,
2013-08-08 23:05:00,81.7,66.9,29.97,SSW,200,0.0,0.0,61,0.00,,---,0.00,VWS V14.01,2013-08-09 04:05:00,
2013-08-08 23:06:00,81.7,66.9,29.97,SSW,201,0.0,0.0,61,0.00,,---,0.00,VWS V14.01,2013-08-09 04:06:00,
2013-08-08 23:07:00,81.7,66.9,29.97,SSW,201,0.0,0.0,61,0.00,,---,0.00,VWS V14.01,2013-08-09 04:07:00,
2013-08-08 23:08:00,81.5,66.8,29.97,SSW,201,0.0,0.0,61,0.00,,---,0.00,VWS V14.01,2013-08-09 04:08:00,
2013-08-08 23:09:00,81.5,66.8,29.97,SSW,201,0.0,0.0,61,0.00,,---,0.00,VWS V14.01,2013-08-09 04:09:00,
2013-08-08 23:10:00,81.5,66.8,29.97,SSW,201,0.0,0.0,61,0.00,,---,0.00,VWS V14.01,2013-08-09 04:10:00,
2013-08-08 23:11:00,81.9,67.1,29.97,SSW,196,0.0,0.0,61,0.00,,---,0.00,VWS V14.01,2013-08-09 04:11:00,
2013-08-08 23:12:00,82.0,67.3,29.97,SSW,196,0.0,0.0,61,0.00,,---,0.00,VWS V14.01,2013-08-09 04:12:00,
2013-08-08 23:13:00,82.0,67.3,29.97,SSW,196,0.0,0.0,61,0.00,,---,0.00,VWS V14.01,2013-08-09 04:13:00,
2013-08-08 23:14:00,82.0,67.3,29.97,South,186,0.0,0.0,61,0.00,,---,0.00,VWS V14.01,2013-08-09 04:14:00,
2013-08-08 23:15:00,81.9,66.6,29.97,South,186,0.0,0.0,60,0.00,,---,0.00,VWS V14.01,2013-08-09 04:15:00,
2013-08-08 23:16:00,81.5,66.8,29.97,SSW,211,0.0,0.0,61,0.00,,---,0.00,VWS V14.01,2013-08-09 04:16:00,
2013-08-08 23:17:00,81.5,66.8,29.97,SSW,211,0.0,0.0,61,0.00,,---,0.00,VWS V14.01,2013-08-09 04:17:00,
2013-08-08 23:18:00,81.5,66.8,29.97,SSW,211,0.0,0.0,61,0.00,,---,0.00,VWS V14.01,2013-08-09 04:18:00,
2013-08-08 23:19:00,81.7,66.9,29.97,SSW,211,0.0,0.0,61,0.00,,---,0.00,VWS V14.01,2013-08-09 04:19:00,
2013-08-08 23:20:00,81.5,66.8,29.97,SSW,211,0.0,0.0,61,0.00,,---,0.00,VWS V14.01,2013-08-09 04:20:00,
2013-08-08 23:21:00,81.5,66.8,29.97,SSW,211,0.0,0.0,61,0.00,,---,0.00,VWS V14.01,2013-08-09 04:21:00,
2013-08-08 23:22:00,81.5,66.8,29.97,SSW,211,0.0,0.0,61,0.00,,---,0.00,VWS V14.01,2013-08-09 04:22:00,
2013-08-08 23:23:00,81.3,66.6,29.97,SSW,211,0.0,0.0,61,0.00,,---,0.00,VWS V14.01,2013-08-09 04:23:00,
2013-08-08 23:24:00,81.3,67.1,29.97,SSW,211,0.0,0.0,62,0.00,,---,0.00,VWS V14.01,2013-08-09 04:24:00,
2013-08-08 23:25:00,81.3,67.1,29.97,SSW,211,0.0,0.0,62,0.00,,---,0.00,VWS V14.01,2013-08-09 04:25:00,
2013-08-08 23:26:00,81.5,67.2,29.97,SSW,211,0.0,0.0,62,0.00,,---,0.00,VWS V14.01,2013-08-09 04:26:00,
2013-08-08 23:27:00,81.5,67.2,29.97,SSW,211,0.0,0.0,62,0.00,,---,0.00,VWS V14.01,2013-08-09 04:27:00,
2013-08-08 23:28:00,81.3,67.1,29.97,SSW,211,0.0,0.0,62,0.00,,---,0.00,VWS V14.01,2013-08-09 04:28:00,
2013-08-08 23:29:00,81.3,67.1,29.97,SSW,211,0.0,0.0,62,0.00,,---,0.00,VWS V14.01,2013-08-09 04:29:00,
2013-08-08 23:30:00,81.3,67.1,29.97,SSW,211,0.0,0.0,62,0.00,,---,0.00,VWS V14.01,2013-08-09 04:30:00,
2013-08-08 23:31:00,81.3,67.1,29.97,SSW,211,0.0,0.0,62,0.00,,---,0.00,VWS V14.01,2013-08-09 04:31:00,
2013-08-08 23:32:00,81.3,67.5,29.97,SSW,211,0.0,0.0,63,0.00,,---,0.00,VWS V14.01,2013-08-09 04:32:00,
2013-08-08 23:33:00,81.5,67.7,29.97,SSW,211,0.0,0.0,63,0.00,,---,0.00,VWS V14.01,2013-08-09 04:33:00,
2013-08-08 23:34:00,81.5,67.7,29.97,SSW,211,0.0,0.0,63,0.00,,---,0.00,VWS V14.01,2013-08-09 04:34:00,
2013-08-08 23:35:00,81.5,67.2,29.97,SSW,211,0.0,0.0,62,0.00,,---,0.00,VWS V14.01,2013-08-09 04:35:00,
2013-08-08 23:36:00,81.3,67.5,29.97,SSW,211,0.0,0.0,63,0.00,,---,0.00,VWS V14.01,2013-08-09 04:36:00,
2013-08-08 23:37:00,81.3,67.5,29.97,SSW,211,0.0,0.0,63,0.00,,---,0.00,VWS V14.01,2013-08-09 04:37:00,
2013-08-08 23:38:00,81.3,67.5,29.97,SSW,211,0.0,0.0,63,0.00,,---,0.00,VWS V14.01,2013-08-09 04:38:00,
2013-08-08 23:39:00,81.3,67.5,29.97,SSW,211,0.0,0.0,63,0.00,,---,0.00,VWS V14.01,2013-08-09 04:39:00,
2013-08-08 23:40:00,81.3,67.5,29.97,SSW,211,0.0,0.0,63,0.00,,---,0.00,VWS V14.01,2013-08-09 04:40:00,
2013-08-08 23:41:00,81.1,67.4,29.97,SSW,211,0.0,0.0,63,0.00,,---,0.00,VWS V14.01,2013-08-09 04:41:00,
2013-08-08 23:42:00,81.1,67.4,29.97,SSW,211,0.0,0.0,63,0.00,,---,0.00,VWS V14.01,2013-08-09 04:42:00,
2013-08-08 23:43:00,81.1,67.4,29.97,SSW,211,0.0,0.0,63,0.00,,---,0.00,VWS V14.01,2013-08-09 04:43:00,
2013-08-08 23:44:00,81.1,67.4,29.97,SSW,211,0.0,0.0,63,0.00,,---,0.00,VWS V14.01,2013-08-09 04:44:00,
2013-08-08 23:45:00,81.0,67.2,29.97,SSW,211,0.0,0.0,63,0.00,,---,0.00,VWS V14.01,2013-08-09 04:45:00,
2013-08-08 23:46:00,81.1,67.8,29.97,SSW,211,0.0,0.0,64,0.00,,---,0.00,VWS V14.01,2013-08-09 04:46:00,
2013-08-08 23:47:00,81.1,67.8,29.97,SSW,211,0.0,0.0,64,0.00,,---,0.00,VWS V14.01,2013-08-09 04:47:00,
2013-08-08 23:48:00,81.1,67.8,29.97,SSW,211,0.0,0.0,64,0.00,,---,0.00,VWS V14.01,2013-08-09 04:48:00,
2013-08-08 23:49:00,81.1,67.8,29.97,SSW,211,0.0,0.0,64,0.00,,---,0.00,VWS V14.01,2013-08-09 04:49:00,
2013-08-08 23:50:00,81.1,67.8,29.97,SSW,211,0.0,0.0,64,0.00,,---,0.00,VWS V14.01,2013-08-09 04:50:00,
2013-08-08 23:51:00,81.0,67.7,29.97,SSW,211,0.0,0.0,64,0.00,,---,0.00,VWS V14.01,2013-08-09 04:51:00,
2013-08-08 23:52:00,81.0,67.7,29.97,SSW,211,0.0,0.0,64,0.00,,---,0.00,VWS V14.01,2013-08-09 04:52:00,
2013-08-08 23:53:00,80.8,67.5,29.97,SSW,211,0.0,0.0,64,0.00,,---,0.00,VWS V14.01,2013-08-09 04:53:00,
2013-08-08 23:54:00,80.8,67.5,29.97,SSW,211,0.0,0.0,64,0.00,,---,0.00,VWS V14.01,2013-08-09 04:54:00,
2013-08-08 23:55:00,80.8,67.5,29.97,SSW,211,0.0,0.0,64,0.00,,---,0.00,VWS V14.01,2013-08-09 04:55:00,
2013-08-08 23:56:00,80.8,67.5,29.97,SSW,211,0.0,0.0,64,0.00,,---,0.00,VWS V14.01,2013-08-09 04:56:00,
2013-08-08 23:57:00,80.8,67.5,29.97,SSW,211,0.0,0.0,64,0.00,,---,0.00,VWS V14.01,2013-08-09 04:57:00,
2013-08-08 23:58:00,80.6,67.3,29.97,SSW,211,0.0,0.0,64,0.00,,---,0.00,VWS V14.01,2013-08-09 04:58:00,
2013-08-08 23:59:00,80.6,67.3,29.97,SSW,211,0.0,0.0,64,0.00,,---,0.00,VWS V14.01,2013-08-09 04:59:00,